[[{"header":{"parameterUnit":"m.s-1","parameterCategory":1,"la1":30.6,"la2":28.766,"lo1":-90.7593,"lo2":-88.6598,"dx":0.0162,"dy":0.0183,"nx":116,"ny":114,"refTime":"2023-01-30T06:00:00:Z","depth":0,"parameterNumber":2,"parameterNumberName":"U-component_of_WINDS"},"data":[0.0,0.0,0.0,0.0,0.0,0.0,0.0,0.0,0.0,0.0,0.0,0.0,0.0,0.0,0.0,0.0,0.0,0.0,0.0,0.0,0.0,0.0,0.0,0.0,0.0,0.0,0.0,0.0,0.0,0.0,0.0,0.0,0.0,0.0,0.0,0.0,0.0,0.0,0.0,0.0,0.0,0.0,0.0,0.0,0.0,0.0,0.0,0.0,0.0,0.0,0.0,0.0,0.0,0.0,0.0,0.0,0.0,0.0,0.0,0.0,0.0,0.0,0.0,0.0,0.0,0.0,0.0,0.0,0.0,0.0,0.0,0.0,0.0,0.0,0.0,0.0,0.0,0.0,0.0,0.0,0.0,0.0,0.0,0.0,0.0,0.0,0.0,0.0,0.0,0.0,0.0,0.0,0.0,0.0,0.0,0.0,0.0,0.0,0.0,0.0,0.0,0.0,0.0,0.0,0.0,0.0,0.0,0.0,0.0,0.0,0.0,0.0,0.0,0.0,0.0,0.0,0.0,0.0,0.0,0.0,0.0,0.0,0.0,0.0,0.0,0.0,0.0,0.0,0.0,0.0,0.0,0.0,0.0,0.0,0.0,0.0,0.0,0.0,0.0,0.0,0.0,0.0,0.0,0.0,0.0,0.0,0.0,0.0,0.0,0.0,0.0,0.0,0.0,0.0,0.0,0.0,0.0,0.0,0.0,0.0,0.0,0.0,0.0,0.0,0.0,0.0,0.0,0.0,0.0,0.0,0.0,0.0,0.0,0.0,0.0,0.0,0.0,0.0,0.0,0.0,0.0,0.0,0.0,0.0,0.0,0.0,0.0,0.0,0.0,0.0,0.0,0.0,0.0,0.0,0.0,0.0,0.0,0.0,0.0,0.0,0.0,0.0,0.0,0.0,0.0,0.0,0.0,0.0,0.0,0.0,0.0,0.0,0.0,0.0,0.0,0.0,0.0,0.0,0.0,0.0,0.0,0.0,0.0,0.0,0.0,0.0,0.0,0.0,0.0,0.0,0.0,0.0,0.0,0.0,0.0,0.0,0.0,0.0,0.0,0.0,0.0,0.0,0.0,0.0,0.0,0.0,0.0,0.0,0.0,0.0,0.0,0.0,0.0,0.0,0.0,0.0,0.0,0.0,0.0,0.0,0.0,0.0,0.0,0.0,0.0,0.0,0.0,0.0,0.0,0.0,0.0,0.0,0.0,0.0,0.0,0.0,0.0,0.0,0.0,0.0,0.0,0.0,0.0,0.0,0.0,0.0,0.0,0.0,0.0,0.0,0.0,0.0,0.0,0.0,0.0,0.0,0.0,0.0,0.0,0.0,0.0,0.0,0.0,0.0,0.0,0.0,0.0,0.0,0.0,0.0,0.0,0.0,0.0,0.0,0.0,0.0,0.0,0.0,0.0,0.0,0.0,0.0,0.0,0.0,0.0,0.0,0.0,0.0,0.0,0.0,0.0,0.0,0.0,0.0,0.0,0.0,0.0,0.0,0.0,0.0,0.0,0.0,0.0,0.0,0.0,0.0,0.0,0.0,0.0,0.0,0.0,0.0,0.0,0.0,0.0,0.0,0.0,0.0,0.0,0.0,0.0,0.0,0.0,0.0,0.0,0.0,0.0,0.0,0.0,0.0,0.0,0.0,0.0,0.0,0.0,0.0,0.0,0.0,0.0,0.0,0.0,0.0,0.0,0.0,0.0,0.0,0.0,0.0,0.0,0.0,0.0,0.0,0.0,0.0,0.0,0.0,0.0,0.0,0.0,0.0,0.0,0.0,0.0,0.0,0.0,0.0,0.0,0.0,0.0,0.0,0.0,0.0,0.0,0.0,0.0,0.0,0.0,0.0,0.0,0.0,0.0,0.0,0.0,0.0,0.0,0.0,0.0,0.0,0.0,0.0,0.0,0.0,0.0,0.0,0.0,0.0,0.0,0.0,0.0,0.0,0.0,0.0,0.0,0.0,0.0,0.0,0.0,0.0,0.0,0.0,0.0,0.0,0.0,0.0,0.0,0.0,0.0,0.0,0.0,0.0,0.0,0.0,0.0,0.0,0.0,0.0,0.0,0.0,0.0,0.0,0.0,0.0,0.0,0.0,0.0,0.0,0.0,0.0,0.0,0.0,0.0,0.0,0.0,0.0,0.0,0.0,0.0,0.0,0.0,0.0,0.0,0.0,0.0,0.0,0.0,0.0,0.0,0.0,0.0,0.0,0.0,0.0,0.0,0.0,0.0,0.0,0.0,0.0,0.0,0.0,0.0,0.0,0.0,0.0,0.0,0.0,0.0,0.0,0.0,0.0,0.0,0.0,0.0,0.0,0.0,0.0,0.0,0.0,0.0,0.0,0.0,0.0,0.0,0.0,0.0,0.0,0.0,0.0,0.0,0.0,0.0,0.0,0.0,0.0,0.0,0.0,0.0,0.0,0.0,0.0,0.0,0.0,0.0,0.0,0.0,0.0,0.0,0.0,0.0,0.0,0.0,0.0,0.0,0.0,0.0,0.0,0.0,0.0,0.0,0.0,0.0,0.0,0.0,0.0,0.0,0.0,0.0,0.0,0.0,0.0,0.0,0.0,0.0,0.0,0.0,0.0,0.0,0.0,0.0,0.0,0.0,0.0,0.0,0.0,0.0,0.0,0.0,0.0,0.0,0.0,0.0,0.0,0.0,0.0,0.0,0.0,0.0,0.0,0.0,0.0,0.0,0.0,0.0,0.0,0.0,0.0,0.0,0.0,0.0,0.0,0.0,0.0,0.0,0.0,0.0,0.0,0.0,0.0,0.0,0.0,0.0,0.0,0.0,0.0,0.0,0.0,0.0,0.0,0.0,0.0,0.0,0.0,0.0,0.0,0.0,0.0,0.0,0.0,0.0,0.0,0.0,0.0,0.0,0.0,0.0,0.0,0.0,0.0,0.0,0.0,0.0,0.0,0.0,0.0,0.0,0.0,0.0,0.0,0.0,0.0,0.0,0.0,0.0,0.0,0.0,0.0,0.0,0.0,0.0,0.0,0.0,0.0,0.0,0.0,0.0,0.0,0.0,0.0,0.0,0.0,0.0,0.0,0.0,0.0,0.0,0.0,0.0,0.0,0.0,0.0,0.0,0.0,0.0,0.0,0.0,0.0,0.0,0.0,0.0,0.0,0.0,0.0,0.0,0.0,0.0,0.0,0.0,0.0,0.0,0.0,0.0,0.0,0.0,0.0,0.0,0.0,0.0,0.0,0.0,0.0,0.0,0.0,0.0,0.0,0.0,0.0,0.0,0.0,0.0,0.0,0.0,0.0,0.0,0.0,0.0,0.0,0.0,0.0,0.0,0.0,0.0,0.0,0.0,0.0,0.0,0.0,0.0,0.0,0.0,0.0,0.0,0.0,0.0,0.0,0.0,0.0,0.0,0.0,0.0,0.0,0.0,0.0,0.0,0.0,0.0,0.0,0.0,0.0,0.0,0.0,0.0,0.0,0.0,0.0,0.0,0.0,0.0,0.0,0.0,0.0,0.0,0.0,0.0,0.0,0.0,0.0,0.0,0.0,0.0,0.0,0.0,0.0,0.0,0.0,0.0,0.0,0.0,0.0,0.0,0.0,0.0,0.0,0.0,0.0,0.0,0.0,0.0,0.0,0.0,0.0,0.0,0.0,0.0,0.0,0.0,0.0,0.0,0.0,0.0,0.0,0.0,0.0,0.0,0.0,0.0,0.0,0.0,0.0,0.0,0.0,0.0,0.0,0.0,0.0,0.0,0.0,0.0,0.0,0.0,0.0,0.0,0.0,0.0,0.0,0.0,0.0,0.0,0.0,0.0,0.0,0.0,0.0,0.0,0.0,0.0,0.0,0.0,0.0,0.0,0.0,0.0,0.0,0.0,0.0,0.0,0.0,0.0,0.0,0.0,0.0,0.0,0.0,0.0,0.0,0.0,0.0,0.0,0.0,0.0,0.0,0.0,0.0,0.0,0.0,0.0,0.0,0.0,0.0,0.0,0.0,0.0,0.0,0.0,0.0,0.0,0.0,0.0,0.0,0.0,0.0,0.0,0.0,0.0,0.0,0.0,0.0,0.0,0.0,0.0,0.0,0.0,0.0,0.0,0.0,0.0,0.0,0.0,0.0,0.0,0.0,0.0,0.0,0.0,0.0,0.0,0.0,0.0,0.0,0.0,0.0,0.0,0.0,0.0,0.0,0.0,0.0,0.0,0.0,0.0,0.0,0.0,0.0,0.0,0.0,0.0,0.0,0.0,0.0,0.0,0.0,0.0,0.0,0.0,0.0,0.0,0.0,0.0,0.0,0.0,0.0,0.0,0.0,0.0,0.0,0.0,0.0,0.0,0.0,0.0,0.0,0.0,0.0,0.0,0.0,0.0,0.0,0.0,0.0,0.0,0.0,0.0,0.0,0.0,0.0,0.0,0.0,0.0,0.0,0.0,0.0,0.0,0.0,0.0,0.0,0.0,0.0,0.0,0.0,0.0,0.0,0.0,0.0,0.0,0.0,0.0,0.0,0.0,0.0,0.0,0.0,0.0,0.0,0.0,0.0,0.0,0.0,0.0,0.0,0.0,0.0,0.0,0.0,0.0,0.0,0.0,0.0,0.0,0.0,0.0,0.0,0.0,0.0,0.0,0.0,0.0,0.0,0.0,0.0,0.0,0.0,0.0,0.0,0.0,0.0,0.0,0.0,0.0,0.0,0.0,0.0,0.0,0.0,0.0,0.0,0.0,0.0,0.0,0.0,0.0,0.0,0.0,0.0,0.0,0.0,0.0,0.0,0.0,0.0,0.0,0.0,0.0,0.0,0.0,0.0,0.0,0.0,0.0,0.0,0.0,0.0,0.0,0.0,0.0,0.0,0.0,0.0,0.0,0.0,0.0,0.0,0.0,0.0,0.0,0.0,0.0,0.0,0.0,0.0,0.0,0.0,0.0,0.0,0.0,0.0,0.0,0.0,0.0,0.0,0.0,0.0,0.0,0.0,0.0,0.0,0.0,0.0,0.0,0.0,0.0,0.0,0.0,0.0,0.0,0.0,0.0,0.0,0.0,0.0,0.0,0.0,0.0,0.0,0.0,0.0,0.0,0.0,0.0,0.0,0.0,0.0,0.0,0.0,0.0,0.0,0.0,0.0,0.0,0.0,0.0,0.0,0.0,0.0,0.0,0.0,0.0,0.0,0.0,0.0,0.0,0.0,0.0,0.0,0.0,0.0,0.0,0.0,0.0,0.0,0.0,0.0,0.0,0.0,0.0,0.0,0.0,0.0,0.0,0.0,0.0,0.0,0.0,0.0,0.0,0.0,0.0,0.0,0.0,0.0,0.0,0.0,0.0,0.0,0.0,0.0,0.0,0.0,0.0,0.0,0.0,0.0,0.0,0.0,0.0,0.0,0.0,0.0,0.0,0.0,0.0,0.0,0.0,0.0,0.0,0.0,0.0,0.0,0.0,0.0,0.0,0.0,0.0,0.0,0.0,0.0,0.0,0.0,0.0,0.0,0.0,0.0,0.0,0.0,0.0,0.0,0.0,0.0,0.0,0.0,0.0,0.0,0.0,0.0,0.0,0.0,0.0,0.0,0.0,0.0,0.0,0.0,0.0,0.0,0.0,0.0,0.0,0.0,0.0,0.0,0.0,0.0,0.0,0.0,0.0,0.0,0.0,0.0,0.0,0.0,0.0,0.0,0.0,0.0,0.0,0.0,0.0,0.0,0.0,0.0,0.0,0.0,0.0,0.0,0.0,0.0,0.0,0.0,0.0,0.0,0.0,0.0,0.0,0.0,0.0,0.0,0.0,0.0,0.0,0.0,0.0,0.0,0.0,0.0,0.0,0.0,0.0,0.0,0.0,0.0,0.0,0.0,0.0,0.0,0.0,0.0,0.0,0.0,0.0,0.0,0.0,0.0,0.0,0.0,0.0,0.0,0.0,0.0,0.0,0.0,0.0,0.0,0.0,0.0,0.0,0.0,0.0,0.0,0.0,0.0,0.0,0.0,0.0,0.0,0.0,0.0,0.0,0.0,0.0,0.0,0.0,0.0,0.0,0.0,0.0,0.0,0.0,0.0,0.0,0.0,0.0,0.0,0.0,0.0,0.0,0.0,0.0,0.0,0.0,0.0,0.0,0.0,-1.1577,-1.1689,0.0,0.0,0.0,0.0,0.0,0.0,0.0,0.0,0.0,0.0,0.0,0.0,0.0,0.0,0.0,0.0,0.0,0.0,0.0,0.0,0.0,0.0,0.0,0.0,0.0,0.0,0.0,0.0,0.0,0.0,0.0,0.0,0.0,0.0,0.0,0.0,0.0,0.0,0.0,0.0,0.0,0.0,0.0,0.0,0.0,0.0,0.0,0.0,0.0,0.0,0.0,0.0,0.0,0.0,0.0,0.0,0.0,0.0,0.0,0.0,0.0,0.0,0.0,0.0,0.0,0.0,0.0,0.0,0.0,0.0,0.0,0.0,0.0,0.0,0.0,0.0,0.0,0.0,0.0,0.0,0.0,0.0,0.0,0.0,0.0,0.0,0.0,0.0,0.0,0.0,0.0,0.0,0.0,0.0,0.0,0.0,0.0,0.0,0.0,0.0,0.0,0.0,0.0,0.0,0.0,0.0,0.0,0.0,0.0,0.0,0.0,0.0,0.0,0.0,-1.0581,-1.0475,0.0,0.0,0.0,0.0,0.0,0.0,0.0,0.0,0.0,0.0,0.0,0.0,0.0,0.0,0.0,0.0,0.0,0.0,0.0,0.0,0.0,0.0,0.0,0.0,0.0,0.0,0.0,0.0,0.0,0.0,0.0,0.0,0.0,0.0,0.0,0.0,0.0,0.0,0.0,0.0,0.0,0.0,0.0,0.0,0.0,0.0,0.0,0.0,0.0,0.0,0.0,0.0,0.0,0.0,0.0,0.0,0.0,0.0,0.0,0.0,0.0,0.0,0.0,0.0,0.0,0.0,0.0,0.0,0.0,0.0,0.0,0.0,0.0,0.0,0.0,0.0,0.0,0.0,0.0,0.0,0.0,0.0,0.0,0.0,0.0,0.0,0.0,0.0,0.0,0.0,0.0,0.0,0.0,0.0,0.0,0.0,0.0,0.0,0.0,0.0,0.0,0.0,0.0,0.0,0.0,0.0,0.0,0.0,-1.3021,-1.2891,-1.2445,-1.2595,-1.2302,-1.156,-0.9705,-0.9197,-0.9687,-0.9704,0.0,0.0,0.0,0.0,0.0,0.0,0.0,0.0,0.0,0.0,0.0,0.0,0.0,0.0,0.0,0.0,0.0,0.0,0.0,0.0,0.0,0.0,0.0,0.0,0.0,0.0,0.0,0.0,0.0,0.0,0.0,0.0,0.0,0.0,0.0,0.0,0.0,0.0,0.0,0.0,0.0,0.0,0.0,0.0,0.0,0.0,0.0,0.0,0.0,0.0,0.0,0.0,0.0,0.0,0.0,0.0,0.0,0.0,0.0,0.0,0.0,0.0,0.0,0.0,0.0,0.0,0.0,0.0,0.0,0.0,0.0,0.0,0.0,0.0,0.0,0.0,0.0,0.0,0.0,0.0,0.0,0.0,0.0,0.0,0.0,0.0,-1.0492,-1.0214,0.0,0.0,0.0,0.0,0.0,0.0,0.0,0.0,0.0,0.0,0.0,0.0,0.0,-1.3143,-1.3239,-1.342,-1.3541,-1.3638,-1.3686,-1.3029,-1.1838,-1.2592,-1.2588,-1.1901,-1.1163,0.0,-1.042,-0.9905,0.0,0.0,0.0,0.0,0.0,0.0,0.0,0.0,0.0,0.0,0.0,0.0,0.0,0.0,0.0,0.0,0.0,0.0,0.0,0.0,0.0,0.0,0.0,0.0,0.0,0.0,0.0,0.0,0.0,0.0,0.0,0.0,0.0,0.0,0.0,0.0,0.0,0.0,0.0,0.0,0.0,0.0,0.0,0.0,0.0,0.0,0.0,0.0,0.0,0.0,0.0,0.0,0.0,0.0,0.0,0.0,0.0,0.0,0.0,0.0,0.0,0.0,0.0,0.0,0.0,0.0,0.0,0.0,0.0,0.0,0.0,0.0,0.0,0.0,0.0,0.0,0.0,0.0,0.0,0.0,0.0,0.0,0.0,0.0,0.0,-1.1178,-1.1392,-1.1654,-1.1553,-1.1419,0.0,0.0,0.0,0.0,0.0,0.0,0.0,0.0,0.0,-1.1831,-1.2954,-1.3631,-1.3771,-1.4087,-1.4352,-1.4587,-1.4883,-1.4624,-1.3899,-1.4448,-1.4281,-1.3556,-1.3374,-1.2968,-1.234,-1.0914,-1.0357,-1.0356,0.0,0.0,0.0,0.0,-1.0143,-1.0747,0.0,0.0,0.0,0.0,0.0,0.0,0.0,0.0,0.0,0.0,0.0,0.0,0.0,0.0,0.0,0.0,0.0,0.0,0.0,0.0,0.0,0.0,0.0,0.0,0.0,0.0,0.0,0.0,0.0,0.0,0.0,0.0,0.0,0.0,0.0,0.0,0.0,0.0,0.0,0.0,0.0,0.0,0.0,0.0,0.0,0.0,0.0,0.0,0.0,0.0,0.0,0.0,0.0,0.0,0.0,0.0,0.0,0.0,0.0,0.0,0.0,0.0,0.0,0.0,0.0,0.0,0.0,0.0,0.0,0.0,0.0,0.0,0.0,0.0,0.0,0.0,0.0,-1.2216,-1.2155,-1.2673,-1.2301,-1.2027,0.0,0.0,0.0,0.0,0.0,0.0,-1.2335,-1.303,-1.3355,-1.3194,-1.4275,-1.5019,-1.5364,-1.574,-1.6078,-1.6382,-1.651,-1.6348,-1.5995,-1.6034,-1.5601,-1.4795,-1.4741,-1.4372,-1.3684,-1.1908,-1.0953,-1.0589,-1.0279,-1.0256,-1.0355,-0.9991,-1.0415,-1.1015,0.0,0.0,0.0,0.0,0.0,0.0,0.0,0.0,0.0,0.0,0.0,0.0,0.0,0.0,0.0,0.0,0.0,0.0,0.0,0.0,0.0,0.0,0.0,0.0,0.0,0.0,0.0,0.0,0.0,0.0,0.0,0.0,0.0,0.0,0.0,0.0,0.0,0.0,0.0,0.0,0.0,0.0,0.0,0.0,0.0,0.0,0.0,0.0,0.0,0.0,0.0,0.0,0.0,0.0,0.0,0.0,0.0,0.0,0.0,0.0,0.0,0.0,0.0,0.0,0.0,0.0,0.0,0.0,0.0,0.0,0.0,0.0,0.0,0.0,0.0,0.0,0.0,0.0,0.0,-1.2118,-1.1349,0.0,0.0,0.0,0.0,-1.1877,-1.2708,-1.3073,-1.2787,-1.3423,-1.4346,-1.5575,-1.6969,-1.8315,-1.9585,-1.9555,-1.9553,-1.956,-1.8548,-1.7714,-1.7006,-1.6457,-1.5679,-1.4778,-1.4392,-1.4005,-1.3539,-1.2609,-1.2797,-1.3493,-1.1591,-1.1995,-1.3391,-1.1116,-1.0938,-1.1663,0.0,0.0,0.0,0.0,0.0,0.0,0.0,0.0,0.0,0.0,0.0,0.0,0.0,0.0,0.0,0.0,0.0,0.0,0.0,0.0,0.0,0.0,0.0,0.0,0.0,0.0,0.0,0.0,0.0,0.0,0.0,0.0,0.0,0.0,0.0,0.0,0.0,0.0,0.0,0.0,0.0,0.0,0.0,0.0,0.0,0.0,0.0,0.0,0.0,0.0,0.0,0.0,0.0,0.0,0.0,0.0,0.0,0.0,0.0,0.0,0.0,0.0,0.0,0.0,0.0,0.0,0.0,0.0,0.0,0.0,0.0,0.0,0.0,0.0,0.0,0.0,0.0,0.0,0.0,-1.46,-1.3868,0.0,-1.3852,-1.3787,-1.3805,-1.3949,-1.4803,-1.5254,-1.5129,-1.6204,-1.7036,-1.7515,-1.8853,-1.9803,-2.0276,-2.0642,-2.0491,-1.9806,-1.9597,-1.8979,-1.8067,-1.7831,-1.7285,-1.644,-1.5683,-1.5025,-1.4441,-1.3655,-1.3197,-1.2886,-1.1833,-1.191,-1.2508,-1.1648,-1.1708,-1.2066,0.0,0.0,0.0,0.0,0.0,0.0,0.0,0.0,0.0,0.0,0.0,0.0,0.0,0.0,0.0,0.0,0.0,0.0,0.0,0.0,0.0,0.0,0.0,0.0,0.0,0.0,0.0,0.0,0.0,0.0,0.0,0.0,0.0,0.0,0.0,0.0,0.0,0.0,0.0,0.0,0.0,0.0,0.2926,0.0,0.0,0.0,0.0,0.0,0.0,0.0,0.0,0.0,0.0,0.0,0.0,0.0,0.0,0.0,0.0,0.0,0.0,0.0,0.0,0.0,0.0,0.0,0.0,0.0,0.0,0.0,0.0,0.0,0.0,0.0,0.0,0.0,0.0,-1.5584,-1.5689,-1.6549,-1.5801,-1.5414,-1.5866,-1.547,-1.5289,-1.5628,-1.6321,-1.6905,-1.7243,-1.8249,-1.9051,-1.9537,-2.0517,-2.1218,-2.1572,-2.181,-2.146,-2.0469,-2.03,-1.9687,-1.8716,-1.8431,-1.8004,-1.7461,-1.6654,-1.5855,-1.5101,-1.4687,-1.3948,-1.3045,-1.272,-1.2717,-1.2805,-1.2539,-1.2643,-1.275,0.0,0.0,0.0,0.0,0.0,0.0,0.0,0.0,0.0,0.0,0.0,0.0,0.0,0.0,0.0,0.0,0.0,0.0,0.0,0.0,0.0,0.0,0.0,0.0,0.0,0.0,0.0,0.0,0.0,0.0,0.0,0.0,0.0,0.0,0.0,0.0,0.0,0.0,0.0,0.0,0.0,0.0,0.1491,0.0,0.0,0.0,0.0,0.0,0.0,0.0,0.0,0.0,0.0,0.0,0.0,0.0,0.0,0.0,0.0,0.0,0.0,0.0,0.0,0.0,0.0,0.0,0.0,0.0,0.0,0.0,0.0,0.0,0.0,0.0,0.0,0.0,-1.6781,-1.6865,-1.701,-1.7645,-1.6947,-1.6493,-1.674,-1.5934,-1.5763,-1.6688,-1.7231,-1.7956,-1.8911,-1.9375,-2.0227,-2.1586,-2.1954,-2.2642,-2.3683,-2.3231,-2.2602,-2.1803,-2.0734,-1.9794,-1.8983,-1.8127,-1.774,-1.7704,-1.7131,-1.6347,-1.5474,-1.5601,-1.5089,-1.425,-1.4358,-1.4526,-1.4603,-1.3816,-1.3677,-1.3671,0.0,0.0,0.0,0.0,0.0,0.0,0.0,0.0,0.0,0.0,0.0,0.0,0.0,0.0,0.0,0.0,0.0,0.0,0.0,0.0,0.0,0.0,0.0,0.0,0.0,0.0,0.0,0.0,0.0,0.0,0.0,0.0,0.0,0.0,0.0,0.0,0.0,0.0,0.0,0.0,0.0,0.0,0.1018,0.0,0.0,0.0,0.0,0.0,0.0,0.0,0.0,0.0,0.0,0.0,0.0,0.0,0.0,0.0,0.0,0.0,0.0,0.0,0.0,0.0,0.0,0.0,0.0,0.0,0.0,0.0,0.0,0.0,0.0,0.0,-1.6464,-1.7374,-1.7598,-1.8231,-1.861,-1.8444,-1.8493,-1.8437,-1.8197,-1.7933,-1.7863,-1.8115,-1.9318,-2.0122,-2.0407,-2.1118,-2.18,-2.2383,-2.2729,-2.3155,-2.3683,-2.3231,-2.2602,-2.1793,-2.1011,-2.0142,-1.9212,-1.8913,-1.8733,-1.856,-1.7095,-1.6644,-1.6806,-1.5248,-1.4795,-1.5035,-1.4633,-1.4508,-1.4528,-1.432,-1.3988,-1.3559,0.0,0.0,0.0,0.0,0.0,0.0,0.0,0.0,0.0,0.0,0.0,0.0,0.0,0.0,0.0,0.0,0.0,0.0,0.0,0.0,0.0,0.0,0.0,0.0,0.0,0.0,0.0,0.0,0.0,0.0,0.0,0.0,0.0,0.0,0.0,0.0,0.0,0.0,0.0,0.0,0.0,0.0,0.0106,-0.0267,0.0173,0.0966,0.0655,0.0381,0.025,0.0479,0.0,0.0,0.0,0.0,0.0,0.0,0.0,0.0,0.0,0.0,0.0,0.0,0.0,0.0,0.0,0.0,0.0,0.0,0.0,0.0,0.0,0.0,0.0,0.0,-1.8049,-1.9023,-1.944,-1.996,-2.0348,-2.057,-2.0643,-2.0643,-2.0601,-1.996,-1.9703,-2.0099,-2.0668,-2.1055,-2.1244,-2.1915,-2.2426,-2.2695,-2.3021,-2.3369,-2.3692,-2.3569,-2.3098,-2.229,-2.1563,-2.0714,-1.9794,-1.9409,-1.92,-1.9072,-1.8007,-1.7624,-1.7632,-1.5995,-1.5414,-1.5459,0.0,0.0,0.0,0.0,-1.438,-1.3714,0.0,0.0,0.0,0.0,0.0,0.0,0.0,0.0,0.0,0.0,0.0,0.0,0.0,0.0,0.0,0.0,0.0,0.0,0.0,0.0,0.0,0.0,0.0,0.0,0.0,0.0,0.0,0.0,0.0,0.0,0.0,0.0,0.0,0.0,0.0,0.0,0.0,0.0,0.0,0.0,0.0,0.0,-0.0933,-0.1302,-0.1694,-0.2091,-0.204,-0.2501,-0.2969,-0.2207,0.0,0.0,0.0,0.0,0.0,0.0,0.0,0.0,0.0,0.0,0.0,0.0,0.0,0.0,0.0,0.0,0.0,0.0,0.0,0.0,0.0,0.0,0.0,0.0,-2.0028,-2.0838,-2.1847,-2.1911,-2.2113,-2.2925,-2.2656,-2.2582,-2.3043,-2.1775,-2.1222,-2.2023,-2.1528,-2.1294,-2.1598,-2.204,0.0,0.0,0.0,-2.3369,-2.3692,-2.3934,-2.3712,-2.2997,-2.2114,-2.1261,-2.0466,-1.9697,-1.932,-1.928,-1.9198,-1.8803,-1.817,-1.7266,-1.6422,-1.5622,-1.495,-1.4766,-1.4911,-1.5163,-1.477,-1.4104,0.0,0.0,0.0,0.0,0.0,0.0,0.0,0.0,0.0,0.0,0.0,0.0,0.0,0.0,0.0,0.0,0.0,0.0,0.0,0.0,0.0,0.0,0.0,0.0,0.0,0.0,0.0,0.0,0.0,0.0,0.0,0.0,0.0,0.0,0.0,0.0,0.0,0.0,0.0,0.0,0.0,0.0,-0.0975,-0.1843,-0.2333,-0.2665,-0.3346,-0.4071,-0.4726,-0.4659,-0.5818,-0.7161,-0.6424,0.0,0.0,0.0,0.0,0.0,0.0,0.0,0.0,0.0,0.0,0.0,0.0,0.0,0.0,0.0,0.0,0.0,0.0,0.0,0.0,-2.1593,-2.2309,-2.3024,-2.3756,-2.3861,-2.3389,-2.2124,-2.2171,-2.2375,-2.2538,-2.2243,-2.2079,-2.2096,-2.2256,-2.2159,-2.1615,-2.204,-2.2426,-2.2695,-2.3021,-2.3369,-2.3692,-2.3386,-2.3162,-2.2988,-2.1639,0.0,-2.0482,-1.9841,-1.9447,-1.9253,-1.861,-1.861,-1.8959,-1.7495,-1.6422,-1.5622,-1.4846,-1.4626,-1.4766,-1.4923,-1.4899,-1.4715,0.0,0.0,0.0,0.0,0.0,0.0,0.0,0.0,0.0,0.0,0.0,0.0,0.0,0.0,0.0,0.0,0.0,0.0,0.0,0.0,0.0,0.0,0.0,0.0,0.0,0.0,0.0,0.0,0.0,0.0,0.0,0.0,0.0,0.0,0.0,0.0,0.0,0.0,0.0,0.0,0.0,0.0,-0.1896,-0.2675,-0.3723,-0.4842,-0.477,-0.5553,-0.65,-0.5953,-0.6896,-0.8213,-0.7701,-0.8708,-0.9865,0.0,0.0,0.0,0.0,0.0,0.0,0.0,0.0,0.0,0.0,0.0,0.0,0.0,0.0,-2.0439,-2.1377,0.0,-2.3486,-2.429,-2.4695,-2.4942,-2.4942,-2.4963,-2.4602,-2.3568,-2.3623,-2.3882,-2.4171,-2.3668,-2.3303,-2.3284,-2.292,-2.2471,-2.1978,-2.2172,-2.2426,-2.2695,-2.3021,-2.3369,-2.3692,-2.3624,-2.3602,-2.3593,-2.245,-2.1843,-2.174,-2.1011,-2.0643,-2.0535,-2.0124,-1.9932,-1.9785,-1.8155,-1.7027,-1.627,-1.5854,-1.5291,-1.4718,-1.4892,-1.497,-1.4954,0.0,0.0,0.0,0.0,0.0,0.0,0.0,0.0,0.0,0.0,0.0,0.0,0.0,0.0,0.0,0.0,0.0,0.0,0.0,0.0,0.0,0.0,0.0,0.0,0.0,0.0,0.0,0.0,0.0,0.0,0.0,0.0,0.0,0.0,0.0,0.0,0.0,0.0,0.0,0.0,0.0,0.0,-0.304,-0.3661,-0.5117,-0.6775,-0.6024,-0.6674,-0.7744,-0.662,-0.7361,-0.868,-0.8411,-0.9674,-1.1104,-1.0191,-1.0875,0.0,0.0,0.0,0.0,0.0,0.0,0.0,0.0,-1.7712,-1.9003,-1.9909,-2.1492,-2.3022,-2.3951,-2.4968,-2.5964,-2.6814,-2.6866,-2.6581,-2.5947,-2.5782,-2.5536,-2.5035,-2.5018,-2.5259,-2.577,-2.505,-2.4536,-2.4504,-2.36,-2.2829,-2.2324,-2.231,-2.2407,-2.2617,-2.2923,-2.3259,-2.3597,-2.3946,-2.4151,-2.419,-2.3382,-2.2988,-2.296,-2.2162,-2.1803,-2.1793,-2.1611,-2.1152,-2.0383,-1.8931,-1.7867,-1.7128,-1.7128,-1.6306,-1.5124,-1.5192,-1.5213,-1.5224,0.0,0.0,0.0,0.0,0.0,0.0,0.0,0.0,0.0,0.0,0.0,0.0,0.0,0.0,0.0,0.0,0.0,0.0,0.0,0.0,0.0,0.0,0.0,0.0,0.0,0.0,0.0,0.0,0.0,0.0,0.0,0.0,0.0,0.0,0.0,0.0,0.0,0.0,0.0,0.0,0.0,0.0,-0.3975,-0.4929,-0.5754,-0.6412,-0.6537,-0.6977,-0.7471,-0.6988,-0.8355,-1.0194,-0.9944,-1.0793,-1.1845,-1.1529,0.0,-1.1709,-1.1554,-1.2135,-1.3252,-1.5067,-1.5245,-1.5586,0.0,-1.8726,-1.9366,-2.1116,-2.2416,-2.3795,-2.5648,-2.6385,-2.7199,-2.8648,-2.8401,-2.7801,-2.7182,-2.6579,-2.5719,-2.4401,-2.4383,-2.4704,-2.5259,-2.5615,-2.5425,-2.4585,-2.436,-2.3718,-2.2378,-2.231,-2.2302,-2.2341,-2.2608,-2.2923,-2.3236,-2.3588,-2.3896,-2.419,-2.3382,-2.2988,-2.296,-2.2162,-2.1803,-2.1766,-2.0987,-2.0585,-2.0429,-1.9528,-1.8684,-1.7977,-1.7977,-1.7426,-1.6597,-1.6145,-1.6006,-1.5975,0.0,0.0,0.0,0.0,0.0,0.0,0.0,0.0,0.0,0.0,0.0,0.0,0.0,0.0,0.0,0.0,0.0,0.0,0.0,0.0,0.0,0.0,0.0,0.0,0.0,0.0,0.0,0.0,0.0,0.0,0.0,0.0,0.0,0.0,0.0,0.0,0.0,0.0,0.0,0.0,0.0,0.0,-0.321,-0.4497,-0.5222,-0.5683,-0.6696,-0.7213,0.0,0.0,-0.7801,-0.9269,-0.8969,-1.0277,-1.1884,-1.1517,-1.1864,0.0,-1.2519,-1.3174,-1.4073,-1.5195,-1.6312,-1.736,-1.8187,-1.9169,-2.0217,-2.1456,-2.32,-2.5001,-2.6629,-2.8013,-2.9212,-3.0221,-2.9845,-2.905,-2.7988,-2.6905,-2.5695,-2.4289,-2.4023,-2.4072,-2.4303,-2.5218,-2.5413,-2.456,-2.489,-2.4501,-2.3021,-2.2945,-2.2742,-2.2319,-2.2764,-2.2963,-2.2914,-2.3619,-2.3967,-2.3917,-2.3764,-2.3703,-2.3694,-2.3345,-2.3189,-2.3144,-2.2327,-2.1942,-2.1878,-2.1088,-2.0253,-1.9494,-1.9494,-1.9014,-1.8116,-1.6557,-1.6053,-1.6043,0.0,0.0,0.0,0.0,0.0,0.0,0.0,0.0,0.0,0.0,0.0,0.0,0.0,0.0,0.0,0.0,0.0,0.0,0.0,0.0,0.0,0.0,0.0,0.0,0.0,0.0,0.0,0.0,0.0,0.0,0.0,0.0,0.0,0.0,0.0,0.0,0.0,0.0,0.0,0.0,0.0,0.0,-0.2368,-0.3717,-0.448,-0.5039,-0.6554,-0.7094,0.0,0.0,-0.7559,-0.8675,-0.8509,-0.997,-1.1703,-1.1537,-1.2231,-1.3114,-1.3382,-1.4018,-1.4807,-1.5624,-1.7033,-1.8242,-1.8258,-1.9387,-2.0714,-2.1741,-2.3531,-2.544,-2.7089,-2.8499,-2.9774,-3.0726,-3.0537,-2.9829,-2.8597,-2.7386,-2.6056,-2.4408,-2.3851,-2.3528,-2.333,-2.4523,-2.5076,-2.4557,-2.4983,-2.4831,-2.3756,-2.3503,-2.3156,-2.2623,-2.2842,-2.2865,-2.2695,-2.3414,-2.3714,-2.3575,-2.3896,-2.4065,-2.4074,-2.4151,-2.4199,-2.4153,-2.3355,-2.2988,-2.2951,-2.2125,-2.129,-2.0494,-2.0494,-2.0014,-1.9066,-1.7197,-1.6621,-1.6658,0.0,0.0,0.0,0.0,0.0,0.0,0.0,0.0,0.0,0.0,0.0,0.0,0.0,0.0,0.0,0.0,0.0,0.0,0.0,0.0,0.0,0.0,0.0,0.0,0.0,0.0,0.0,0.0,0.0,0.0,0.0,0.0,0.0,0.0,0.0,0.0,0.0,0.0,0.0,0.0,0.0,0.0,-0.1926,-0.2961,-0.3792,-0.4614,-0.6095,0.0,0.0,0.0,-0.8224,-0.9223,-0.9553,-1.0427,0.0,-1.2003,-1.2879,0.0,0.0,-1.4471,-1.5276,-1.6843,-1.6883,-1.7005,-1.8581,-1.9487,-2.0535,-2.2304,-2.3235,-2.4473,-2.6849,-2.7368,-2.8005,-2.9846,-3.0104,-2.9825,-2.9085,-2.8271,-2.6927,-2.4749,-2.3836,-2.3118,-2.2409,-2.3672,-2.4531,-2.4515,-2.4531,-2.4523,-2.4481,-2.3782,-2.3384,-2.3367,-2.2702,-2.2445,-2.2695,-2.2721,-2.2889,-2.3221,-2.3544,-2.3723,-2.3723,-2.4045,-2.4199,-2.4153,-2.3355,-2.2988,-2.2951,-2.2125,-2.129,-2.0494,-2.0494,-2.0014,-1.9204,-1.8344,-1.8204,-1.8336,0.0,0.0,0.0,0.0,0.0,0.0,0.0,0.0,0.0,0.0,0.0,0.0,0.0,0.0,0.0,0.0,0.0,0.0,0.0,0.0,0.0,0.0,0.0,0.0,0.0,0.0,0.0,0.0,0.0,0.0,0.0,0.0,0.0,0.0,0.0,0.0,0.0,0.0,0.0,0.0,0.0,0.0,0.0175,-0.1631,-0.2377,-0.2749,0.0,0.0,0.0,0.0,0.0,0.0,-0.8524,0.0,0.0,-1.2231,0.0,0.0,-1.4961,-1.5759,-1.6523,-1.7509,-1.7954,-1.8288,-1.8851,-1.9781,-2.0546,-2.0835,-2.2,-2.3252,-2.4162,-2.5285,-2.6732,-2.8616,-2.929,-2.9318,-2.8568,-2.7827,-2.6692,-2.4913,-2.361,-2.3104,-2.3693,-2.3756,-2.3959,-2.4472,-2.494,-2.5228,-2.5228,-2.4518,-2.39,-2.3418,-2.2848,-2.2519,-2.2453,-2.284,-2.2972,-2.2864,-2.3437,-2.3692,-2.3714,-2.4045,-2.4199,-2.4181,-2.3914,-2.3804,-2.3777,-2.3501,-2.2914,-2.2098,-2.1574,-2.084,-2.0005,-1.9188,-1.909,-1.9177,0.0,0.0,0.0,0.0,0.0,0.0,0.0,0.0,0.0,0.0,0.0,0.0,0.0,0.0,0.0,0.0,0.0,0.0,0.0,0.0,0.0,0.0,0.0,0.0,0.0,0.0,0.0,0.0,0.0,0.0,0.0,0.0,0.0,0.0,0.0,0.0,0.0,0.0,0.0,0.0,0.0,0.0,0.1363,-0.0565,-0.1527,0.0,0.0,0.0,0.0,0.0,0.0,0.0,0.0,0.0,0.0,0.0,0.0,-1.4852,-1.6128,-1.6999,-1.7698,-1.8453,-1.8624,-1.8703,-1.8921,-1.9349,-1.962,-1.9449,-2.0393,-2.144,-2.1982,-2.3186,-2.4705,-2.658,-2.7213,-2.7511,-2.7521,-2.6695,-2.5852,-2.5285,-2.3775,-2.3211,-2.4453,-2.3932,-2.39,-2.4822,-2.5329,-2.5727,-2.5981,-2.5287,-2.4543,-2.3807,-2.3232,-2.2756,-2.231,-2.2678,-2.2823,-2.2721,-2.315,-2.3468,-2.3723,-2.3917,-2.4094,-2.4199,-2.4199,-2.4199,-2.4199,-2.4199,-2.3731,-2.296,-2.2428,-2.1519,-2.0475,-2.0262,-2.0005,-1.9575,0.0,0.0,0.0,0.0,0.0,0.0,0.0,0.0,0.0,0.0,0.0,0.0,0.0,0.0,0.0,0.0,0.0,0.0,0.0,0.0,0.0,0.0,0.0,0.0,0.0,0.0,0.0,0.0,0.0,0.0,0.0,0.0,0.0,0.0,0.0,0.0,0.0,0.0,0.0,0.0,0.0,0.0,0.163,0.0212,0.0,0.0,0.0,0.0,0.0,0.0,0.0,0.0,0.0,0.0,0.0,-1.3863,-1.5012,-1.6262,-1.7361,-1.8085,-1.8665,-1.9455,-1.8748,-1.8058,-1.8766,-1.8343,-1.7866,-1.8166,-1.8517,-1.9165,-2.0385,-2.1075,-2.2034,-2.3959,-2.4281,-2.4775,-2.6134,-2.5142,-2.4737,-2.5886,-2.4314,-2.3567,-2.4718,-2.4185,-2.4282,-2.5529,-2.561,-2.593,-2.6657,-2.6006,-2.5279,-2.4591,-2.379,-2.3063,-2.2369,-2.2327,-2.2426,-2.2678,-2.2695,-2.3036,-2.364,-2.3671,-2.3846,-2.4151,-2.4151,-2.417,-2.417,-2.417,-2.3721,-2.307,-2.3024,-2.2025,-2.0714,-2.1501,-2.0886,-1.9675,0.0,0.0,0.0,0.0,0.0,0.0,0.0,0.0,0.0,0.0,0.0,0.0,0.0,0.0,0.0,0.0,0.0,0.0,0.0,0.0,0.0,0.0,0.0,0.0,0.0,0.0,0.0,0.0,0.0,0.0,0.0,0.0,0.0,0.0,0.0,0.0,0.0,0.0,0.0,0.0,0.0,0.0,0.2847,0.0,0.0,0.0,0.0,0.0,0.0,0.0,0.0,0.0,0.0,-1.2094,-1.3011,-1.39,-1.508,-1.6241,-1.7049,-1.774,-1.8225,-1.7949,-1.765,-1.7525,-1.7684,-1.6907,-1.6339,-1.6841,-1.7029,-1.7339,-1.8047,-1.9341,-2.1059,-2.3388,-2.4162,-2.4932,-2.6279,-2.6127,-2.5998,-2.6271,-2.5365,-2.5213,-2.6438,-2.546,-2.511,-2.5988,-2.5753,-2.593,-2.6657,-2.6006,-2.5516,-2.5329,-2.4069,-2.3308,-2.3122,-2.2581,-2.2321,-2.2398,-2.2591,-2.2797,-2.2963,-2.3212,-2.336,-2.3437,-2.3437,-2.3597,-2.3825,-2.3825,-2.3848,-2.3832,-2.3235,-2.2731,-2.2327,-2.1932,-2.1246,-2.0499,0.0,0.0,0.0,0.0,0.0,0.0,0.0,0.0,0.0,0.0,0.0,0.0,0.0,0.0,0.0,0.0,0.0,0.0,0.0,0.0,0.0,0.0,0.0,0.0,0.0,0.0,0.0,0.0,0.0,0.0,0.0,0.0,0.0,0.0,0.0,0.0,0.0,0.0,0.0,0.0,0.0,0.0,0.0,0.0,0.0,0.0,0.0,0.0,0.0,0.0,0.0,-1.039,-1.1387,-1.2244,-1.3091,-1.4115,-1.5095,-1.6007,-1.658,-1.7405,-1.7945,-1.7365,-1.6932,-1.6671,-1.6646,-1.5833,-1.5128,-1.5112,-1.5619,-1.6255,-1.6844,-1.8087,-1.9755,-2.1973,-2.2624,-2.3504,-2.5396,-2.5396,-2.5656,-2.677,-2.5796,-2.5461,-2.6745,-2.5586,-2.5045,-2.5719,-2.5785,-2.594,-2.6385,-2.6202,-2.5786,-2.5135,-2.4628,-2.4205,-2.3883,-2.2835,-2.2471,-2.2784,-2.2626,-2.2581,-2.2721,-2.2889,-2.3069,-2.3189,-2.3189,-2.3323,-2.3468,-2.3468,-2.3671,-2.393,-2.3484,-2.3177,-2.2997,-2.2887,-2.2175,-2.1248,0.0,0.0,0.0,0.0,0.0,0.0,0.0,0.0,0.0,0.0,0.0,0.0,0.0,0.0,0.0,0.0,0.0,0.0,0.0,0.0,0.0,0.0,0.0,0.0,0.0,0.0,0.0,0.0,0.0,0.0,0.0,0.0,0.0,0.0,0.0,0.0,0.0,0.0,0.0,0.0,0.0,0.0,0.0,0.0,0.0,0.0,0.0,0.0,0.0,0.0,-0.9351,-1.0615,-1.1492,-1.2371,-1.3308,-1.4286,-1.5019,-1.5564,-1.6028,-1.686,-1.7425,-1.6956,-1.6251,-1.566,-1.5463,-1.4799,-1.4026,-1.34,-1.4356,-1.5534,-1.6247,-1.722,-1.8512,-2.0301,-2.0751,-2.1702,-2.4104,-2.4051,-2.4627,-2.7028,-2.5876,-2.5244,-2.6204,-2.5245,-2.4712,-2.5092,-2.5543,-2.5815,-2.5888,-2.6197,-2.5714,-2.4304,-2.4822,-2.4846,-2.4196,-2.2878,-2.2558,-2.3249,-2.2615,-2.2426,-2.2634,-2.2634,-2.2815,-2.3087,-2.3087,-2.3126,-2.3198,-2.3141,-2.3369,-2.3692,-2.3692,-2.3449,-2.3179,-2.3923,-2.3244,-2.1951,0.0,0.0,0.0,0.0,0.0,0.0,0.0,0.0,0.0,0.0,0.0,0.0,0.0,0.0,0.0,0.0,0.0,0.0,0.0,0.0,0.0,0.0,0.0,0.0,0.0,0.0,0.0,0.0,0.0,0.0,0.0,0.0,0.0,0.0,0.0,0.0,0.0,0.0,0.0,0.0,0.0,0.0,0.0,0.0,0.0,0.0,0.0,0.0,0.0,0.0,-0.9748,-1.0962,-1.1851,-1.2818,-1.3676,-1.3889,-1.437,-1.4937,-1.5364,-1.5631,-1.5607,-1.5023,-1.4744,-1.4468,-1.3737,-1.3064,-1.2748,-1.3215,-1.3853,-1.4644,-1.5638,-1.705,-1.8503,-1.9835,-2.0875,-2.2046,-2.3565,-2.4171,-2.4822,-2.5831,-2.6131,-2.6126,-2.5777,-2.5529,-2.5206,-2.4737,-2.4681,-2.4863,-2.5335,-2.4891,-2.4131,-2.3048,-2.2818,-2.27,-2.2691,-2.2045,-2.1995,-2.2496,-2.2369,-2.2321,-2.2369,-2.2369,-2.2388,-2.247,-2.247,-2.273,-2.3165,-2.2889,-2.3141,-2.3692,-2.3692,-2.3663,-2.3635,-2.4048,-2.3602,-2.2795,0.0,0.0,0.0,0.0,0.0,0.0,0.0,0.0,0.0,0.0,0.0,0.0,0.0,0.0,0.0,0.0,0.0,0.0,0.0,0.0,0.0,0.0,0.0,0.0,0.0,0.0,0.821,0.8137,0.0,0.0,0.0,0.9261,0.9291,0.0,0.0,0.0,0.0,0.0,0.0,0.0,0.0,0.0,0.0,0.0,0.0,0.0,0.0,0.0,0.0,0.0,-0.9417,-1.0146,-1.1465,-1.2194,-1.256,-1.2466,-1.3448,-1.4452,-1.3986,-1.465,-1.5316,-1.4566,-1.4157,-1.3777,-1.3291,-1.2721,-1.248,-1.3161,-1.3969,-1.4859,-1.5933,-1.719,-1.8512,-1.9692,-2.0342,-2.1343,-2.3318,-2.361,-2.4111,-2.545,-2.5585,-2.5442,-2.5128,-2.4769,-2.4433,-2.4111,-2.4026,-2.4233,-2.4744,-2.4063,-2.3589,-2.3474,-2.2222,-2.2094,-2.3293,-2.197,-2.1595,-2.2188,-2.2014,-2.1936,-2.1928,-2.218,-2.231,-2.231,-2.231,-2.2462,-2.273,-2.2554,-2.2755,-2.3165,-2.3165,-2.33,-2.3468,-2.3825,-2.371,-2.3327,0.0,0.0,0.0,0.0,0.0,0.0,0.0,0.0,0.0,0.0,0.0,0.0,0.0,0.0,0.0,0.0,0.0,0.0,0.0,0.0,0.0,0.0,0.0,0.0,0.0,0.0,0.0,0.8052,0.8307,0.0,0.0,0.0,0.0,0.0,0.7791,0.6991,0.0,0.0,0.0,0.0,0.0,0.0286,0.0,0.0,0.0,0.0,0.0,0.0,0.0,0.0,-0.8793,-0.9066,-1.0575,-1.1161,-1.1278,-1.1135,-1.2455,-1.371,-1.2636,-1.3784,-1.5053,-1.4292,-1.3865,-1.3467,-1.299,-1.2598,-1.2541,-1.3027,-1.4007,-1.5054,-1.6114,-1.7308,-1.8423,-1.938,-1.975,-2.0625,-2.269,-2.2809,-2.3251,-2.4799,-2.4769,-2.4522,-2.438,-2.4051,-2.3759,-2.361,-2.3475,-2.3538,-2.3825,-2.3059,-2.2813,-2.3367,-2.166,-2.1615,-2.3518,-2.1748,-2.1198,-2.1857,-2.1606,-2.146,-2.1491,-2.184,-2.202,-2.202,-2.2106,-2.2192,-2.2268,-2.2302,-2.2472,-2.2695,-2.2695,-2.2864,-2.3141,-2.3468,-2.3489,-2.3334,0.0,0.0,0.0,0.0,0.0,0.0,0.0,0.0,0.0,0.0,0.0,0.0,0.0,0.0,0.0,0.0,0.0,0.0,0.0,0.0,0.0,0.0,0.0,0.0,0.0,0.0,0.0,0.8282,0.8241,0.0,0.0,0.0,0.0,0.0,0.0,0.5083,0.4469,0.0,0.0,0.0,0.0,0.0,0.0,0.0,0.0,0.0,0.0,0.0,0.0,0.0,0.0,-0.8236,-0.8984,-1.0025,-1.093,-1.069,-1.1535,-1.2413,-1.2033,-1.2824,-1.3688,-1.3132,-1.3523,-1.3633,-1.2123,-1.2027,-1.2371,-1.2637,-1.3478,-1.4511,-1.558,-1.7037,-1.8159,-1.8261,-1.9595,-2.0707,-2.0946,-2.1964,-2.2791,-2.2971,-2.3939,-2.438,-2.3759,-2.4208,-2.4275,-2.3647,-2.3079,-2.2544,-2.1977,-2.1294,-2.0839,-2.0677,-2.0099,-2.03,-2.1279,-2.0685,-2.0614,-2.1087,-2.1055,-2.1063,-2.1063,-2.1095,-2.1126,-2.1126,-2.1507,-2.1832,-2.2113,-2.226,-2.2472,-2.2695,-2.2695,-2.2721,-2.2797,-2.3117,-2.2824,-2.2349,0.0,0.0,0.0,0.0,0.0,0.0,0.0,0.0,0.0,0.0,0.0,0.0,0.0,0.0,0.0,0.0,0.0,0.0,0.0,0.0,0.0,0.0,0.0,0.0,0.0,0.0,0.7032,0.7168,0.712,0.0,0.0,0.0,0.0,0.0,0.0,0.3154,0.2474,0.1453,0.0,0.0,0.0,0.0,0.0,0.0,0.0,0.0,0.0,0.0,-0.7006,0.0,0.0,0.0,-0.8361,-0.915,0.0,0.0,-1.0668,-1.1791,-1.1411,-1.262,-1.3767,-1.3083,-1.3165,-1.3155,-1.2221,-1.1974,-1.2251,-1.3304,-1.4068,-1.485,-1.5963,-1.7229,-1.8099,-1.8099,0.0,0.0,-2.0602,-2.0804,-2.1321,-2.2574,-2.3138,-2.349,-2.3587,-2.3849,-2.3737,-2.3093,-2.245,-2.1799,-2.1141,-2.1231,-2.1061,-2.0553,-2.0407,-2.0473,-2.0819,-2.0248,-2.0035,-2.0208,-2.0457,-2.0583,-2.0591,-2.0862,-2.0999,-2.0999,-2.1158,-2.1444,-2.1786,-2.1598,-2.1731,-2.2046,-2.2046,-2.2046,-2.2102,-2.2686,-2.2697,-2.2474,0.0,0.0,0.0,0.0,0.0,0.0,0.0,0.0,0.0,0.0,0.0,0.0,0.0,0.0,0.0,0.0,0.0,0.0,0.0,0.0,0.0,0.0,0.0,0.0,0.0,0.0,0.0,0.6054,0.5771,0.5401,0.0,0.0,0.3685,0.2957,0.0,0.0,0.0,0.0,0.0,0.0,0.0,0.0,0.0,0.0,0.0,0.0,0.0,0.0,0.0,0.0,0.0,0.0,0.0,0.0,0.0,0.0,-0.9848,-1.1129,-1.0483,-1.189,-1.334,-1.263,-1.2674,-1.2785,-1.2392,-1.21,-1.2286,-1.3581,-1.4382,-1.5133,-1.6046,-1.7251,-1.8099,0.0,0.0,-1.9331,-2.0273,-2.0168,-2.0513,-2.1926,-2.2271,-2.263,-2.3266,-2.3497,-2.3415,-2.2989,-2.2345,-2.1695,-2.1044,-2.144,-2.1298,-2.0438,-2.0408,-2.0408,-2.0408,-1.9929,-1.9682,-1.9718,-2.0,-2.0124,-2.0124,-2.0465,-2.0607,-2.0632,-2.0723,-2.1047,-2.1399,-2.1118,-2.1244,-2.159,-2.1469,-2.143,-2.1483,-2.215,-2.217,-2.1844,0.0,0.0,0.0,0.0,0.0,0.0,0.0,0.0,0.0,0.0,0.0,0.0,0.0,0.0,0.0,0.0,0.0,0.0,0.0,0.0,0.0,0.0,0.0,0.0,0.0,0.0,0.0,0.0,0.0,0.0,0.3208,0.2352,0.1706,0.1255,0.0,0.0,0.0,0.0,0.0,0.0,0.0,0.0,0.0,0.0,0.0,0.0,0.0,0.0,0.0,0.0,0.0,0.0,0.0,0.0,0.0,0.0,-0.9153,-1.0368,-0.9169,-1.0354,-1.182,-1.1403,-1.2092,-1.2785,-1.2392,-1.2388,-1.2647,-1.3095,-1.4163,-1.5115,-1.5536,-1.697,-1.8099,-1.8099,-1.9006,0.0,-1.9697,-2.0281,-2.0715,-2.073,-2.1313,-2.1964,-2.2622,-2.3243,-2.3602,-2.3587,-2.3011,-2.2383,-2.1724,-2.1695,-2.1081,-1.9742,-1.9697,-1.9697,-1.9697,-1.9682,-1.9682,-1.9682,-1.9718,-1.9726,-1.9726,-1.9718,-1.9718,-1.9754,-2.0124,-2.0583,-2.0999,-2.0999,-2.1244,-2.156,-2.115,-2.0999,-2.1063,-2.146,-2.0906,-1.9975,0.0,0.0,0.0,0.0,0.0,0.0,0.0,0.0,0.0,0.0,0.0,0.0,0.0,0.0,0.0,0.0,0.0,0.0,0.0,0.0,0.0,0.0,0.0,0.0,0.0,0.0,0.0,0.0,0.0,0.0,0.0,0.0,-0.1104,-0.1475,-0.215,-0.2397,0.0,0.0,0.0,0.0,0.0,0.0,0.0,0.0,0.0,0.0,0.0,0.0,0.0,0.0,0.0,0.0,0.0,0.0,0.0,0.0,0.0,0.0,-0.8691,-0.9799,-1.1069,-1.0664,-1.1275,-1.1999,-1.1908,-1.2215,-1.2768,-1.3616,-1.469,-1.5578,-1.6114,-1.6931,-1.7544,-1.7544,-1.8458,0.0,-1.865,-1.9111,-1.9651,-2.0118,-2.108,-2.1777,-2.1986,-2.2188,-2.2301,-2.2301,-2.1702,-2.1246,-2.1036,-2.0572,-2.0124,-1.9697,-2.0139,-2.0161,-1.9682,-1.9682,-1.9682,-1.9682,-1.9682,-1.9682,-1.9682,-1.9682,-1.9682,-1.9726,-1.9846,-2.0131,-2.0483,-2.0235,-2.0364,-2.066,-2.0129,-1.9899,-1.9956,-2.0371,-2.0265,-1.9917,0.0,0.0,0.0,0.0,0.0,0.0,0.0,0.0,0.0,0.0,0.0,0.0,0.0,0.0,0.0,0.0,0.0,0.0,0.0,0.0,0.0,0.0,0.0,0.0,0.0,0.0,0.0,0.0,0.0,0.0,0.0,0.0,0.0,0.0,-0.3505,-0.3288,0.0,0.0,0.0,0.0,0.0,0.0,-0.5707,0.0,0.0,0.0,0.0,0.0,0.0,0.0,0.0,0.0,0.0,0.0,0.0,0.0,0.0,0.0,0.0,-0.9193,-1.0306,-1.0085,-1.0844,-1.1699,-1.1895,-1.2544,-1.3296,-1.3916,-1.5079,-1.6002,-1.6139,-1.6763,-1.7312,-1.7312,-1.802,-1.8496,-1.8138,-1.8373,-1.8761,-1.9173,-2.0287,-2.1023,-2.1023,-2.1419,-2.1695,-2.1695,-2.1313,-2.0976,-2.073,-2.0303,-1.9959,-1.9697,-2.0094,-2.0116,-1.9682,-1.9682,-1.9603,-1.9406,-1.9603,-1.9603,-1.9406,-1.9603,-1.9682,-1.9682,-1.9682,-1.9937,0.0,-1.9874,-1.9937,-2.021,-1.9444,-1.9132,-1.916,-1.9327,-1.9286,-1.9061,0.0,0.0,0.0,0.0,0.0,0.0,0.0,0.0,0.0,0.0,0.0,0.0,0.0,0.0,0.0,0.0,0.0,0.0,0.0,0.0,0.0,0.0,0.0,0.0,0.0,0.0,0.0,0.0,-0.2826,-0.3978,-0.488,0.0,0.0,0.0,0.0,0.0,0.0,0.0,0.0,0.0,0.0,0.0,0.0,0.0,0.0,0.0,0.0,0.0,0.0,0.0,0.0,0.0,0.0,0.0,0.0,0.0,0.0,0.0,0.0,0.0,0.0,-0.9748,-1.0695,-1.1789,0.0,0.0,0.0,-1.4113,-1.5396,-1.6331,-1.577,-1.6538,-1.7229,-1.7229,-1.7706,-1.802,-1.798,-1.802,-1.802,-1.802,-1.9072,-1.9767,-1.9767,-2.0811,-2.1528,-2.158,-2.1575,-2.1313,-2.0744,-2.067,-2.0348,-1.9705,-1.9682,-1.9682,-1.9682,-1.9682,-1.9442,-1.8968,-1.9406,-1.9369,-1.893,-1.9406,-1.9646,-1.9646,-1.9682,-1.9902,-2.0219,-1.9839,-1.9872,-2.0039,-1.9004,-1.8571,-1.8485,-1.8314,-1.799,-1.759,0.0,0.0,0.0,0.0,0.0,0.0,0.0,0.0,0.0,0.0,0.0,0.0,0.0,0.0,0.0,0.0,0.0,0.0,0.0,0.0,0.0,0.0,0.0,0.0,0.0,0.0,0.0,-0.4931,-0.6077,-0.7635,-0.9542,-1.0195,0.0,0.0,0.0,0.0,0.0,0.0,0.0,0.0,0.0,0.0,0.0,0.0,0.0,0.0,-0.7686,-0.7555,0.0,0.0,0.0,0.0,0.0,0.0,0.0,0.0,-0.8275,0.0,0.0,0.0,0.0,0.0,0.0,0.0,0.0,0.0,0.0,0.0,0.0,0.0,0.0,-1.6503,-1.6674,-1.6674,-1.7153,-1.7347,-1.6915,-1.7229,-1.751,-1.751,-1.811,-1.8519,-1.8519,-1.9137,-1.9757,-2.0273,-2.0249,-2.0326,-2.0692,-2.0213,-1.9854,-1.9682,-1.9682,-1.9682,-1.9682,-1.9682,-1.9646,-1.9522,-1.9207,-1.9013,-1.8893,-1.905,-1.9088,-1.9125,-1.9522,-1.9747,-1.9846,-1.9754,-1.9254,-1.8529,-1.7758,-1.7151,-1.6706,-1.6667,-1.6757,-1.6921,0.0,0.0,0.0,0.0,0.0,0.0,0.0,0.0,0.0,0.0,0.0,0.0,0.0,0.0,0.0,0.0,0.0,0.0,0.0,0.0,0.0,0.0,0.0,0.0,0.0,0.0,0.0,0.0,0.0,-1.1069,0.0,0.0,0.0,0.0,0.0,0.0,0.0,0.0,0.0,0.0,-1.1438,0.0,0.0,0.0,0.0,0.0,-0.9015,-0.8463,0.0,-0.7922,-0.7489,-0.7063,0.0,0.0,0.0,0.0,-0.9107,-0.9706,-0.9959,-1.0097,-1.0318,-1.0808,-1.1866,0.0,0.0,0.0,0.0,0.0,0.0,0.0,0.0,-1.6674,-1.6515,-1.6515,-1.6759,-1.6747,-1.6212,-1.6593,-1.6854,-1.6596,-1.7269,-1.7747,-1.7747,-1.8217,-1.88,-1.9404,-1.9374,-1.9605,-2.0221,-1.9892,-1.9682,-1.9682,-1.9682,-1.9682,-1.9682,-1.9682,-1.9566,-1.9325,-1.9288,-1.9006,-1.8535,-1.8772,-1.8893,-1.893,-1.9207,-1.9486,-1.966,-1.9361,-1.8912,-1.8273,-1.7291,-1.6575,-1.6105,-1.601,-1.5969,-1.6007,0.0,0.0,0.0,0.0,0.0,0.0,0.0,0.0,0.0,0.0,0.0,0.0,0.0,0.0,0.0,0.0,0.0,0.0,0.0,0.0,0.0,0.0,0.0,0.0,0.0,0.0,0.0,0.0,0.0,0.0,0.0,0.0,0.0,0.0,0.0,0.0,0.0,0.0,0.0,0.0,-1.4755,0.0,0.0,0.0,0.0,0.0,0.0,0.0,0.0,-0.8605,-0.8053,-0.768,-0.8257,0.0,0.0,0.0,0.0,0.0,-1.1914,-1.1948,-1.191,-1.2196,-1.3712,0.0,0.0,0.0,0.0,0.0,0.0,0.0,0.0,-1.6822,-1.649,-1.6402,-1.6465,-1.631,-1.5751,-1.6178,-1.6346,-1.5875,-1.6619,-1.7194,-1.7194,-1.7666,-1.8178,-1.8612,-1.881,-1.9088,-1.9566,-1.9646,-1.9682,-1.9682,-1.9682,-1.9646,-1.9566,-1.9646,-1.9486,-1.905,-1.9325,-1.8968,-1.8099,-1.8496,-1.86,-1.8553,-1.8629,-1.8884,-1.9181,-1.8597,-1.8273,-1.7998,-1.6836,-1.6147,-1.5734,-1.5579,-1.5292,-1.5066,0.0,0.0,0.0,0.0,0.0,0.0,0.0,0.0,0.0,0.0,0.0,0.0,0.0,0.0,0.0,0.0,0.0,0.0,0.0,0.0,0.0,0.0,0.0,0.0,0.0,0.0,0.0,0.0,0.0,0.0,-1.9253,-1.9872,-1.8419,0.0,0.0,0.0,0.0,0.0,0.0,0.0,-1.6198,0.0,0.0,0.0,0.0,0.0,0.0,0.0,0.0,-1.1032,-1.0551,-1.0283,-1.0725,0.0,0.0,0.0,0.0,0.0,-1.391,-1.4888,-1.5579,-1.4522,-1.5226,-1.6319,0.0,0.0,0.0,0.0,0.0,0.0,0.0,-1.6558,-1.6365,-1.59,-1.6214,-1.6299,-1.5706,-1.6139,-1.6484,-1.6402,-1.6502,-1.6637,-1.6637,-1.7111,-1.747,-1.7544,-1.8373,-1.893,-1.9013,-1.9442,-1.9682,-1.9682,-1.9682,-1.9486,-1.905,-1.9486,-1.9646,-1.9566,-1.8734,-1.8256,-1.8099,-1.7706,-1.7317,-1.6879,-1.7339,-1.7344,-1.6966,-1.6874,-1.6278,-1.5386,-1.5168,-1.4755,-1.4244,-1.4183,-1.4374,-1.4596,0.0,0.0,0.0,0.0,0.0,0.0,0.0,0.0,0.0,0.0,0.0,0.0,0.0,0.0,0.0,0.0,0.0,0.0,0.0,0.0,0.0,0.0,0.0,0.0,0.0,0.0,0.0,0.0,0.0,-2.0212,-2.1281,-2.085,-1.9515,-1.7483,0.0,0.0,0.0,0.0,0.0,0.0,0.0,0.0,0.0,0.0,0.0,0.0,0.0,0.0,0.0,0.0,-1.2946,-1.218,-1.2666,0.0,0.0,0.0,0.0,0.0,-1.5666,-1.6999,-1.8056,-1.7034,-1.762,-1.8612,-1.9155,-1.8974,0.0,0.0,0.0,0.0,-1.6579,-1.6494,-1.6299,-1.5728,-1.5843,-1.5817,-1.5231,-1.593,-1.6409,-1.6107,-1.6333,-1.6515,-1.6515,-1.6716,-1.6993,-1.7271,-1.7747,-1.8178,-1.8458,-1.8968,-1.9288,-1.9288,-1.9288,-1.9002,-1.8462,-1.8418,-1.8709,-1.9244,-1.8466,-1.7958,-1.764,-1.6826,-1.6307,-1.6093,-1.6312,-1.6443,-1.6452,-1.6124,-1.5647,-1.5128,-1.4775,-1.4326,-1.3901,-1.3901,-1.4149,-1.447,0.0,0.0,0.0,0.0,0.0,0.0,0.0,0.0,0.0,0.0,0.0,0.0,0.0,0.0,0.0,0.0,0.0,0.0,0.0,0.0,0.0,0.0,0.0,0.0,0.0,0.0,0.0,-2.1139,-2.1212,-2.142,-2.1737,-2.0846,-1.9814,0.0,0.0,0.0,0.0,0.0,0.0,0.0,0.0,0.0,0.0,0.0,0.0,0.0,0.0,0.0,0.0,0.0,0.0,0.0,0.0,0.0,0.0,0.0,-1.6509,-1.6984,-1.7633,-1.8738,-1.9711,-1.9564,0.0,-2.0783,-2.0829,-2.0353,-1.9883,0.0,0.0,-1.7174,-1.659,-1.6307,-1.5904,-1.5298,-1.5554,-1.5551,-1.4861,-1.5628,-1.6181,-1.5938,-1.6125,-1.6331,-1.6479,-1.6515,-1.6674,-1.707,-1.7229,-1.7403,-1.7702,-1.824,-1.8512,-1.8512,-1.8407,-1.8134,-1.7733,-1.7322,-1.752,-1.8328,-1.7776,-1.7324,-1.6899,-1.5931,-1.5443,-1.5319,-1.5319,-1.5488,-1.5667,-1.506,-1.4843,-1.491,-1.4278,-1.3914,-1.3722,-1.3592,-1.3736,-1.3979,0.0,0.0,0.0,0.0,0.0,0.0,0.0,0.0,0.0,0.0,0.0,0.0,0.0,0.0,0.0,0.0,0.0,0.0,0.0,0.0,0.0,0.0,0.0,0.0,0.0,-2.3159,-2.3071,-2.3645,-2.2918,-2.1736,-2.0179,-2.1012,-2.0104,0.0,0.0,0.0,0.0,0.0,0.0,0.0,0.0,0.0,0.0,0.0,0.0,0.0,0.0,0.0,0.0,0.0,0.0,0.0,0.0,0.0,0.0,0.0,-1.853,-1.9044,-2.0133,-2.0162,-2.0289,-2.2045,-2.2465,0.0,-2.0669,-2.0868,0.0,-2.041,-1.906,-1.773,-1.6681,-1.5682,-1.4783,-1.4115,-1.5377,-1.6045,-1.4886,-1.5258,-1.5852,-1.6373,-1.5977,-1.5864,-1.6429,-1.6515,-1.6515,-1.6558,-1.7034,-1.7115,-1.6651,-1.7112,-1.7413,-1.7413,-1.6942,-1.664,-1.6629,-1.6569,-1.6606,-1.6684,-1.6134,-1.5865,-1.5791,-1.5216,-1.4702,-1.4215,-1.4215,-1.3917,-1.3408,-1.2928,-1.298,-1.3311,-1.2832,-1.2896,-1.3197,-1.2688,-1.2574,-1.2572,0.0,0.0,0.0,0.0,0.0,0.0,0.0,0.0,0.0,0.0,0.0,0.0,0.0,0.0,0.0,0.0,0.0,0.0,0.0,0.0,0.0,0.0,0.0,-2.237,-2.3592,-2.3249,-2.3437,-2.4209,-2.2646,-2.1243,-1.9996,-1.9883,0.0,0.0,0.0,0.0,0.0,0.0,0.0,0.0,0.0,0.0,0.0,0.0,0.0,0.0,0.0,0.0,0.0,0.0,0.0,0.0,0.0,0.0,0.0,0.0,0.0,-2.1209,-2.1637,-2.1484,-2.1401,-2.2268,-2.2675,0.0,0.0,-2.1676,-2.0996,-2.0127,-1.9106,-1.8028,-1.6753,-1.5331,-1.4365,-1.446,-1.531,-1.5644,-1.4835,-1.5236,-1.5549,-1.5383,-1.5197,-1.5281,-1.587,-1.5629,-1.5617,-1.5959,-1.5877,-1.5736,-1.5524,-1.602,-1.6319,-1.6319,-1.6095,-1.5804,-1.5452,-1.4808,-1.4336,-1.4034,-1.4793,-1.5156,-1.5107,-1.4245,-1.3741,-1.3505,-1.3238,-1.2826,-1.2292,-1.1837,-1.1728,-1.1872,-1.1699,-1.1576,-1.1515,-1.1287,-1.1404,-1.1515,0.0,0.0,0.0,0.0,0.0,0.0,0.0,0.0,0.0,0.0,0.0,0.0,0.0,0.0,0.0,0.0,0.0,0.0,0.0,0.0,0.0,0.0,0.0,-2.2476,-2.3116,-2.3074,-2.3345,-2.3961,-2.2217,-2.0629,-1.9211,0.0,0.0,0.0,0.0,0.0,0.0,0.0,0.0,0.0,0.0,0.0,0.0,0.0,0.0,0.0,0.0,0.0,0.0,0.0,0.0,0.0,0.0,0.0,0.0,0.0,0.0,0.0,-2.2477,-2.2182,-2.187,0.0,0.0,0.0,-2.326,-2.2489,-2.1498,-2.0636,-1.9209,-1.7742,-1.6494,-1.4901,-1.396,-1.4482,-1.5023,-1.5316,-1.5033,-1.5192,-1.5178,-1.485,-1.4463,-1.4395,-1.4853,-1.4707,-1.4754,-1.5169,-1.4999,-1.484,-1.4664,-1.4839,-1.4938,-1.4938,-1.4635,-1.4287,-1.3871,-1.3029,-1.2423,-1.2078,-1.2982,-1.3603,-1.3822,-1.309,-1.2671,-1.2513,-1.236,-1.2025,-1.1538,-1.1063,-1.0728,-1.0473,-1.053,-1.0355,-1.0085,-0.9893,-1.0037,-1.0172,0.0,0.0,0.0,0.0,0.0,0.0,0.0,0.0,0.0,0.0,0.0,0.0,0.0,0.0,0.0,0.0,0.0,0.0,0.0,0.0,0.0,0.0,0.0,-2.2979,-2.2969,-2.2908,-2.2899,-2.2969,-2.1839,-1.9983,-1.7565,0.0,0.0,0.0,0.0,0.0,0.0,0.0,0.0,0.0,0.0,0.0,-2.0319,0.0,0.0,0.0,0.0,0.0,0.0,0.0,0.0,0.0,0.0,0.0,0.0,0.0,-2.2372,-2.1832,-2.2694,-2.2145,-2.1509,-2.2317,0.0,0.0,-2.3512,-2.3317,-2.2922,-2.2228,-1.9442,-1.6809,-1.5887,-1.4406,-1.3453,-1.3903,-1.4535,-1.5127,-1.5504,-1.5039,-1.4727,-1.4922,-1.3855,-1.315,-1.3369,-1.3818,-1.4092,-1.4086,-1.4594,-1.4658,-1.411,-1.3581,-1.3281,-1.3281,-1.2324,-1.1842,-1.1898,-1.1375,-1.1092,-1.1086,-1.0678,-1.0928,-1.1805,-1.1799,-1.1524,-1.112,-1.1586,-1.1518,-1.1046,-1.0573,-0.9865,-0.9094,-0.921,-0.9289,-0.92,-0.8611,-0.8417,-0.8415,0.0,0.0,0.0,0.0,0.0,0.0,0.0,0.0,0.0,0.0,0.0,0.0,0.0,0.0,0.0,0.0,0.0,0.0,0.0,0.0,0.0,0.0,0.0,0.0,0.0,0.0,-2.0817,-2.0889,-2.0469,-1.9858,0.0,0.0,0.0,-1.9542,0.0,0.0,0.0,0.0,0.0,0.0,0.0,-2.0517,-2.108,0.0,0.0,0.0,0.0,0.0,0.0,0.0,0.0,0.0,0.0,0.0,0.0,-2.4896,-2.4666,-2.4462,-2.4671,-2.3533,-2.2641,-2.4101,-2.3562,-2.299,0.0,-2.4242,0.0,-2.2537,-1.9753,-1.736,-1.6776,-1.5565,-1.4388,-1.363,-1.3974,-1.4146,-1.3506,-1.3281,-1.3017,-1.2652,-1.2256,-1.2373,-1.32,-1.3026,-1.3097,-1.3501,-1.3323,-1.301,-1.2516,-1.2326,-1.2253,-1.2253,-1.1654,-1.1323,-1.1352,-1.0858,-1.0297,-0.9688,-0.9532,-1.0117,-1.1312,-1.1002,-1.0797,-1.0684,-1.0769,-1.0376,-0.9627,-0.889,-0.8071,-0.7293,-0.7609,-0.7579,-0.7258,-0.6748,-0.6782,-0.6949,0.0,0.0,0.0,0.0,0.0,0.0,0.0,0.0,0.0,0.0,0.0,0.0,0.0,0.0,0.0,0.0,0.0,0.0,0.0,0.0,0.0,0.0,0.0,0.0,0.0,-2.0524,-2.0282,0.0,0.0,0.0,0.0,0.0,0.0,-1.9973,0.0,0.0,0.0,0.0,0.0,0.0,0.0,-2.0317,-2.085,0.0,0.0,0.0,0.0,0.0,0.0,0.0,0.0,0.0,0.0,0.0,0.0,-2.5293,-2.4907,-2.4515,-2.4138,-2.3178,-2.2549,-2.3608,-2.3454,-2.3419,-2.484,-2.4712,-2.4016,-2.2967,-2.0825,-1.8836,-1.7899,-1.651,-1.5178,-1.4217,-1.3889,-1.3594,-1.318,-1.2768,-1.2294,-1.1785,-1.1469,-1.1516,-1.1985,-1.1907,-1.2003,-1.2357,-1.2269,-1.2108,-1.1816,-1.159,-1.1473,-1.1473,-1.1044,-1.0695,-1.0508,-0.9908,-0.9333,-0.8824,-0.8266,-0.8538,-0.9499,-0.9461,-0.9322,-0.9152,-0.91,-0.8789,-0.8248,-0.7559,-0.689,-0.6264,-0.6347,-0.6241,-0.5967,-0.5487,-0.5504,-0.5599,0.0,0.0,0.0,0.0,0.0,0.0,0.0,0.0,0.0,0.0,0.0,0.0,0.0,0.0,0.0,0.0,0.0,0.0,0.0,0.0,0.0,0.0,0.0,0.0,0.0,0.0,0.0,0.0,0.0,0.0,0.0,0.0,-1.9971,-2.0259,0.0,-2.0349,0.0,0.0,0.0,0.0,0.0,-1.9858,-1.9983,-1.9993,0.0,0.0,0.0,0.0,0.0,0.0,0.0,0.0,0.0,0.0,-2.5537,-2.4736,-2.3904,-2.3041,-2.2237,-2.187,-2.1733,-2.1796,-2.3013,-2.4402,-2.5226,-2.4877,-2.4208,-2.3549,-2.2364,-2.0906,-1.9147,-1.7423,-1.6007,-1.5322,-1.4217,-1.3575,-1.3937,-1.3103,-1.2286,-1.1871,-1.1257,-1.0739,-1.0395,-1.0759,-1.1014,-1.1014,-1.1436,-1.17,-1.1584,-1.1132,-1.0819,-1.0781,-1.0345,-0.9915,-0.9524,-0.875,-0.8354,-0.8268,-0.7117,-0.6683,-0.6946,-0.7471,-0.7458,-0.711,-0.7044,-0.7048,-0.7012,-0.6626,-0.6212,-0.5797,-0.5432,-0.5312,-0.5249,-0.4727,-0.4538,-0.447,0.0,0.0,0.0,0.0,0.0,0.0,0.0,0.0,0.0,0.0,0.0,0.0,0.0,0.0,0.0,0.0,0.0,0.0,0.0,0.0,0.0,0.0,0.0,0.0,0.0,0.0,0.0,0.0,0.0,0.0,0.0,0.0,0.0,-2.006,0.0,-1.9868,0.0,0.0,0.0,0.0,-1.9636,-1.9713,-1.9858,-1.9964,-2.0022,0.0,0.0,0.0,0.0,0.0,0.0,0.0,-2.5537,-2.558,-2.5582,-2.5395,-2.4763,-2.407,-2.3831,-2.2786,-2.1934,-2.256,-2.3428,-2.4354,-2.5195,-2.5236,-2.4939,-2.4432,-2.3378,-2.1971,-2.0081,-1.9291,-1.8129,-1.5605,-1.5286,-1.4802,-1.3367,-1.2433,-1.1697,-1.1253,-1.0757,-1.0527,-1.0807,-1.0938,-1.1014,-1.1014,-1.1126,-1.0824,-1.0055,-0.9903,-0.9623,-0.9226,-0.8742,-0.8667,-0.8958,-0.8389,-0.783,-0.7373,-0.7033,-0.6484,-0.5713,-0.6439,-0.6894,-0.7098,-0.675,-0.6629,-0.6604,-0.6188,-0.5796,-0.5432,-0.534,-0.5312,-0.5214,-0.4412,-0.4121,-0.3956,0.0,0.0,0.0,0.0,0.0,0.0,0.0,0.0,0.0,0.0,0.0,0.0,0.0,0.0,0.0,0.0,0.0,0.0,0.0,0.0,0.0,0.0,0.0,0.0,0.0,0.0,0.0,0.0,0.0,0.0,0.0,0.0,0.0,-2.0134,0.0,-1.9813,0.0,0.0,0.0,0.0,0.0,-1.9585,-1.9811,-1.988,-2.0002,-2.0282,-2.1287,0.0,0.0,0.0,0.0,0.0,0.0,0.0,-2.4905,-2.4482,-2.3788,-2.2966,0.0,0.0,-2.1428,-2.2262,-2.3052,-2.384,-2.4681,-2.48,-2.4667,-2.4444,-2.4138,-2.3416,-2.1817,-2.1324,-2.023,-1.7426,-1.6847,-1.6108,-1.4254,-1.3272,-1.2555,-1.1965,-1.1349,-1.096,-1.1014,-1.0797,-1.0649,-1.0649,-1.0447,-1.0055,-0.9518,-0.9103,-0.8764,-0.8455,-0.8102,-0.8022,-0.8314,-0.7617,-0.7126,-0.6823,-0.6383,-0.5867,-0.5309,-0.5734,-0.6039,-0.6222,-0.6016,-0.5916,-0.5902,-0.5709,-0.5495,-0.5312,-0.5312,-0.5151,-0.489,-0.4248,-0.3858,-0.3528,0.0,0.0,0.0,0.0,0.0,0.0,0.0,0.0,0.0,0.0,0.0,0.0,0.0,0.0,0.0,0.0,0.0,0.0,0.0,0.0,0.0,0.0,0.0,0.0,0.0,0.0,0.0,0.0,0.0,0.0,0.0,0.0,0.0,-2.0472,0.0,0.0,0.0,0.0,0.0,0.0,0.0,0.0,-1.9719,-1.9802,-1.9992,-2.0339,-2.1265,-2.2059,-2.2792,-2.3678,0.0,0.0,0.0,0.0,-2.4112,-2.3237,-2.2412,0.0,0.0,-2.0112,-2.081,-2.1669,-2.2371,-2.3071,-2.3893,-2.3976,-2.3886,-2.3963,-2.4524,-2.4613,-2.3338,-2.3033,-2.2202,-1.9816,-1.8833,-1.7742,-1.6067,-1.4972,-1.4072,-1.3389,-1.2529,-1.1784,-1.126,-1.0748,-1.0395,-1.0322,-0.9812,-0.9458,-0.9296,-0.8541,-0.8036,-0.7847,-0.7642,-0.7558,-0.7665,-0.6869,-0.6454,-0.6491,-0.5669,-0.5312,-0.5312,-0.5312,-0.5312,-0.5312,-0.5312,-0.5312,-0.5281,-0.5214,-0.5214,-0.5277,-0.5119,-0.489,-0.4535,-0.4051,-0.3623,-0.3227,0.0,0.0,0.0,0.0,0.0,0.0,0.0,0.0,0.0,0.0,0.0,0.0,0.0,0.0,0.0,0.0,0.0,0.0,0.0,0.0,0.0,0.0,0.0,0.0,0.0,0.0,0.0,0.0,0.0,0.0,0.0,0.0,0.0,0.0,0.0,0.0,0.0,0.0,0.0,0.0,0.0,0.0,0.0,0.0,0.0,0.0,0.0,0.0,-2.1824,-2.2763,-2.3606,0.0,0.0,0.0,-2.4038,-2.3172,-2.2338,0.0,0.0,0.0,-2.08,-2.1611,-2.1854,-2.2107,-2.2982,-2.3066,-2.2988,-2.3062,-2.4101,-2.4522,-2.2974,-2.3682,-2.3868,-2.19,-2.12,-2.0318,-1.8645,-1.7053,-1.5779,-1.4974,-1.383,-1.2814,-1.2118,-1.1364,-1.0725,-1.0322,-0.9856,-0.9226,-0.8434,-0.7936,-0.7308,-0.6509,-0.6431,-0.6618,-0.7114,-0.6543,-0.6346,-0.6491,-0.5669,-0.5312,-0.5312,-0.5312,-0.5312,-0.5312,-0.5312,-0.5312,-0.5281,-0.4861,-0.4922,-0.5214,-0.4476,-0.4347,-0.45,-0.3686,-0.3358,-0.3194,0.0,0.0,0.0,0.0,0.0,0.0,0.0,0.0,0.0,0.0,0.0,0.0,0.0,0.0,0.0,0.0,0.0,0.0,0.0,0.0,0.0,0.0,0.0,0.0,0.0,0.0,0.0,0.0,0.0,0.0,0.0,-2.3653,-2.3139,0.0,0.0,0.0,0.0,0.0,0.0,0.0,0.0,0.0,0.0,0.0,0.0,0.0,0.0,0.0,-2.2435,-2.3828,-2.4505,-2.463,-2.3793,0.0,0.0,0.0,-2.1546,0.0,-2.0455,-2.0077,-1.9898,-2.0254,-2.0692,-2.1263,-2.2133,-2.2221,-2.2137,-2.2165,-2.302,-2.3707,-2.3486,-2.3971,-2.4102,-2.3152,-2.2476,-2.154,-2.0,-1.8589,-1.7387,-1.6532,-1.5415,-1.4308,-1.3311,-1.2051,-1.102,-1.0385,-0.9182,-0.8306,-0.787,-0.7028,-0.6356,-0.5944,-0.5503,-0.5414,-0.5641,-0.5209,-0.5113,-0.5444,-0.5334,-0.5312,-0.5312,-0.5312,-0.5312,-0.5312,-0.5312,-0.5312,-0.5281,-0.4791,-0.489,-0.5217,-0.4347,-0.4121,-0.4183,-0.3553,-0.3165,-0.2906,0.0,0.0,0.0,0.0,0.0,0.0,0.0,0.0,0.0,0.0,0.0,0.0,0.0,0.0,0.0,0.0,0.0,0.0,0.0,0.0,0.0,0.0,0.0,0.0,0.0,0.0,0.0,0.0,0.0,0.0,-2.4091,-2.4086,-2.3689,0.0,-2.2976,0.0,0.0,0.0,0.0,0.0,0.0,0.0,0.0,0.0,0.0,0.0,0.0,0.0,-2.2726,-2.4251,-2.4878,-2.484,-2.3773,-2.3158,0.0,0.0,0.0,-2.0179,-1.9633,-1.9494,-1.9453,-1.9233,-1.9658,-2.0261,-2.0695,-2.0879,-2.0965,-2.0964,-2.1601,-2.2427,-2.3283,-2.3619,-2.3717,-2.3571,-2.283,-2.1886,-2.0802,-1.9654,-1.8643,-1.7887,-1.6866,-1.5759,-1.4565,-1.2845,-1.1492,-1.0621,-0.8929,-0.7796,-0.7484,-0.6465,-0.5762,-0.543,-0.4897,-0.4538,-0.4441,-0.4153,-0.4153,-0.4441,-0.4797,-0.4957,-0.4957,-0.5087,-0.5119,-0.5119,-0.5246,-0.5312,-0.5281,-0.4791,-0.489,-0.5214,-0.4213,-0.3893,-0.3926,-0.3362,-0.2972,-0.2714,0.0,0.0,0.0,0.0,0.0,0.0,0.0,0.0,0.0,0.0,0.0,0.0,0.0,0.0,0.0,0.0,0.0,0.0,0.0,0.0,0.0,0.0,0.0,0.0,0.0,0.0,0.0,0.0,0.0,0.0,-2.2967,-2.2415,-2.2619,-2.3479,-2.3848,-2.2469,-1.9924,0.0,0.0,0.0,0.0,0.0,0.0,0.0,0.0,0.0,0.0,-2.1721,-2.1797,-2.2717,-2.3583,-2.3949,-2.219,-2.2168,-2.2475,0.0,0.0,0.0,-2.0245,-2.0289,-2.0143,-1.9306,-1.9138,-1.8973,-1.8187,-1.864,-1.9231,-1.9229,-1.9867,-2.0687,-2.1495,-2.2312,-2.286,-2.2851,-2.202,-2.1295,-2.11,-2.0188,-1.9385,-1.8974,-1.7971,-1.689,-1.5808,-1.3905,-1.2254,-1.1047,-0.9627,-0.8345,-0.7177,-0.6707,-0.5897,-0.4684,-0.4608,-0.4409,-0.4026,-0.4026,-0.4026,-0.4026,-0.4056,-0.4058,-0.4088,-0.4473,-0.4631,-0.4663,-0.5119,-0.5312,-0.5281,-0.4791,-0.489,-0.5179,-0.3846,-0.3593,-0.3893,-0.3041,-0.2712,-0.2714,0.0,0.0,0.0,0.0,0.0,0.0,0.0,0.0,0.0,0.0,0.0,0.0,0.0,0.0,0.0,0.0,0.0,0.0,0.0,0.0,0.0,0.0,0.0,0.0,0.0,0.0,0.0,0.0,0.0,-2.1907,-2.271,-2.2564,-2.2518,-2.2542,-2.296,-2.2491,-2.1415,-2.1416,0.0,0.0,0.0,0.0,0.0,0.0,0.0,-2.0318,-2.1287,-2.1981,-2.2572,-2.3444,-2.4309,-2.4822,-2.3564,-2.3035,-2.2531,-2.0806,-2.0296,-2.0181,-1.9619,-1.9889,-1.9998,-1.8605,-1.8691,-1.8884,-1.8054,-1.8039,-1.8373,-1.8981,-1.9291,-1.9715,-2.0571,-2.1338,-2.202,-2.2585,-2.1831,-2.1114,-2.0924,-2.0144,-1.9499,-1.923,-1.8744,-1.7829,-1.627,-1.4453,-1.2728,-1.1186,-0.9247,-0.7806,-0.7068,-0.645,-0.5789,-0.5084,-0.4505,-0.3891,-0.3173,-0.3429,-0.3556,-0.3558,-0.3858,-0.3993,-0.3993,-0.4153,-0.4218,-0.4218,-0.4379,-0.4797,-0.5249,-0.4508,-0.4473,-0.4759,-0.3714,-0.3392,-0.3493,-0.2909,-0.2515,-0.2281,0.0,0.0,0.0,0.0,0.0,0.0,0.0,0.0,0.0,0.0,0.0,0.0,0.0,0.0,0.0,0.0,0.0,0.0,0.0,0.0,0.0,0.0,0.0,0.0,0.0,0.0,0.0,0.0,0.0,0.0,0.0,-2.209,-2.1972,-2.1612,-2.1419,-2.1381,0.0,0.0,0.0,-2.0368,0.0,0.0,-2.0261,0.0,-2.0797,-2.122,-2.1874,-2.2454,-2.303,-2.363,-2.4219,-2.4535,-2.356,-2.2647,-2.1695,-2.0487,0.0,0.0,-1.9487,0.0,-1.9474,-1.8111,-1.8001,-1.8006,-1.7182,-1.7153,-1.7467,-1.81,-1.8421,-1.8771,-1.932,-1.9771,-2.0423,-2.1549,-2.1126,-2.0593,-2.0424,-1.988,-1.9447,-1.9329,-1.9117,-1.844,-1.7041,-1.5152,-1.3388,-1.1796,-0.9527,-0.789,-0.705,-0.6433,-0.5789,-0.5084,-0.4377,-0.3663,-0.2907,-0.3163,-0.3227,-0.3101,-0.3399,-0.3567,-0.3567,-0.3693,-0.3758,-0.3758,-0.3758,-0.418,-0.4829,-0.4379,-0.4283,-0.4344,-0.3911,-0.3553,-0.3259,-0.3003,-0.261,-0.2281,0.0,0.0,0.0,0.0,0.0,0.0,0.0,0.0,0.0,0.0,0.0,0.0,0.0,0.0,0.0,0.0,0.0,0.0,0.0,0.0,0.0,0.0,0.0,0.0,0.0,0.0,0.0,0.0,0.0,0.0,0.0,0.0,-2.087,0.0,-1.9434,-1.9176,-1.9823,0.0,-2.0499,-1.9651,0.0,-2.0427,-2.1102,-2.143,-2.2035,-2.2749,-2.2956,-2.2988,-2.2968,-2.3039,-2.3089,-2.2961,-2.1948,-2.0905,-2.0012,-1.9845,0.0,0.0,0.0,0.0,0.0,-1.7889,-1.7107,-1.6294,-1.541,-1.5855,-1.6471,-1.6504,-1.7174,-1.775,-1.7711,-1.7651,-1.8118,-1.9687,-1.9815,-1.9684,-1.9572,-1.9396,-1.9277,-1.9305,-1.9134,-1.8762,-1.8116,-1.6034,-1.4169,-1.287,-1.0618,-0.8634,-0.7104,-0.6704,-0.5929,-0.4663,-0.4248,-0.3821,-0.3355,-0.3358,-0.313,-0.2746,-0.2747,-0.2747,-0.2747,-0.3132,-0.3325,-0.3292,-0.3325,-0.3558,-0.4023,-0.4409,-0.4344,-0.4026,-0.4438,-0.4075,-0.3325,-0.3292,-0.3034,-0.2714,0.0,0.0,0.0,0.0,0.0,0.0,0.0,0.0,0.0,0.0,0.0,0.0,0.0,0.0,0.0,0.0,0.0,0.0,0.0,0.0,0.0,0.0,0.0,0.0,0.0,0.0,0.0,0.0,0.0,0.0,0.0,0.0,0.0,0.0,-1.9646,-1.9254,-1.8978,-1.9597,0.0,-2.0349,-2.0007,-2.0043,-2.0316,-2.0412,-2.0665,-2.0999,-2.1053,-2.1502,-2.2063,-2.2076,-2.2962,-2.386,-2.28,-2.1775,0.0,-2.0015,0.0,0.0,-1.9856,0.0,0.0,0.0,0.0,0.0,-1.5592,-1.5423,-1.575,-1.6426,-1.6727,-1.7053,-1.7662,-1.7762,-1.786,-1.8212,-1.8108,-1.8144,-1.8596,-1.8618,-1.8813,-1.9439,-1.9344,-1.8649,-1.717,-1.5785,-1.4131,-1.2081,-1.053,-0.9136,-0.7937,-0.7002,-0.6198,-0.5477,-0.5349,-0.5092,-0.4673,-0.4373,-0.4189,-0.4062,-0.3786,-0.3632,-0.3632,-0.3758,-0.3623,-0.3325,-0.3658,-0.3691,-0.3525,-0.3986,-0.4091,-0.4026,-0.4438,-0.4274,-0.3758,-0.3425,-0.3061,-0.2636,0.0,0.0,0.0,0.0,0.0,0.0,0.0,0.0,0.0,0.0,0.0,0.0,0.0,0.0,0.0,0.0,0.0,0.0,0.0,0.0,0.0,0.0,0.0,0.0,0.0,0.0,0.0,0.0,0.0,0.0,0.0,0.0,0.0,0.0,0.0,0.0,0.0,0.0,0.0,-2.0061,-1.9867,-2.0098,-2.0546,-2.0604,-2.0925,-2.1299,-2.0953,-2.1449,-2.214,-2.1441,-2.1901,-2.2647,-2.194,-2.1297,-2.0661,-1.9929,-1.9723,0.0,0.0,0.0,0.0,-1.7813,0.0,0.0,-1.5559,-1.5231,-1.5363,-1.5896,-1.6008,-1.6152,-1.6658,-1.6781,-1.6765,-1.6657,-1.6544,-1.6798,-1.7753,-1.8176,-1.8435,-1.854,-1.8767,-1.8295,-1.6702,-1.5591,-1.4129,-1.2137,-1.0736,-0.9305,-0.7814,-0.6952,-0.6388,-0.6094,-0.6094,-0.5872,-0.5459,-0.5217,-0.5001,-0.4846,-0.4772,-0.4583,-0.4242,-0.4433,-0.4161,-0.3593,-0.3893,-0.3858,-0.3656,-0.4237,-0.4304,-0.4056,-0.4666,-0.4538,-0.3958,-0.3691,-0.3325,-0.2896,0.0,0.0,0.0,0.0,0.0,0.0,0.0,0.0,0.0,0.0,0.0,0.0,0.0,0.0,0.0,0.0,0.0,0.0,0.0,0.0,0.0,0.0,0.0,0.0,0.0,0.0,0.0,0.0,0.0,0.0,0.0,0.0,0.0,0.0,0.0,0.0,0.0,0.0,-1.8571,-1.9188,-1.9585,-2.0314,-2.1167,-2.1308,-2.185,-2.2425,-2.172,-2.2007,-2.2501,-2.1116,-2.0588,-2.0477,-2.0376,-2.0228,-2.0034,-1.9704,-1.9605,0.0,0.0,0.0,0.0,-1.7653,-1.7038,0.0,-1.5404,-1.5183,-1.5199,-1.5189,-1.5235,-1.5284,-1.5278,-1.5332,-1.5349,-1.5308,-1.5291,-1.5731,-1.7009,-1.7809,-1.7985,-1.7228,-1.7807,-1.7775,-1.6543,-1.5444,-1.4156,-1.2614,-1.1001,-0.9277,-0.7394,-0.6901,-0.6695,-0.6695,-0.6751,-0.6549,-0.6132,-0.6083,-0.5913,-0.5536,-0.5875,-0.5658,-0.4955,-0.5287,-0.4994,-0.428,-0.4288,-0.4245,-0.4274,-0.502,-0.4865,-0.4215,-0.5081,-0.495,-0.4274,-0.418,-0.3851,-0.3388,0.0,0.0,0.0,0.0,0.0,0.0,0.0,0.0,0.0,0.0,0.0,0.0,0.0,0.0,0.0,0.0,0.0,0.0,0.0,0.0,0.0,-1.992,-1.9412,-1.8758,0.0,0.0,0.0,0.0,0.0,0.0,0.0,0.0,0.0,0.0,0.0,0.0,0.0,0.0,-1.8448,-1.8912,-1.9314,-1.9788,-2.027,-2.0463,-2.0639,-2.0768,-2.0672,-2.0748,-2.098,-2.1457,-2.1117,-2.0585,-2.1095,-2.0724,-2.0034,-1.9704,-1.9605,-1.9555,-1.9404,-1.9442,-1.9162,-1.7575,-1.732,0.0,-1.541,-1.5117,-1.518,-1.5132,-1.5126,-1.5144,-1.5138,-1.5154,-1.5187,-1.5285,-1.5254,-1.552,-1.6371,-1.6675,-1.6965,-1.7377,-1.7431,-1.7041,-1.603,-1.5257,-1.4135,-1.2549,-1.0603,-0.9174,-0.849,-0.8145,-0.7956,-0.7956,-0.822,-0.8317,-0.8212,-0.7958,-0.7786,-0.7692,-0.7484,-0.7328,-0.7151,-0.6881,-0.6466,-0.6022,-0.6003,-0.5794,-0.5501,-0.601,-0.5736,-0.5052,-0.5929,-0.6148,-0.5925,-0.5241,-0.47,-0.4186,0.0,0.0,0.0,0.0,0.0,0.0,0.0,0.0,0.0,0.0,0.0,0.0,0.0,0.0,0.0,0.0,0.0,0.0,0.0,0.0,-2.1122,-2.0371,-1.9678,-1.8998,-1.8352,0.0,0.0,0.0,0.0,0.0,0.0,0.0,0.0,0.0,0.0,0.0,0.0,0.0,-1.8399,-1.902,-1.9227,-1.9535,-1.9922,-2.0088,-2.0152,-2.0177,-2.0303,-2.0393,-2.0618,-2.1727,-2.1685,-2.1133,-2.1031,-2.0932,-2.0693,-1.9926,-1.9698,-1.9647,-1.937,-1.9499,-1.9279,-1.7547,-1.7299,0.0,0.0,-1.5057,-1.5078,-1.5007,-1.4894,-1.485,-1.5018,-1.5049,-1.5101,-1.5271,-1.5273,-1.5376,-1.575,-1.6184,-1.6394,-1.6218,-1.6525,-1.6289,-1.512,-1.4662,-1.3771,-1.2128,-1.0314,-0.9218,-0.9049,-0.8728,-0.8551,-0.8551,-0.8712,-0.8934,-0.9209,-0.879,-0.887,-0.9383,-0.918,-0.8861,-0.8447,-0.8463,-0.7858,-0.6794,-0.679,-0.6547,-0.619,-0.6627,-0.6532,-0.6159,-0.6419,-0.6484,-0.6423,-0.5756,-0.5133,-0.4474,0.0,0.0,0.0,0.0,0.0,0.0,0.0,0.0,0.0,0.0,0.0,0.0,0.0,0.0,-2.0378,0.0,0.0,0.0,-2.1643,-2.1608,-2.1325,-2.0755,0.0,-1.9101,-1.8691,0.0,0.0,0.0,0.0,0.0,0.0,0.0,0.0,0.0,0.0,0.0,0.0,0.0,-1.841,-1.9207,-1.9142,-1.9499,-2.0104,-2.0231,-2.0298,-2.0287,-2.0315,-2.0414,-2.0692,-2.1824,-2.2022,-2.1669,-2.0938,-2.1119,-2.1364,-2.015,-1.98,-1.9728,-1.939,-1.9447,-1.9238,-1.773,-1.7326,-1.6933,0.0,0.0,0.0,-1.4877,-1.4696,-1.4624,-1.4926,-1.4984,-1.4985,-1.5004,-1.5144,-1.5125,-1.4788,-1.5458,-1.5728,-1.5034,-1.5601,-1.5605,-1.4456,-1.4213,-1.3482,-1.195,-1.048,-0.9641,-0.955,-0.915,-0.8948,-0.8991,-0.9002,-0.9298,-0.991,-0.9484,-0.9761,-1.0722,-1.0705,-1.0298,-0.9613,-0.9934,-0.919,-0.7695,-0.7564,-0.7257,-0.6875,-0.7123,-0.7212,-0.7182,-0.685,-0.673,-0.6669,-0.6212,-0.5529,-0.4754,-1.4666,-1.5193,0.0,0.0,0.0,0.0,0.0,0.0,0.0,0.0,0.0,0.0,-1.9566,-1.975,-1.9903,-1.996,-2.0675,-2.1108,-2.1091,-2.1345,-2.1097,-2.0147,-1.9585,-1.8869,-1.7946,-1.7845,0.0,0.0,0.0,0.0,0.0,0.0,0.0,0.0,-1.7811,0.0,0.0,0.0,-1.8609,-1.9182,-1.8946,-1.9764,-2.1147,-2.1281,-2.1334,-2.1253,-2.0613,-2.0468,-2.0722,-2.1567,-2.183,-2.1759,-2.1541,-2.1529,-2.1364,-2.015,-1.98,-1.9728,-1.939,-1.9447,-1.9382,-1.8472,-1.7768,-1.7065,-1.6186,0.0,-1.4877,-1.4756,0.0,-1.4727,-1.4886,0.0,0.0,-1.4074,-1.4568,-1.4491,-1.2949,-1.3519,-1.4373,-1.5085,-1.5158,-1.5086,-1.4915,-1.4465,-1.3756,-1.2741,-1.1626,-1.0799,-1.0396,-0.9703,-0.9451,-0.9689,-0.9739,-1.0177,-1.1007,-1.0726,-1.0903,-1.1574,-1.1638,-1.1589,-1.1475,-1.1127,-1.0581,-0.9879,-0.9187,-0.858,-0.8075,-0.7768,-0.7632,-0.7632,-0.7573,-0.7573,-0.7505,-0.7089,-0.6394,-0.5618,-1.5376,-1.5509,0.0,0.0,0.0,0.0,0.0,0.0,0.0,0.0,0.0,-1.9845,-2.0465,-2.0998,-2.1323,-2.1347,-2.2202,-2.2448,-2.1736,-2.1718,0.0,-2.1013,-2.0494,-1.9782,-1.8801,-1.8737,-1.8411,0.0,-1.7811,0.0,0.0,0.0,0.0,0.0,-1.728,-1.7275,-1.7458,-1.7555,-1.8097,-1.8917,-1.9619,-2.0505,-2.1368,-2.0832,-2.0729,-2.082,-2.0506,-2.046,-2.0587,-2.0933,-2.1685,-2.2304,-2.1239,-2.1603,-2.2092,-2.0455,-1.9974,-1.9926,-1.9663,-1.9641,-1.9388,-1.8033,-1.748,-1.6853,-1.5334,-1.4827,-1.4624,-1.4453,0.0,0.0,0.0,0.0,0.0,0.0,-1.328,-1.2838,-1.2452,-1.183,-1.1963,-1.3398,-1.4044,-1.4471,-1.4739,-1.3754,-1.3266,-1.3639,-1.2346,-1.1359,-1.0918,-1.0795,-1.0648,-1.045,-1.0841,-1.1387,-1.2055,-1.2029,-1.2474,-1.3311,-1.3087,-1.2942,-1.2958,-1.2345,-1.1554,-1.0601,-0.9869,-0.919,-0.8578,-0.841,-0.8326,-0.8326,-0.8326,-0.8086,-0.7695,-0.7787,-0.6938,-0.575,-1.6162,0.0,0.0,0.0,0.0,0.0,0.0,0.0,0.0,-1.9272,-1.9591,-2.0071,-2.1166,-2.1607,-2.1942,-2.2213,-2.2709,-2.2643,-2.1755,-2.1479,-2.1299,-2.1157,-2.0697,-2.0103,-1.9386,-1.9222,-1.8735,0.0,0.0,0.0,0.0,0.0,0.0,0.0,0.0,-1.6864,-1.6965,-1.703,-1.7539,-1.8437,-1.9488,-2.0409,-2.1121,-2.0628,-2.0421,-2.0401,-2.0401,-2.0432,-2.0511,-2.0734,-2.1612,-2.2391,-2.1109,-2.1578,-2.2279,-2.0573,-2.0094,-2.006,-1.9851,-1.98,-1.9437,-1.7956,-1.7349,-1.6685,-1.5041,-1.4535,-1.4387,-1.4295,-1.4434,0.0,0.0,0.0,-1.4455,0.0,0.0,-1.206,-1.2008,-1.1057,-1.0973,-1.2586,-1.3436,-1.3839,-1.3677,-1.2896,-1.2816,-1.3786,-1.2581,-1.1929,-1.2223,-1.1817,-1.1546,-1.153,-1.1774,-1.2318,-1.3247,-1.325,-1.376,-1.4774,-1.4415,-1.4269,-1.4248,-1.3659,-1.2713,-1.1505,-1.0796,-1.0017,-0.9194,-0.9102,-0.9081,-0.9064,-0.8978,-0.8554,-0.8048,-0.8334,-0.7458,-0.6114,-1.7107,-1.7628,0.0,0.0,0.0,0.0,0.0,0.0,-1.8109,-1.9091,-1.9552,-2.023,-2.1369,-2.0826,-2.0759,-2.1728,-2.102,-2.05,-2.0456,-2.0156,-1.9898,-1.9773,-1.9433,-1.9191,-1.9026,-1.8636,-1.8426,0.0,0.0,0.0,0.0,0.0,0.0,0.0,-1.7304,-1.7096,-1.7096,-1.6968,-1.7223,-1.7746,-1.7851,-1.8884,-2.0435,-2.1236,-2.1069,-2.0401,-2.0401,-2.0401,-2.0519,-2.1295,-2.1601,-2.162,-2.1506,-2.1546,-2.1433,-2.0325,-2.0055,-2.006,-1.9851,-1.98,-1.9592,-1.8763,-1.7725,-1.6716,-1.6008,-1.4997,-1.4261,-1.4453,-1.4602,-1.4727,-1.4868,-1.495,0.0,0.0,0.0,0.0,0.0,-1.1625,-1.2527,-1.3621,-1.3843,-1.3216,-1.1481,-1.2144,-1.2711,-1.2745,-1.216,-1.2705,-1.4766,-1.255,-1.18,-1.3088,-1.2331,-1.277,-1.4613,-1.4314,-1.4599,-1.5472,-1.5443,-1.5443,-1.5436,-1.5088,-1.427,-1.3097,-1.234,-1.1347,-1.0226,-0.9906,-0.9761,-0.9736,-0.941,-0.9082,-0.8766,-0.8775,-0.8014,-0.6971,0.0,0.0,0.0,0.0,-1.722,-1.8105,-1.8562,-1.8381,-1.857,-1.9597,-1.9771,-2.0249,-2.144,-2.1357,-2.1355,-2.1705,-2.1483,-2.1058,-2.0439,-2.0749,-2.0717,-2.0191,-2.0899,-2.0736,-1.9486,-1.9641,-1.9418,-1.881,0.0,0.0,0.0,0.0,0.0,0.0,0.0,-1.6656,-1.6396,-1.6707,-1.6448,-1.5666,-1.3548,-1.3946,-1.6175,-1.9527,-2.0638,-2.04,-2.04,-2.0371,-2.0374,-2.0652,-2.112,-2.15,-2.0885,-2.1154,-2.1468,-2.0485,-2.0211,-2.0214,-2.0151,-2.0126,-1.9916,-1.8964,-1.8441,-1.7896,-1.6913,-1.6046,-1.5431,-1.5314,-1.5046,-1.4826,-1.4785,0.0,0.0,0.0,0.0,0.0,0.0,-1.1687,-1.2382,-1.2701,-1.1939,-1.1438,-1.1581,-1.1261,-1.1031,-1.0977,-1.0133,-0.9761,-1.0091,-1.2644,-1.4035,-1.3879,-1.4302,-1.4829,-1.5427,-1.5708,-1.6109,-1.664,-1.6808,-1.6889,-1.6849,-1.6119,-1.5184,-1.4078,-1.3202,-1.2187,-1.1136,-1.0898,-1.0789,-1.071,-0.9981,-0.9895,-1.0089,-0.92,-0.7935,-0.6602,-1.8163,-1.8163,0.0,-1.7314,-1.7798,-1.8517,-1.9234,-1.9089,-1.9162,-1.9897,-1.9923,-2.0308,-2.1469,-2.1357,-2.1346,-2.1705,-2.1494,-2.1218,-2.0945,-2.1015,-2.1017,-2.0903,-2.1355,-2.0943,-1.9515,-1.9949,-1.9724,-1.8787,-1.8457,-1.8351,0.0,0.0,0.0,0.0,0.0,-1.6711,-1.6143,-1.6627,-1.5886,-1.4125,-1.125,-1.1469,-1.4004,-1.8609,-2.0385,-2.0395,-2.0365,-2.0336,-2.0295,-2.0298,-2.0672,-2.1046,-2.0482,-2.0718,-2.108,-2.0479,-2.0299,-2.0299,-2.0296,-2.0302,-2.0057,-1.9054,-1.8753,-1.8346,-1.7034,-1.6591,-1.6346,-1.5956,-1.5616,-1.5379,-1.5323,-1.5089,0.0,0.0,0.0,0.0,0.0,-1.2558,-1.302,-1.2669,-1.1907,-1.1498,-1.1708,-1.1299,-1.098,-1.0889,-0.9341,-0.8903,-1.0063,-1.3525,-1.5254,-1.4783,-1.567,-1.6243,-1.6469,-1.6958,-1.7361,-1.7695,-1.7873,-1.7957,-1.794,-1.7207,-1.6366,-1.5433,-1.4354,-1.3347,-1.2455,-1.1967,-1.175,-1.169,-1.0827,-1.0711,-1.0864,-0.9694,-0.8498,-0.7308,-1.7621,-1.753,-1.7409,-1.7444,-1.8018,-1.8718,-1.9497,-1.971,-1.9836,-2.0003,-1.9993,-2.0382,-2.142,-2.0787,-2.0677,-2.1655,-2.0974,-2.0866,-2.1767,-2.0906,-2.0763,-2.1632,-2.0744,-1.9852,-1.906,-1.9506,-1.9316,-1.8431,-1.8503,0.0,0.0,0.0,0.0,0.0,-1.7811,0.0,-1.638,-1.6474,-1.5042,-1.2549,-1.0453,-1.0902,-1.3382,-1.8398,-2.0337,-2.0302,-1.9563,-1.9735,-2.0302,-2.0302,-2.0302,-2.0302,-2.0302,-2.0294,-2.0299,-2.0296,-2.0294,-2.0299,-2.0296,-2.0302,-2.0067,-1.9111,-1.8726,-1.8184,-1.6659,-1.6772,-1.7055,-1.6516,-1.6372,-1.6343,-1.6343,-1.577,0.0,0.0,0.0,0.0,0.0,-1.4076,-1.4313,-1.3521,-1.3662,-1.3254,-1.178,-1.2028,-1.2299,-1.2324,-0.995,-1.0313,-1.4464,-1.5058,-1.5447,-1.5828,-1.6397,-1.7036,-1.7757,-1.8019,-1.8305,-1.8633,-1.8642,-1.8642,-1.8642,-1.8312,-1.7768,-1.7067,-1.5716,-1.4788,-1.4068,-1.3051,-1.2641,-1.256,-1.1869,-1.1447,-1.1085,-1.0193,-0.9602,-0.9031,-1.7541,-1.7504,-1.7586,-1.8187,-1.8851,-1.9406,-1.9697,-1.9685,-1.9793,-2.0171,-1.9919,-1.9941,-2.0568,-2.0347,-2.0324,-2.0723,-2.0511,-2.0498,-2.0837,-2.1156,-2.0902,-1.9907,-2.0219,-1.9734,-1.8241,-1.8809,-1.9056,-1.8923,-1.904,0.0,-1.8843,0.0,0.0,0.0,0.0,-1.7667,-1.7126,-1.2791,-0.8043,-0.3387,-0.2818,-0.2942,-0.4701,-1.6003,-2.0308,-1.9004,-0.8847,-1.1716,-2.0302,-2.0302,-2.0302,-2.0302,-2.0302,-2.0298,-2.0304,-2.03,-2.0298,-2.0304,-2.0292,-2.0302,-2.0236,-1.9972,-1.9909,-1.9789,-1.9331,-1.893,-1.8765,-1.9167,-1.7984,-1.6603,-1.5608,-1.5399,-1.5205,0.0,0.0,0.0,-1.3896,-1.3527,-1.3357,-1.3733,-1.4055,-1.3691,-1.2256,-1.0405,-1.0276,-1.2645,-1.2808,-1.3307,-1.4417,-1.5654,-1.6363,-1.6473,-1.7522,-1.827,-1.8666,-1.8642,-1.8817,-1.9184,-1.9148,-1.9202,-1.9326,-1.8938,-1.8351,-1.7552,-1.6466,-1.5557,-1.4752,-1.3599,-1.3185,-1.3166,-1.2039,-1.1447,-1.105,-0.9826,-0.9557,-0.9684,-1.6989,-1.7288,-1.763,-1.8231,-1.8746,-1.9242,-1.9731,-1.9817,-1.9924,-2.0259,-1.9991,-1.9908,-2.026,-2.0225,-2.0233,-2.0352,-2.0326,-2.0362,-2.0494,-2.057,-2.0194,-1.9238,-1.9334,-1.8767,-1.7411,-1.8385,-1.8784,-1.8528,-1.9276,-1.9493,-1.916,0.0,0.0,0.0,0.0,-1.7883,-1.7444,-0.871,-0.3065,0.0,0.0,0.0,0.0,-0.8511,-1.5118,-1.9302,-1.1618,-1.3801,-2.0004,-1.8003,-1.8657,-2.0302,-2.0302,-2.0302,-2.0302,-2.0302,-2.0302,-1.9658,-1.6651,-1.5833,-1.5833,-1.5833,-1.8124,-2.035,-2.0353,-1.7694,-1.5986,-1.8686,-1.7262,-1.5007,-1.3305,-1.4578,-1.567,-1.5009,-1.4177,-1.3754,-1.4138,-1.3645,-1.3399,-1.3846,-1.4065,-1.3817,-1.2911,-1.1654,-1.158,-1.3191,-1.3853,-1.4185,-1.4185,-1.5671,-1.6551,-1.6612,-1.7714,-1.855,-1.9083,-1.8809,-1.8905,-1.9365,-1.941,-1.9447,-1.9462,-1.9221,-1.8886,-1.8401,-1.7392,-1.6499,-1.5669,-1.455,-1.3915,-1.3595,-1.269,-1.2207,-1.188,-1.1002,-1.0633,-1.0516,-1.6478,-1.7079,-1.7575,-1.8087,-1.8247,-1.8627,-1.9535,-1.9802,-1.9919,-1.9973,-1.9876,-1.984,-1.995,-1.994,-1.994,-1.9968,-1.9962,-2.0022,-2.0148,-1.9448,-1.8977,-1.886,-1.8202,-1.742,-1.6548,-1.7928,-1.838,-1.7812,-1.9201,-1.9669,0.0,0.0,0.0,0.0,0.0,0.0,-1.7628,-0.7026,-0.1552,0.0,0.0,0.0,0.0,0.0,-0.7348,-1.7869,-1.9667,-1.9158,-1.7311,-1.5132,-1.7016,-2.0302,-2.0302,-2.0302,-2.0302,-2.0302,-2.0302,-1.8609,-1.0883,-0.8777,-0.8777,-0.8777,-1.3238,-1.8121,-1.9968,-1.5286,-1.185,-1.6403,-1.5298,-1.3113,-1.179,-1.4307,-1.6286,-1.5384,-1.4841,-1.4489,-1.4366,-1.4045,-1.3833,-1.3862,-1.3878,0.0,-1.3544,-1.3984,-1.4076,-1.3602,-1.3689,-1.3815,-1.3903,-1.5361,-1.6358,-1.6646,-1.7598,-1.8489,-1.9301,-1.8909,-1.8953,-1.9434,-1.9555,-1.9527,-1.937,-1.932,-1.9305,-1.9243,-1.8149,-1.7346,-1.6691,-1.5479,-1.4612,-1.4008,-1.3589,-1.332,-1.3157,-1.285,-1.2197,-1.1468,-1.7471,-1.7307,-1.7395,-1.888,-1.8419,-1.8082,-1.886,-1.8905,-1.871,-1.829,-1.8543,-1.8611,-1.8194,-1.8056,-1.8058,-1.8222,-1.819,-1.8204,-1.8351,-1.8212,-1.7811,-1.709,-1.6973,-1.6522,-1.5649,-1.6795,-1.7575,-1.7879,-1.8425,-1.8631,-1.8474,0.0,0.0,0.0,0.0,0.0,-1.8435,-1.6662,-0.9763,0.0,0.0,0.0,0.0,0.0,-0.1481,-0.503,-1.6272,-1.3089,-0.5145,-1.559,-1.9648,-2.0302,-2.0302,-2.0302,-2.0302,-2.0302,-2.0302,-1.759,-0.5143,-0.1769,-0.1769,-0.1769,-0.2673,-0.6499,-1.7754,-1.6517,-1.3253,-1.416,-1.3937,-1.4521,-1.7572,-1.7558,-1.7047,-1.6973,-1.5985,-1.5221,-1.5192,-1.4164,-1.3475,-1.3639,-1.3751,-1.3761,-1.3596,-1.3636,-1.3437,-1.2907,-1.3007,-1.3325,-1.3869,-1.5054,-1.6277,-1.7445,-1.8612,-1.943,-1.9857,-1.9825,-1.9921,-2.0117,-1.9766,-1.964,-1.9695,-1.9434,-1.9305,-1.9216,-1.7705,-1.7343,-1.7663,-1.5325,-1.4566,-1.4825,-1.426,-1.4121,-1.4177,-1.3624,-1.2977,-1.234,-1.6323,-1.7027,-1.762,-1.7766,-1.7708,-1.765,-1.7655,-1.7602,-1.762,-1.7777,-1.7937,-1.7958,-1.7774,-1.7656,-1.7641,-1.774,-1.7719,-1.7545,-1.7203,-1.7208,-1.6836,-1.5956,-1.5986,-1.5828,-1.5409,-1.5945,-1.5771,-1.4838,-1.7092,-1.8303,-1.8488,0.0,0.0,0.0,0.0,-1.85,0.0,-1.5603,-1.2655,-0.9432,-0.27,0.0,0.0,0.0,0.0,-0.0856,-0.7425,-0.7816,-0.5701,-0.8748,-1.4478,-1.9938,-1.7571,-1.8455,-1.9655,-1.606,-1.7516,-1.733,-0.3693,0.0,0.0,0.0,0.0,-0.1712,-0.828,-1.3292,-1.6564,-1.6564,-1.3904,-1.3086,-1.8059,-1.7519,-1.6506,-1.7095,-1.6152,-1.5508,-1.5965,-1.4991,-1.4233,-1.4272,-1.3957,-1.3706,-1.3556,-1.3329,-1.3023,-1.2639,-1.252,-1.2689,-1.3149,-1.4723,-1.6098,-1.7194,-1.8269,-1.9216,-2.0038,-1.9701,-1.9719,-2.0086,-1.9834,-1.9698,-1.9695,-1.9414,-1.9305,-1.9268,-1.8482,-1.819,-1.8133,-1.652,-1.5938,-1.596,-1.5253,-1.4874,-1.4623,-1.3904,-1.3435,-1.3064,-1.5501,-1.6881,-1.7763,-1.6753,-1.7029,-1.7206,-1.6676,-1.6455,-1.6571,-1.721,-1.735,-1.7365,-1.7281,-1.7221,-1.7192,-1.7183,-1.7193,-1.6935,-1.6312,-1.6301,-1.6016,-1.535,-1.5371,-1.5399,-1.5402,-1.4315,-1.2881,-1.1094,-1.5732,-1.8254,-1.8693,-1.7148,0.0,0.0,-1.8118,-1.849,-1.8337,-1.2271,-1.1829,-1.4318,-0.4102,0.0,0.0,0.0,0.0,0.0,0.0,-0.3422,-0.7143,-0.1798,-0.7157,-1.5934,-1.5243,-1.7515,-1.88,-1.0409,-1.1767,-1.3656,-0.2914,0.0,0.0,0.0,0.0,-0.076,-0.3655,-1.1035,-1.7229,-1.7103,-1.404,-1.2801,-1.7467,-1.7009,-1.617,-1.6938,-1.6328,-1.5959,-1.6498,-1.5679,-1.5054,-1.5128,-1.4282,-1.3431,-1.2802,-1.2913,-1.2896,-1.2543,-1.2277,-1.228,-1.2629,-1.4586,-1.6095,-1.6963,-1.8004,-1.9063,-2.0095,-1.9516,-1.9467,-1.9935,-1.9818,-1.9698,-1.9592,-1.9389,-1.932,-1.9356,-1.9181,-1.8758,-1.8156,-1.78,-1.7499,-1.7158,-1.6149,-1.5551,-1.5136,-1.4169,-1.372,-1.3546,-1.7075,-1.7335,-1.7411,-1.747,-1.7038,-1.6667,-1.6611,-1.5979,-1.5539,-1.5615,-1.6253,-1.6402,-1.5622,-1.5532,-1.552,-1.5516,-1.5521,-1.5519,-1.5502,-1.5446,-1.5409,-1.5387,-1.5399,-1.5399,-1.5404,-1.0817,-0.832,-0.8105,-1.4746,-1.8274,-1.8747,-1.697,-1.6573,-1.7396,-1.8821,-1.8745,-1.7209,-1.1942,-0.664,-0.1698,-0.0487,0.0,0.0,0.0,0.0,0.0,0.0,-0.0404,-0.0846,-0.0211,-0.0853,-0.3989,-1.5925,-2.0093,-1.7987,-0.4811,-0.1404,-0.1625,-0.0346,0.0,0.0,0.0,0.0,-0.3231,-1.559,-1.4354,-1.0467,-0.9972,-1.3598,-1.7254,-1.8509,-1.7969,-1.7301,-1.7272,-1.7273,-1.7113,-1.6576,-1.5494,-1.5049,-1.5884,-1.4582,-1.2716,-1.046,-1.2178,-1.3205,-1.2639,-1.234,-1.2463,-1.3099,-1.4936,-1.647,-1.7578,-1.8995,-1.9864,-2.0098,-2.0029,-2.0036,-2.0083,-1.9771,-1.9609,-1.9592,-1.9389,-1.9404,-1.9532,-1.8791,-1.8111,-1.7548,-1.8209,-1.8471,-1.8269,-1.6542,-1.6107,-1.6244,-1.4716,-1.3913,-1.3593,-1.5678,-1.6693,-1.7177,-1.6212,-1.6354,-1.6419,-1.5904,-1.5576,-1.5396,-1.5395,-1.5653,-1.5702,-1.5389,-1.5318,-1.5267,-1.5187,-1.5252,-1.5259,-1.5168,-1.5294,-1.535,-1.5343,-1.5376,-1.54,-1.5396,-1.3378,-1.2832,-1.3877,-1.25,-1.4228,-1.8812,-1.6466,-1.6094,-1.7372,-1.7711,-1.8355,-1.8924,-1.4855,-0.804,0.0,0.0,0.0,0.0,0.0,0.0,0.0,0.0,0.0,0.0,0.0,0.0,-0.0952,-0.6405,-1.3855,-1.9521,-1.3984,-0.6494,0.0,0.0,0.0,0.0,0.0,-0.4595,-1.0546,-1.5997,-1.6319,-1.5203,-1.4265,-1.6142,-1.7996,-1.8131,-1.7356,-1.6872,-1.7347,-1.6998,-1.6756,-1.7061,-1.6339,-1.5667,-1.5363,-1.4757,-1.4043,-1.3223,-1.3577,-1.3642,-1.311,-1.251,-1.2257,-1.2531,-1.4828,-1.6446,-1.7147,-1.8985,-2.0043,-2.0223,-2.01,-2.0062,-2.009,-1.9598,-1.9363,-1.9348,-1.9196,-1.9292,-1.96,-1.9428,-1.9218,-1.8993,-1.9449,-1.9554,-1.9267,-1.749,-1.6797,-1.6574,-1.4844,-1.4024,-1.3774,-1.4203,-1.5786,-1.6704,-1.5226,-1.5657,-1.6011,-1.5389,-1.5343,-1.537,-1.5371,-1.5335,-1.5326,-1.5394,-1.5358,-1.5277,-1.5173,-1.5251,-1.5254,-1.5133,-1.5278,-1.5362,-1.5331,-1.5366,-1.4911,-1.3858,-1.4872,-1.4521,-1.2715,-1.0788,-1.2564,-1.7719,-1.6318,-1.6023,-1.6682,-1.7077,-1.7041,-1.6685,-1.6851,-1.0381,0.0,0.0,0.0,0.0,0.0,0.0,0.0,0.0,0.0,0.0,0.0,0.0,0.0,0.0,-0.6689,-1.4541,-1.4541,-0.7637,0.0,0.0,-0.2182,-0.447,-0.447,-0.8693,-1.3334,-1.5213,-1.7227,-1.8528,-1.7946,-1.7871,-1.7928,-1.785,-1.7036,-1.6538,-1.705,-1.6789,-1.6718,-1.7277,-1.6793,-1.5783,-1.417,-1.3459,-1.3663,-1.5067,-1.4584,-1.4032,-1.3663,-1.3234,-1.2961,-1.2894,-1.5067,-1.6604,-1.7219,-1.9051,-2.0119,-2.0302,-2.0077,-1.9988,-2.0033,-1.9438,-1.9141,-1.9141,-1.9118,-1.9322,-1.9669,-1.9952,-2.0088,-2.0097,-2.0179,-1.999,-1.9488,-1.7946,-1.7019,-1.6371,-1.4892,-1.4157,-1.3881,-1.3275,-1.4738,-1.5859,-1.5035,-1.513,-1.5309,-1.5296,-1.5303,-1.5299,-1.5302,-1.5303,-1.5328,-1.5388,-1.5397,-1.5367,-1.5302,-1.5296,-1.5329,-1.5391,-1.5343,-1.5331,-1.5402,-1.5398,-1.3758,-1.0241,-1.3599,-1.041,-0.0215,-1.0087,-1.4957,-1.5078,-1.6714,-1.6555,-1.5041,-1.7495,-1.4579,-0.8408,-1.6934,-1.2588,0.0,0.0,0.0,0.0,0.0,0.0,0.0,0.0,0.0,0.0,0.0,0.0,0.0,0.0,-0.0117,-0.0254,-0.0254,-0.0127,0.0,0.0,-0.7345,-1.5016,-1.5016,-1.1125,-0.8947,-1.5257,-1.6954,-1.7476,-1.8393,-1.7902,-1.7492,-1.8074,-1.7437,-1.6693,-1.6363,-1.6974,-1.7369,-1.7043,-1.6487,-1.5086,-1.2359,-1.0154,-1.0492,-1.4596,-1.4642,-1.4336,-1.4199,-1.4732,-1.4989,-1.478,-1.5925,-1.7107,-1.825,-1.9461,-2.0158,-2.0294,-2.0033,-1.9907,-1.9898,-1.9282,-1.901,-1.9018,-1.9289,-1.9538,-1.9811,-2.0153,-2.0294,-2.0277,-2.0078,-1.9525,-1.8705,-1.7614,-1.6588,-1.563,-1.4954,-1.4368,-1.3872,-1.2737,-1.3717,-1.4498,-1.4832,-1.5118,-1.528,-1.5244,-1.5265,-1.5295,-1.5296,-1.5299,-1.5309,-1.5326,-1.533,-1.5293,-1.5172,-1.5253,-1.5253,-1.5125,-1.5244,-1.531,-1.5331,-1.5381,-1.4872,-1.3738,-1.4727,-1.1968,-0.5244,-0.493,-0.8284,-1.5043,-1.6725,-1.6569,-1.4942,-1.5867,-1.6357,-1.6064,-0.9385,-0.4023,0.0,0.0,0.0,0.0,0.0,0.0,0.0,0.0,0.0,0.0,0.0,0.0,0.0,0.0,0.0,0.0,0.0,0.0,0.0,0.0,-0.7205,-1.4719,-1.4719,-1.3438,-1.2704,-1.4686,-1.5828,-1.6658,-1.7429,-1.7766,-1.7898,-1.7881,-1.7751,-1.7583,-1.7233,-1.7406,-1.7284,-1.6495,-1.6492,-1.5109,-1.1175,-1.3057,-1.4996,-1.5872,-1.5711,-1.5503,-1.5371,-1.5488,-1.5366,-1.4894,-1.6709,-1.7929,-1.8284,-1.956,-2.0262,-2.0299,-2.0076,-1.9925,-1.982,-1.9167,-1.8824,-1.8725,-1.8906,-1.8932,-1.8889,-1.9631,-1.9648,-1.9182,-1.9663,-1.9396,-1.8572,-1.7629,-1.6676,-1.5735,-1.4833,-1.4136,-1.3179,-1.2198,-1.2808,-1.3378,-1.4232,-1.4325,-1.4267,-1.4224,-1.4545,-1.4771,-1.4766,-1.5022,-1.5192,-1.5192,-1.5164,-1.5162,-1.5171,-1.5208,-1.5188,-1.5117,-1.5176,-1.5246,-1.5304,-1.5356,-1.5389,-1.5361,-1.5312,-1.371,-1.0518,-0.3451,-0.3213,-0.9428,-1.2319,-1.309,-1.2128,-1.4076,-1.6192,-1.7765,-0.9296,-0.571,-0.5533,-0.3548,-0.1637,0.0,0.0,0.0,0.0,0.0,0.0,0.0,0.0,0.0,0.0,0.0,0.0,0.0,0.0,0.0,0.0,0.0,-0.5662,-1.1577,-1.1577,-1.3026,-1.448,-1.4544,-1.5318,-1.6265,-1.7079,-1.775,-1.8199,-1.8188,-1.8232,-1.813,-1.7648,-1.7449,-1.7113,-1.6355,-1.6517,-1.5713,-1.2979,-1.562,-1.741,-1.6753,-1.6243,-1.5942,-1.5903,-1.5815,-1.5624,-1.5285,-1.7248,-1.8549,-1.8925,-1.9821,-2.0299,-2.0302,-2.005,-1.9881,-1.979,-1.9173,-1.8789,-1.8604,-1.8848,-1.8694,-1.8284,-1.9031,-1.8919,-1.826,-1.8655,-1.8361,-1.7593,-1.687,-1.6117,-1.5138,-1.2542,-1.1358,-1.0356,-1.1612,-1.2018,-1.2461,-1.3276,-1.2959,-1.2603,-1.2661,-1.3358,-1.3904,-1.3961,-1.4571,-1.499,-1.499,-1.4886,-1.4908,-1.5158,-1.5124,-1.5108,-1.5177,-1.5124,-1.5106,-1.5173,-1.53,-1.5179,-1.4775,-1.5176,-1.4987,-1.4141,-0.4643,0.0,-0.0101,-0.4664,-0.7156,-0.7966,-1.1792,-1.3488,-1.3568,-1.4686,-1.5171,-1.4764,-0.9829,-0.5071,-0.0864,-0.0237,0.0,-0.0085,-0.0703,-0.0931,-0.0838,-0.0212,-0.0211,-0.0413,-0.0101,0.0,0.0,0.0,0.0,-0.0135,-0.0762,-0.3978,-0.7095,-0.6774,-1.0549,-1.4413,-1.4659,-1.528,-1.6104,-1.7144,-1.7769,-1.8309,-1.8861,-1.8735,-1.8332,-1.7659,-1.7222,-1.6867,-1.649,-1.6564,-1.6701,-1.6799,-1.7603,-1.7927,-1.7322,-1.6425,-1.5901,-1.5954,-1.5853,-1.5806,-1.5884,-1.7465,-1.8817,-1.9784,-2.0071,-2.0215,-2.0215,-1.9943,-1.979,-1.9712,-1.9145,-1.8735,-1.8506,-1.8832,-1.8562,-1.7812,-1.8275,-1.8088,-1.7423,-1.7232,-1.6712,-1.595,-1.5183,-1.4583,-1.3495,-0.8321,-0.643,-0.5691,-1.0649,-1.105,-1.1518,-1.2424,-1.2506,-1.2646,-1.327,-1.3539,-1.3911,-1.4581,-1.4822,-1.4918,-1.4918,-1.4324,-1.3925,-1.4004,-1.4582,-1.468,-1.4039,-1.4601,-1.4619,-1.3877,-1.4647,-1.3338,-0.958,-1.3379,-1.1522,-0.3595,-0.1182,0.0,-0.0028,-0.1187,-0.568,-1.2517,-0.624,-0.3429,-0.3925,-1.1469,-1.4874,-1.5093,-1.3833,-1.2084,-0.9476,-0.2608,0.0,-0.0898,-0.7765,-1.0229,-0.9179,-0.2312,-0.2278,-0.4513,-0.108,0.0,0.0,0.0,0.0,-0.1499,-0.8366,-1.1008,-1.0986,-0.756,-1.0271,-1.3801,-1.3867,-1.4384,-1.5054,-1.5882,-1.6756,-1.7624,-1.8517,-1.8262,-1.7922,-1.7945,-1.7384,-1.6675,-1.5995,-1.6702,-1.6959,-1.609,-1.756,-1.8441,-1.7946,-1.767,-1.7293,-1.6713,-1.6637,-1.6357,-1.578,-1.6667,-1.743,-1.7923,-1.883,-1.9309,-1.9309,-1.9744,-1.9637,-1.9022,-1.8039,-1.7526,-1.7443,-1.7134,-1.6543,-1.5842,-1.6853,-1.6783,-1.5965,-1.6502,-1.6164,-1.4896,-1.1248,-0.9201,-0.7743,-0.3217,-0.1309,-0.0289,-1.0321,-1.0376,-1.0544,-1.1423,-1.1376,-1.1358,-1.1803,-1.2546,-1.3187,-1.3574,-1.3942,-1.413,-1.4044,-1.3244,-1.2724,-1.2724,-1.3335,-1.3522,-1.3074,-1.3813,-1.4002,-1.3432,-1.2262,-1.1463,-1.1142,-0.9307,-0.5615,0.0,0.0,0.0,0.0,0.0,-0.2815,-0.7831,-0.6996,-0.4163,-0.0348,-0.563,-1.0482,-1.4466,-1.2971,-1.1974,-1.1003,-0.7404,-0.4647,-0.3367,-0.8499,-1.1669,-1.2619,-0.7486,-0.4812,-0.3834,-0.495,-0.4945,-0.4231,-0.2725,-0.3761,-0.6458,-1.1343,-1.2668,-1.2112,-0.9833,-1.1217,-1.3168,-1.3303,-1.3842,-1.4477,-1.498,-1.5805,-1.6623,-1.7292,-1.7194,-1.7001,-1.6963,-1.6719,-1.6416,-1.6071,-1.6817,-1.7268,-1.6892,-1.8139,-1.8838,-1.8375,-1.8077,-1.7515,-1.6525,-1.6109,-1.5496,-1.4609,-1.4977,-1.5858,-1.7261,-1.7893,-1.8223,-1.8223,-1.8826,-1.8595,-1.7522,-1.7356,-1.699,-1.6409,-1.6238,-1.5709,-1.4997,-1.5753,-1.5596,-1.4841,-1.5411,-1.3924,-1.1045,-0.8568,-0.5848,-0.275,0.2041,0.3893,0.4676,-1.0131,-0.9831,-0.9672,-1.0394,-1.0105,-0.9803,-0.9947,-1.1212,-1.2135,-1.2085,-1.2649,-1.299,-1.2823,-1.2032,-1.1526,-1.1526,-1.1718,-1.1935,-1.2135,-1.2916,-1.3316,-1.3214,-1.0267,-0.9981,-1.2844,-0.4432,0.0,0.0,0.0,-0.0694,-0.199,-0.0635,-0.0752,-0.2393,-0.9255,-0.847,-0.1943,-0.1205,-0.5456,-1.2516,-1.046,-0.9586,-0.9743,-1.2005,-1.0349,-0.6923,-0.7311,-0.994,-1.3183,-1.2778,-0.7824,-0.2849,-0.8743,-1.036,-0.9503,-0.6585,-0.8482,-1.141,-1.1031,-1.1382,-1.1953,-1.2268,-1.2467,-1.2649,-1.2887,-1.342,-1.3974,-1.4358,-1.4991,-1.5563,-1.5884,-1.5976,-1.5884,-1.5479,-1.5608,-1.5824,-1.6076,-1.6638,-1.7264,-1.7889,-1.8559,-1.8868,-1.8541,-1.7959,-1.714,-1.6046,-1.5167,-1.4238,-1.3269,-1.3197,-1.4268,-1.6592,-1.6823,-1.6965,-1.7066,-1.7498,-1.7082,-1.5897,-1.6483,-1.6216,-1.5154,-1.5203,-1.4828,-1.4159,-1.4405,-1.4217,-1.372,-1.326,-1.056,-0.6587,-0.5237,-0.2174,0.2099,0.7301,0.9019,0.9341,-0.9274,-0.9236,-0.9272,-0.9627,-0.9615,-0.9811,-1.0608,-1.0867,-1.1204,-1.185,-1.1938,-1.1942,-1.1911,-1.1168,-1.069,-1.069,-1.0118,-1.0105,-1.0913,-1.2077,-1.2612,-1.2308,-1.3038,-0.9956,-0.2523,-0.0808,0.0,0.0,0.0,-0.3887,-1.1152,-0.3548,-0.4204,-1.1462,-0.5096,-0.5563,-1.0888,-0.6737,-0.5818,-0.7454,-1.1093,-1.224,-1.1745,-1.138,-1.1272,-1.1271,-1.1017,-1.1586,-1.2514,-1.2765,-1.1675,-0.9731,-0.691,-0.8282,-1.068,-0.948,-0.9638,-0.9692,-0.743,-0.9463,-1.2276,-1.2486,-1.2572,-1.261,-1.2649,-1.2756,-1.3091,-1.3979,-1.4507,-1.5002,-1.5562,-1.5394,-1.5048,-1.465,-1.4332,-1.4293,-1.466,-1.5389,-1.6113,-1.6764,-1.7251,-1.7705,-1.8145,-1.7518,-1.6878,-1.6279,-1.5176,-1.417,-1.3329,-1.2924,-1.3038,-1.3721,-1.469,-1.5454,-1.6029,-1.5887,-1.5648,-1.53,-1.4044,-1.3341,-1.3131,-1.2073,-1.1443,-1.1184,-1.1554,-1.1928,-1.1947,-0.8061,-0.6236,-0.5101,0.2773,0.6448,0.7831,1.2236,1.3759,1.3697,-0.9056,-0.9689,-1.0062,-0.9397,-0.9668,-1.0021,-1.0131,-1.0458,-1.0818,-1.1158,-1.1174,-1.1091,-1.0916,-1.0208,-0.9722,-0.9648,-0.9305,-0.9296,-0.9807,-1.0857,-1.0483,-0.8264,-0.9746,-0.9554,-0.7266,-0.4846,-0.3611,-0.3611,-0.3611,-0.5583,-0.9322,-0.7589,-0.7786,-0.9408,-0.5096,-0.5258,-0.8771,-0.8646,-0.8639,-0.8877,-1.0962,-1.179,-1.1709,-1.1134,-1.118,-1.1535,-1.1498,-1.16,-1.1758,-1.1727,-1.179,-1.1377,-0.8492,-0.8906,-1.0383,-1.0015,-1.0085,-1.0007,-0.8761,-0.9961,-1.1527,-1.1402,-1.1366,-1.1351,-1.1322,-1.1307,-1.1498,-1.2135,-1.2415,-1.2704,-1.3184,-1.3193,-1.3096,-1.3054,-1.3319,-1.3765,-1.4417,-1.471,-1.524,-1.6248,-1.5938,-1.5814,-1.6223,-1.5956,-1.5451,-1.4688,-1.4283,-1.3724,-1.297,-1.2716,-1.2597,-1.2601,-1.3058,-1.3438,-1.375,-1.3635,-1.2511,-1.0405,-1.0162,-0.9029,-0.7133,-0.6534,-0.6299,-0.6396,-0.731,-0.7335,-0.6583,-0.4824,-0.2049,0.1522,0.5938,0.9547,1.2475,1.4253,1.4677,1.4341,-0.901,-1.0027,-1.065,-0.9544,-0.9939,-1.0249,-0.9816,-1.0132,-1.0403,-1.0355,-1.0365,-1.0277,-1.0026,-0.9484,-0.9107,-0.9003,-0.8992,-0.9035,-0.9138,-0.982,-0.8904,-0.5956,-0.6353,-0.8444,-1.2277,-0.9658,-0.8191,-0.8066,-0.8066,-0.7834,-0.7466,-1.0697,-1.0435,-0.7237,-0.7117,-0.6705,-0.6307,-0.9359,-1.0685,-1.0786,-1.053,-1.0637,-1.0919,-1.0644,-1.0567,-1.0657,-1.0793,-1.0896,-1.0905,-1.06,-1.0787,-1.0969,-1.0088,-0.9843,-0.988,-0.9899,-1.0154,-1.0411,-1.0317,-1.0476,-1.0578,-1.0269,-1.0189,-1.0169,-1.0122,-1.0109,-1.0191,-1.0496,-1.0652,-1.0787,-1.0973,-1.1192,-1.135,-1.14,-1.2072,-1.2844,-1.3575,-1.3674,-1.4036,-1.5007,-1.4367,-1.3965,-1.4236,-1.417,-1.3893,-1.332,-1.3393,-1.3227,-1.2719,-1.2572,-1.2273,-1.175,-1.1734,-1.1578,-1.1287,-1.082,-0.8958,-0.5761,-0.6074,-0.4732,-0.1948,-0.1793,-0.177,-0.194,-0.2905,-0.2655,-0.1502,-0.0799,0.2509,0.7258,0.8538,1.1609,1.5272,1.4968,1.4541,1.4062,-0.8908,-0.9543,-1.0097,-1.012,-1.0275,-1.0433,-1.0513,-0.9996,-0.9581,-0.9581,-0.9475,-0.9392,-0.9373,-0.932,-0.9284,-0.9275,-0.9275,-0.9275,-0.9284,-0.9347,-0.923,-0.889,-0.6195,-0.6127,-0.9162,-1.1652,-1.2656,-1.2172,-1.2172,-1.2053,-1.1824,-1.1285,-1.1115,-1.1246,-1.0754,-1.0131,-0.9472,-0.9761,-0.9894,-0.9887,-0.9869,-0.9894,-0.9862,-0.9536,-0.9613,-0.985,-0.9561,-0.9652,-0.9912,-0.9887,-0.9697,-0.951,-0.9728,-0.9811,-0.983,-0.9887,-0.9925,-0.9861,-0.9488,-0.9639,-0.9869,-0.9843,-0.9843,-0.9843,-0.9837,-0.9831,-0.988,-1.0094,-1.0497,-1.0661,-1.0253,-1.0546,-1.0657,-1.0052,-1.0263,-1.0611,-1.0853,-1.156,-1.2058,-1.1946,-1.2285,-1.2641,-1.2915,-1.2614,-1.2711,-1.3514,-1.3019,-1.277,-1.2969,-1.2491,-1.1642,-1.0386,-1.0701,-1.0312,-0.9137,-0.7276,-0.5621,-0.4145,-0.2362,-0.1207,-0.0605,0.0055,0.0527,0.0815,0.1037,0.0957,0.1043,0.5847,0.7828,0.8267,1.2763,1.4734,1.5002,1.479,1.4487,1.408,-0.9863,-1.045,-1.0821,-1.0454,-1.0388,-1.0293,-0.9969,-0.9681,-0.9525,-0.9617,-0.9576,-0.9517,-0.9439,-0.9421,-0.9394,-0.9303,-0.9332,-0.935,-0.9303,-0.9385,-0.9359,-0.9213,-0.8127,-0.8303,-0.9919,-1.0912,-1.1508,-1.1661,-1.1581,-1.1538,-1.1482,-1.0666,-1.0477,-1.0812,-1.0273,-0.9828,-0.947,-0.9224,-0.9012,-0.8781,-0.8535,-0.8601,-0.8781,-0.8398,-0.8629,-0.9138,-0.8755,-0.9004,-0.948,-0.9022,-0.9087,-0.9339,-0.9221,-0.9354,-0.9557,-0.9581,-0.9587,-0.9496,-0.9093,-0.9427,-0.9766,-0.9283,-0.9171,-0.9064,-0.8607,-0.8496,-0.8517,-0.8587,-0.8751,-0.8826,-0.8581,-0.8708,-0.8722,-0.848,-0.899,-0.9339,-0.9043,-0.9641,-1.0024,-0.9886,-0.9852,-1.0012,-1.0413,-1.0782,-1.1234,-1.1755,-1.2524,-1.2902,-1.2757,-1.1779,-1.0526,-0.9009,-0.8301,-0.7715,-0.7236,-0.5516,-0.3462,-0.1063,-0.0296,0.1384,0.3837,0.4126,0.473,0.5548,0.5038,0.544,0.6592,0.8733,1.0096,1.1058,1.3434,1.4466,1.4586,1.4309,1.3897,1.3363,-1.009,-1.0676,-1.1004,-1.055,-1.0461,-1.0317,-0.9906,-0.9688,-0.9592,-0.9691,-0.9698,-0.9666,-0.9576,-0.9568,-0.9525,-0.9439,-0.9472,-0.9472,-0.943,-0.9511,-0.9478,-0.9275,-0.9331,-0.963,-1.0179,-1.0241,-1.04,-1.0697,-1.0785,-1.0801,-1.0706,-0.9987,-0.9711,-0.9778,-0.9376,-0.904,-0.8759,-0.8622,-0.8369,-0.8011,-0.7743,-0.78,-0.8011,-0.7743,-0.7982,-0.8433,-0.8135,-0.8473,-0.897,-0.8483,-0.8695,-0.9176,-0.9035,-0.9256,-0.9581,-0.9679,-0.9627,-0.9502,-0.9224,-0.9522,-0.9686,-0.8844,-0.8634,-0.8504,-0.8039,-0.7798,-0.7729,-0.7881,-0.7695,-0.7496,-0.7463,-0.7211,-0.7021,-0.7021,-0.744,-0.7602,-0.7114,-0.7613,-0.7916,-0.7656,-0.7689,-0.7905,-0.8334,-0.8994,-0.9641,-1.0149,-1.1115,-1.1353,-1.0649,-0.9606,-0.8271,-0.6604,-0.552,-0.4795,-0.4436,-0.3282,-0.1421,0.1077,0.1512,0.3238,0.6062,0.6062,0.6797,0.8058,0.7563,0.8402,1.0099,1.0511,1.1418,1.2598,1.3193,1.3479,1.3528,1.3341,1.2943,1.2424,-0.9284,-0.9901,-1.0399,-1.0399,-1.0514,-1.0586,-1.0586,-1.0076,-0.9698,-0.9698,-0.9698,-0.9698,-0.9698,-0.9698,-0.9698,-0.9698,-0.9698,-0.9698,-0.9698,-0.9698,-0.9615,-0.9419,-0.9341,-0.9303,-0.9303,-1.0023,-1.0207,-0.9794,-1.039,-1.0479,-1.0079,-0.9408,-0.8954,-0.8691,-0.8556,-0.8166,-0.7613,-0.808,-0.8057,-0.7691,-0.7695,-0.77,-0.77,-0.77,-0.7695,-0.7691,-0.7695,-0.7942,-0.8303,-0.8308,-0.8517,-0.8866,-0.9262,-0.9639,-0.997,-1.0304,-1.016,-0.9899,-0.9899,-0.9899,-0.9659,-0.8584,-0.8313,-0.8324,-0.8396,-0.8037,-0.7822,-0.8281,-0.7694,-0.7084,-0.7084,-0.6394,-0.5803,-0.5803,-0.553,-0.5229,-0.5019,-0.5499,-0.5671,-0.5077,-0.5888,-0.663,-0.6937,-0.7291,-0.7936,-0.8983,-0.8573,-0.7702,-0.6351,-0.5829,-0.4744,-0.2939,-0.2482,-0.1731,-0.0593,-0.0192,0.0636,0.1895,0.323,0.4295,0.5066,0.5097,0.6014,0.7625,0.8317,0.9409,1.0752,1.1422,1.198,1.2383,1.2389,1.2112,1.1703,1.1842,1.1688,1.1359,-1.0277,-1.0149,-1.0086,-1.0649,-1.0322,-0.9965,-0.9965,-0.9814,-0.9698,-0.9698,-0.9698,-0.9698,-0.9698,-0.9698,-0.9698,-0.9698,-0.9661,-0.9647,-0.9703,-0.9699,-0.9695,-0.9686,-0.9614,-0.9534,-0.9448,-0.9571,-0.952,-0.9312,-0.93,-0.9276,-0.9238,-0.8521,-0.8197,-0.8188,-0.7766,-0.7377,-0.7063,-0.7494,-0.7498,-0.7238,-0.7511,-0.7671,-0.769,-0.7661,-0.7472,-0.7308,-0.7427,-0.753,-0.764,-0.7984,-0.8321,-0.8686,-0.923,-0.9639,-0.9925,-1.0021,-0.997,-0.9899,-0.9899,-1.0065,-1.0053,-0.9283,-0.9079,-0.8955,-0.8429,-0.8217,-0.8006,-0.7583,-0.7264,-0.6935,-0.6366,-0.6056,-0.5681,-0.5058,-0.5067,-0.488,-0.4141,-0.4493,-0.4637,-0.4078,-0.4691,-0.5218,-0.5304,-0.5827,-0.6298,-0.6613,-0.632,-0.5795,-0.5081,-0.4176,-0.3116,-0.1813,-0.1382,-0.0849,-0.02,-0.0066,0.0364,0.1066,0.1459,0.2233,0.3376,0.3985,0.5144,0.6759,0.8092,0.9197,1.0149,1.1048,1.1497,1.1626,1.1525,1.1396,1.1284,1.1321,1.1548,1.1754,-1.0282,-0.9989,-0.9772,-1.0265,-0.9903,-0.9542,-0.9542,-0.9542,-0.9542,-0.9542,-0.9584,-0.9617,-0.9617,-0.9666,-0.9674,-0.9625,-0.9531,-0.9504,-0.9533,-0.9539,-0.9558,-0.9595,-0.9566,-0.9525,-0.9508,-0.9367,-0.9237,-0.9097,-0.8852,-0.8771,-0.8816,-0.8121,-0.7803,-0.779,-0.7732,-0.7563,-0.7366,-0.8054,-0.8259,-0.813,-0.8366,-0.842,-0.8324,-0.8297,-0.7939,-0.7467,-0.7582,-0.7571,-0.7526,-0.8026,-0.8485,-0.8916,-0.9294,-0.9534,-0.9718,-0.9873,-0.9995,-1.0091,-1.0091,-1.0335,-1.0508,-1.0084,-0.9771,-0.9493,-0.9197,-0.8805,-0.845,-0.8289,-0.7901,-0.7425,-0.6961,-0.6621,-0.615,-0.5393,-0.5257,-0.4903,-0.383,-0.3929,-0.3794,-0.306,-0.3486,-0.3752,-0.3561,-0.393,-0.403,-0.3643,-0.334,-0.2924,-0.2475,-0.1836,-0.1271,-0.0785,-0.0888,-0.0702,-0.0241,-0.0414,-0.0205,0.0437,0.0412,0.0933,0.1882,0.3077,0.4342,0.5672,0.7673,0.8923,0.9596,1.0444,1.0845,1.0931,1.0711,1.068,1.0761,1.0911,1.1256,1.1627,-0.9617,-0.9568,-0.9482,-0.9482,-0.9385,-0.9294,-0.9294,-0.9294,-0.9294,-0.9294,-0.9403,-0.9482,-0.9482,-0.9584,-0.9617,-0.9491,-0.9376,-0.9294,-0.9284,-0.9294,-0.9294,-0.9294,-0.9284,-0.9331,-0.9439,-0.9331,-0.9227,-0.9097,-0.8906,-0.8767,-0.8693,-0.8139,-0.7804,-0.7671,-0.8284,-0.843,-0.827,-0.9401,-0.9854,-0.9836,-0.9893,-0.9723,-0.9438,-0.945,-0.8886,-0.8085,-0.8102,-0.7923,-0.7804,-0.8335,-0.8957,-0.9528,-0.9455,-0.9481,-0.9581,-0.9867,-1.0185,-1.0445,-1.0445,-1.0702,-1.0961,-1.0944,-1.045,-1.0027,-1.0339,-0.9678,-0.9221,-0.9923,-0.9214,-0.8513,-0.8587,-0.7856,-0.7091,-0.6532,-0.595,-0.5194,-0.4047,-0.3714,-0.3199,-0.2141,-0.233,-0.2349,-0.1819,-0.1791,-0.1429,-0.0466,-0.01,0.0235,0.0644,0.0643,0.0371,-0.0167,-0.0903,-0.1099,-0.0721,-0.0905,-0.0675,0.0,0.0,0.022,0.0698,0.23,0.3473,0.4416,0.7021,0.8483,0.9123,0.9822,1.0242,1.0407,1.02,1.0174,1.0301,1.0736,1.1008,1.1226,-0.9358,-0.9367,-0.934,-0.934,-0.9312,-0.9294,-0.9294,-0.9294,-0.9294,-0.9294,-0.9322,-0.934,-0.934,-0.9367,-0.9376,-0.9349,-0.9312,-0.9256,-0.9148,-0.9246,-0.9294,-0.9294,-0.9198,-0.9081,-0.8953,-0.9071,-0.9128,-0.9097,-0.8951,-0.8812,-0.8693,-0.8567,-0.8624,-0.8841,-0.8979,-0.9016,-0.9027,-1.0129,-1.0377,-1.0082,-1.0717,-1.0745,-1.0409,-1.0509,-0.9843,-0.8855,-0.8872,-0.8431,-0.792,-0.8422,-0.9459,-1.049,-0.9944,-1.0141,-1.0545,-1.036,-1.0539,-1.0794,-1.0794,-1.1144,-1.1476,-1.1273,-1.1253,-1.1118,-1.0464,-1.0554,-1.0731,-1.065,-1.026,-0.9966,-1.0043,-0.9276,-0.8426,-0.7688,-0.6895,-0.5923,-0.46,-0.3953,-0.3203,-0.2138,-0.1763,-0.1387,-0.0786,-0.0451,0.0113,0.1056,0.0754,0.0528,0.0452,0.0075,-0.0597,-0.153,-0.1305,-0.1276,-0.1524,0.0228,0.0761,0.0,0.0,0.0039,0.0193,0.1238,0.2234,0.3282,0.5744,0.7548,0.8838,1.049,1.0953,1.0714,1.1492,1.1319,1.0727,1.1291,1.1706,1.1889,-0.9247,-0.9246,-0.9179,-0.9083,-0.9038,-0.8973,-0.888,-0.8868,-0.8868,-0.8868,-0.8926,-0.8968,-0.8968,-0.9074,-0.9124,-0.9064,-0.8947,-0.8877,-0.8902,-0.8979,-0.9013,-0.9013,-0.8946,-0.8807,-0.8607,-0.8718,-0.8807,-0.8902,-0.8902,-0.8832,-0.8693,-0.86,-0.8767,-0.9157,-0.9411,-0.976,-1.0211,-1.1085,-1.1394,-1.1321,-1.1754,-1.1427,-1.0706,-1.0778,-1.01,-0.9064,-0.8749,-0.8561,-0.8492,-0.8538,-0.9462,-1.0543,-1.0191,-1.034,-1.0616,-1.0636,-1.0852,-1.1087,-1.1087,-1.1401,-1.1702,-1.1571,-1.2006,-1.229,-1.1634,-1.1536,-1.1616,-1.1718,-1.1516,-1.1257,-1.1136,-1.0889,-1.039,-0.9468,-0.8614,-0.7547,-0.6176,-0.4872,-0.3733,-0.2732,-0.1915,-0.1011,0.0039,0.0507,0.0938,0.1409,0.1173,0.0976,0.0975,0.0503,0.0267,0.0336,0.0225,0.0492,0.1259,0.2493,0.2906,0.2445,0.1894,0.1684,0.1685,0.2688,0.3596,0.4471,0.6563,0.8174,0.9421,1.069,1.1191,1.1165,1.1419,1.1391,1.1203,1.1239,1.1727,1.2269,-0.9091,-0.9059,-0.8932,-0.8765,-0.8679,-0.86,-0.842,-0.8395,-0.8395,-0.8395,-0.8497,-0.8567,-0.8567,-0.8768,-0.8859,-0.8734,-0.8493,-0.8433,-0.8636,-0.8616,-0.8604,-0.8604,-0.8636,-0.8542,-0.8309,-0.8369,-0.8479,-0.8649,-0.8763,-0.8763,-0.8657,-0.86,-0.8849,-0.9375,-0.9926,-1.0626,-1.1411,-1.2062,-1.2443,-1.2602,-1.2649,-1.2037,-1.1066,-1.0855,-1.024,-0.9352,-0.8538,-0.8674,-0.92,-0.8921,-0.9597,-1.0551,-1.0443,-1.043,-1.0534,-1.0811,-1.1071,-1.1235,-1.128,-1.1534,-1.1791,-1.1844,-1.253,-1.3122,-1.2951,-1.2632,-1.2468,-1.2834,-1.2507,-1.2104,-1.1837,-1.1816,-1.1637,-1.0903,-1.0059,-0.9007,-0.7551,-0.5882,-0.4375,-0.3303,-0.2082,-0.0686,0.088,0.1251,0.1538,0.1893,0.1762,0.1836,0.2165,0.1714,0.1906,0.2931,0.2465,0.2964,0.4501,0.5023,0.5322,0.54,0.4619,0.4074,0.3824,0.4754,0.555,0.6315,0.7887,0.9197,1.0276,1.0987,1.1417,1.1591,1.1432,1.1435,1.1534,1.123,1.1741,1.2512,-0.8518,-0.8505,-0.8488,-0.8455,-0.8446,-0.8433,-0.8407,-0.8395,-0.8395,-0.8395,-0.842,-0.8425,-0.8425,-0.8455,-0.848,-0.8455,-0.8259,-0.8232,-0.842,-0.8272,-0.8177,-0.8177,-0.8353,-0.8261,-0.7882,-0.8221,-0.8407,-0.8433,-0.8459,-0.8459,-0.8449,-0.9004,-0.9635,-1.0336,-1.0983,-1.1576,-1.2099,-1.2652,-1.2786,-1.263,-1.2861,-1.284,-1.2578,-1.1524,-1.1031,-1.0726,-0.9301,-0.9213,-0.9817,-1.0068,-1.0792,-1.1512,-1.097,-1.0987,-1.1136,-1.0961,-1.092,-1.1001,-1.1242,-1.149,-1.177,-1.2072,-1.2421,-1.2824,-1.3298,-1.3889,-1.4116,-1.346,-1.2438,-1.1684,-1.1625,-1.0625,-0.9915,-1.0244,-0.9615,-0.8538,-0.7003,-0.609,-0.4814,-0.2856,-0.1194,0.0501,0.224,0.1995,0.2483,0.4347,0.3684,0.3552,0.4407,0.3887,0.3472,0.315,0.4375,0.4758,0.4171,0.6707,0.7551,0.6661,0.7086,0.6457,0.4902,0.5057,0.5686,0.6794,0.798,0.9348,1.0819,1.2235,1.2372,1.185,1.339,1.2981,1.1603,1.2203,1.2699,1.2913,-0.8382,-0.8395,-0.8322,-0.8106,-0.8057,-0.7994,-0.776,-0.7731,-0.7781,-0.7933,-0.7947,-0.7997,-0.8109,-0.8025,-0.7989,-0.8057,-0.7774,-0.768,-0.7889,-0.7824,-0.776,-0.776,-0.7853,-0.7767,-0.7464,-0.7643,-0.7803,-0.7947,-0.8256,-0.8348,-0.824,-0.8533,-0.9203,-1.0177,-1.0468,-1.1204,-1.2218,-1.2451,-1.2561,-1.261,-1.2732,-1.2553,-1.2146,-1.1459,-1.1194,-1.1098,-1.0262,-1.0065,-1.0225,-1.0516,-1.1155,-1.1732,-1.1272,-1.1189,-1.1242,-1.0984,-1.0733,-1.0652,-1.1019,-1.1053,-1.0982,-1.1052,-1.1586,-1.2049,-1.1821,-1.2031,-1.2399,-1.273,-1.1636,-1.0603,-1.0463,-0.9469,-0.8692,-0.8806,-0.7876,-0.6855,-0.5929,-0.5129,-0.4053,-0.2419,-0.1197,0.029,0.2237,0.2879,0.3749,0.5099,0.4831,0.4804,0.543,0.4986,0.5271,0.6527,0.6566,0.7106,0.8097,0.8704,0.8539,0.7635,0.8534,0.829,0.71,0.6737,0.7334,0.8723,0.9205,1.0308,1.1801,1.2495,1.2696,1.2574,1.3129,1.2594,1.161,1.1936,1.236,1.2671]},{"header":{"parameterUnit":"m.s-1","parameterCategory":1,"la1":30.6,"la2":28.766,"lo1":-90.7593,"lo2":-88.6598,"dx":0.0162,"dy":0.0183,"nx":116,"ny":114,"refTime":"2023-01-30T06:00:00:Z","depth":0,"parameterNumber":3,"parameterNumberName":"V-component_of_WINDS"},"data":[0.0,0.0,0.0,0.0,0.0,0.0,0.0,0.0,0.0,0.0,0.0,0.0,0.0,0.0,0.0,0.0,0.0,0.0,0.0,0.0,0.0,0.0,0.0,0.0,0.0,0.0,0.0,0.0,0.0,0.0,0.0,0.0,0.0,0.0,0.0,0.0,0.0,0.0,0.0,0.0,0.0,0.0,0.0,0.0,0.0,0.0,0.0,0.0,0.0,0.0,0.0,0.0,0.0,0.0,0.0,0.0,0.0,0.0,0.0,0.0,0.0,0.0,0.0,0.0,0.0,0.0,0.0,0.0,0.0,0.0,0.0,0.0,0.0,0.0,0.0,0.0,0.0,0.0,0.0,0.0,0.0,0.0,0.0,0.0,0.0,0.0,0.0,0.0,0.0,0.0,0.0,0.0,0.0,0.0,0.0,0.0,0.0,0.0,0.0,0.0,0.0,0.0,0.0,0.0,0.0,0.0,0.0,0.0,0.0,0.0,0.0,0.0,0.0,0.0,0.0,0.0,0.0,0.0,0.0,0.0,0.0,0.0,0.0,0.0,0.0,0.0,0.0,0.0,0.0,0.0,0.0,0.0,0.0,0.0,0.0,0.0,0.0,0.0,0.0,0.0,0.0,0.0,0.0,0.0,0.0,0.0,0.0,0.0,0.0,0.0,0.0,0.0,0.0,0.0,0.0,0.0,0.0,0.0,0.0,0.0,0.0,0.0,0.0,0.0,0.0,0.0,0.0,0.0,0.0,0.0,0.0,0.0,0.0,0.0,0.0,0.0,0.0,0.0,0.0,0.0,0.0,0.0,0.0,0.0,0.0,0.0,0.0,0.0,0.0,0.0,0.0,0.0,0.0,0.0,0.0,0.0,0.0,0.0,0.0,0.0,0.0,0.0,0.0,0.0,0.0,0.0,0.0,0.0,0.0,0.0,0.0,0.0,0.0,0.0,0.0,0.0,0.0,0.0,0.0,0.0,0.0,0.0,0.0,0.0,0.0,0.0,0.0,0.0,0.0,0.0,0.0,0.0,0.0,0.0,0.0,0.0,0.0,0.0,0.0,0.0,0.0,0.0,0.0,0.0,0.0,0.0,0.0,0.0,0.0,0.0,0.0,0.0,0.0,0.0,0.0,0.0,0.0,0.0,0.0,0.0,0.0,0.0,0.0,0.0,0.0,0.0,0.0,0.0,0.0,0.0,0.0,0.0,0.0,0.0,0.0,0.0,0.0,0.0,0.0,0.0,0.0,0.0,0.0,0.0,0.0,0.0,0.0,0.0,0.0,0.0,0.0,0.0,0.0,0.0,0.0,0.0,0.0,0.0,0.0,0.0,0.0,0.0,0.0,0.0,0.0,0.0,0.0,0.0,0.0,0.0,0.0,0.0,0.0,0.0,0.0,0.0,0.0,0.0,0.0,0.0,0.0,0.0,0.0,0.0,0.0,0.0,0.0,0.0,0.0,0.0,0.0,0.0,0.0,0.0,0.0,0.0,0.0,0.0,0.0,0.0,0.0,0.0,0.0,0.0,0.0,0.0,0.0,0.0,0.0,0.0,0.0,0.0,0.0,0.0,0.0,0.0,0.0,0.0,0.0,0.0,0.0,0.0,0.0,0.0,0.0,0.0,0.0,0.0,0.0,0.0,0.0,0.0,0.0,0.0,0.0,0.0,0.0,0.0,0.0,0.0,0.0,0.0,0.0,0.0,0.0,0.0,0.0,0.0,0.0,0.0,0.0,0.0,0.0,0.0,0.0,0.0,0.0,0.0,0.0,0.0,0.0,0.0,0.0,0.0,0.0,0.0,0.0,0.0,0.0,0.0,0.0,0.0,0.0,0.0,0.0,0.0,0.0,0.0,0.0,0.0,0.0,0.0,0.0,0.0,0.0,0.0,0.0,0.0,0.0,0.0,0.0,0.0,0.0,0.0,0.0,0.0,0.0,0.0,0.0,0.0,0.0,0.0,0.0,0.0,0.0,0.0,0.0,0.0,0.0,0.0,0.0,0.0,0.0,0.0,0.0,0.0,0.0,0.0,0.0,0.0,0.0,0.0,0.0,0.0,0.0,0.0,0.0,0.0,0.0,0.0,0.0,0.0,0.0,0.0,0.0,0.0,0.0,0.0,0.0,0.0,0.0,0.0,0.0,0.0,0.0,0.0,0.0,0.0,0.0,0.0,0.0,0.0,0.0,0.0,0.0,0.0,0.0,0.0,0.0,0.0,0.0,0.0,0.0,0.0,0.0,0.0,0.0,0.0,0.0,0.0,0.0,0.0,0.0,0.0,0.0,0.0,0.0,0.0,0.0,0.0,0.0,0.0,0.0,0.0,0.0,0.0,0.0,0.0,0.0,0.0,0.0,0.0,0.0,0.0,0.0,0.0,0.0,0.0,0.0,0.0,0.0,0.0,0.0,0.0,0.0,0.0,0.0,0.0,0.0,0.0,0.0,0.0,0.0,0.0,0.0,0.0,0.0,0.0,0.0,0.0,0.0,0.0,0.0,0.0,0.0,0.0,0.0,0.0,0.0,0.0,0.0,0.0,0.0,0.0,0.0,0.0,0.0,0.0,0.0,0.0,0.0,0.0,0.0,0.0,0.0,0.0,0.0,0.0,0.0,0.0,0.0,0.0,0.0,0.0,0.0,0.0,0.0,0.0,0.0,0.0,0.0,0.0,0.0,0.0,0.0,0.0,0.0,0.0,0.0,0.0,0.0,0.0,0.0,0.0,0.0,0.0,0.0,0.0,0.0,0.0,0.0,0.0,0.0,0.0,0.0,0.0,0.0,0.0,0.0,0.0,0.0,0.0,0.0,0.0,0.0,0.0,0.0,0.0,0.0,0.0,0.0,0.0,0.0,0.0,0.0,0.0,0.0,0.0,0.0,0.0,0.0,0.0,0.0,0.0,0.0,0.0,0.0,0.0,0.0,0.0,0.0,0.0,0.0,0.0,0.0,0.0,0.0,0.0,0.0,0.0,0.0,0.0,0.0,0.0,0.0,0.0,0.0,0.0,0.0,0.0,0.0,0.0,0.0,0.0,0.0,0.0,0.0,0.0,0.0,0.0,0.0,0.0,0.0,0.0,0.0,0.0,0.0,0.0,0.0,0.0,0.0,0.0,0.0,0.0,0.0,0.0,0.0,0.0,0.0,0.0,0.0,0.0,0.0,0.0,0.0,0.0,0.0,0.0,0.0,0.0,0.0,0.0,0.0,0.0,0.0,0.0,0.0,0.0,0.0,0.0,0.0,0.0,0.0,0.0,0.0,0.0,0.0,0.0,0.0,0.0,0.0,0.0,0.0,0.0,0.0,0.0,0.0,0.0,0.0,0.0,0.0,0.0,0.0,0.0,0.0,0.0,0.0,0.0,0.0,0.0,0.0,0.0,0.0,0.0,0.0,0.0,0.0,0.0,0.0,0.0,0.0,0.0,0.0,0.0,0.0,0.0,0.0,0.0,0.0,0.0,0.0,0.0,0.0,0.0,0.0,0.0,0.0,0.0,0.0,0.0,0.0,0.0,0.0,0.0,0.0,0.0,0.0,0.0,0.0,0.0,0.0,0.0,0.0,0.0,0.0,0.0,0.0,0.0,0.0,0.0,0.0,0.0,0.0,0.0,0.0,0.0,0.0,0.0,0.0,0.0,0.0,0.0,0.0,0.0,0.0,0.0,0.0,0.0,0.0,0.0,0.0,0.0,0.0,0.0,0.0,0.0,0.0,0.0,0.0,0.0,0.0,0.0,0.0,0.0,0.0,0.0,0.0,0.0,0.0,0.0,0.0,0.0,0.0,0.0,0.0,0.0,0.0,0.0,0.0,0.0,0.0,0.0,0.0,0.0,0.0,0.0,0.0,0.0,0.0,0.0,0.0,0.0,0.0,0.0,0.0,0.0,0.0,0.0,0.0,0.0,0.0,0.0,0.0,0.0,0.0,0.0,0.0,0.0,0.0,0.0,0.0,0.0,0.0,0.0,0.0,0.0,0.0,0.0,0.0,0.0,0.0,0.0,0.0,0.0,0.0,0.0,0.0,0.0,0.0,0.0,0.0,0.0,0.0,0.0,0.0,0.0,0.0,0.0,0.0,0.0,0.0,0.0,0.0,0.0,0.0,0.0,0.0,0.0,0.0,0.0,0.0,0.0,0.0,0.0,0.0,0.0,0.0,0.0,0.0,0.0,0.0,0.0,0.0,0.0,0.0,0.0,0.0,0.0,0.0,0.0,0.0,0.0,0.0,0.0,0.0,0.0,0.0,0.0,0.0,0.0,0.0,0.0,0.0,0.0,0.0,0.0,0.0,0.0,0.0,0.0,0.0,0.0,0.0,0.0,0.0,0.0,0.0,0.0,0.0,0.0,0.0,0.0,0.0,0.0,0.0,0.0,0.0,0.0,0.0,0.0,0.0,0.0,0.0,0.0,0.0,0.0,0.0,0.0,0.0,0.0,0.0,0.0,0.0,0.0,0.0,0.0,0.0,0.0,0.0,0.0,0.0,0.0,0.0,0.0,0.0,0.0,0.0,0.0,0.0,0.0,0.0,0.0,0.0,0.0,0.0,0.0,0.0,0.0,0.0,0.0,0.0,0.0,0.0,0.0,0.0,0.0,0.0,0.0,0.0,0.0,0.0,0.0,0.0,0.0,0.0,0.0,0.0,0.0,0.0,0.0,0.0,0.0,0.0,0.0,0.0,0.0,0.0,0.0,0.0,0.0,0.0,0.0,0.0,0.0,0.0,0.0,0.0,0.0,0.0,0.0,0.0,0.0,0.0,0.0,0.0,0.0,0.0,0.0,0.0,0.0,0.0,0.0,0.0,0.0,0.0,0.0,0.0,0.0,0.0,0.0,0.0,0.0,0.0,0.0,0.0,0.0,0.0,0.0,0.0,0.0,0.0,0.0,0.0,0.0,0.0,0.0,0.0,0.0,0.0,0.0,0.0,0.0,0.0,0.0,0.0,0.0,0.0,0.0,0.0,0.0,0.0,0.0,0.0,0.0,0.0,0.0,0.0,0.0,0.0,0.0,0.0,0.0,0.0,0.0,0.0,0.0,0.0,0.0,0.0,0.0,0.0,0.0,0.0,0.0,0.0,0.0,0.0,0.0,0.0,0.0,0.0,0.0,0.0,0.0,0.0,0.0,0.0,0.0,0.0,0.0,0.0,0.0,0.0,0.0,0.0,0.0,0.0,0.0,0.0,0.0,0.0,0.0,0.0,0.0,0.0,0.0,0.0,0.0,0.0,0.0,0.0,0.0,0.0,0.0,0.0,0.0,0.0,0.0,0.0,0.0,0.0,0.0,0.0,0.0,0.0,0.0,0.0,0.0,0.0,0.0,0.0,0.0,0.0,0.0,0.0,0.0,0.0,0.0,0.0,0.0,0.0,0.0,0.0,0.0,0.0,0.0,0.0,0.0,0.0,0.0,0.0,0.0,0.0,0.0,0.0,0.0,0.0,0.0,0.0,0.0,0.0,0.0,0.0,0.0,0.0,0.0,0.0,0.0,0.0,0.0,0.0,0.0,0.0,0.0,0.0,0.0,0.0,0.0,0.0,0.0,0.0,0.0,0.0,0.0,0.0,0.0,0.0,0.0,0.0,0.0,0.0,0.0,0.0,0.0,0.0,0.0,0.0,0.0,0.0,0.0,0.0,0.0,0.0,0.0,0.0,0.0,0.0,0.0,0.0,0.0,0.0,0.0,0.0,0.0,0.0,0.0,0.0,0.0,0.0,0.0,0.0,0.0,0.0,0.0,0.0,0.0,0.0,0.0,0.0,0.0,0.0,0.0,0.0,0.0,0.0,0.0,0.0,0.0,0.0,0.0,0.0,0.0,0.0,0.0,0.0,0.0,0.0,0.0,0.0,0.0,0.0,0.0,0.0,0.0,0.0,0.0,0.0,0.0,0.0,0.0,0.0,0.0,0.0,0.0,0.0,0.0,0.0,0.0,0.0,0.0,0.0,0.0,0.0,0.0,0.0,0.0,0.0,0.0,0.0,0.0,0.0,0.0,0.0,0.0,0.0,0.0,0.0,0.0,0.0,0.0,0.0,0.0,0.0,0.0,0.0,0.0,0.0,0.0,0.0,0.0,0.0,0.0,0.0,0.0,0.0,0.0,0.0,0.0,0.0,0.0,0.5931,0.5482,0.0,0.0,0.0,0.0,0.0,0.0,0.0,0.0,0.0,0.0,0.0,0.0,0.0,0.0,0.0,0.0,0.0,0.0,0.0,0.0,0.0,0.0,0.0,0.0,0.0,0.0,0.0,0.0,0.0,0.0,0.0,0.0,0.0,0.0,0.0,0.0,0.0,0.0,0.0,0.0,0.0,0.0,0.0,0.0,0.0,0.0,0.0,0.0,0.0,0.0,0.0,0.0,0.0,0.0,0.0,0.0,0.0,0.0,0.0,0.0,0.0,0.0,0.0,0.0,0.0,0.0,0.0,0.0,0.0,0.0,0.0,0.0,0.0,0.0,0.0,0.0,0.0,0.0,0.0,0.0,0.0,0.0,0.0,0.0,0.0,0.0,0.0,0.0,0.0,0.0,0.0,0.0,0.0,0.0,0.0,0.0,0.0,0.0,0.0,0.0,0.0,0.0,0.0,0.0,0.0,0.0,0.0,0.0,0.0,0.0,0.0,0.0,0.0,0.0,0.6357,0.5957,0.0,0.0,0.0,0.0,0.0,0.0,0.0,0.0,0.0,0.0,0.0,0.0,0.0,0.0,0.0,0.0,0.0,0.0,0.0,0.0,0.0,0.0,0.0,0.0,0.0,0.0,0.0,0.0,0.0,0.0,0.0,0.0,0.0,0.0,0.0,0.0,0.0,0.0,0.0,0.0,0.0,0.0,0.0,0.0,0.0,0.0,0.0,0.0,0.0,0.0,0.0,0.0,0.0,0.0,0.0,0.0,0.0,0.0,0.0,0.0,0.0,0.0,0.0,0.0,0.0,0.0,0.0,0.0,0.0,0.0,0.0,0.0,0.0,0.0,0.0,0.0,0.0,0.0,0.0,0.0,0.0,0.0,0.0,0.0,0.0,0.0,0.0,0.0,0.0,0.0,0.0,0.0,0.0,0.0,0.0,0.0,0.0,0.0,0.0,0.0,0.0,0.0,0.0,0.0,0.0,0.0,0.0,0.0,0.8619,0.8532,0.8633,0.8656,0.8376,0.7834,0.6515,0.6204,0.6595,0.6123,0.0,0.0,0.0,0.0,0.0,0.0,0.0,0.0,0.0,0.0,0.0,0.0,0.0,0.0,0.0,0.0,0.0,0.0,0.0,0.0,0.0,0.0,0.0,0.0,0.0,0.0,0.0,0.0,0.0,0.0,0.0,0.0,0.0,0.0,0.0,0.0,0.0,0.0,0.0,0.0,0.0,0.0,0.0,0.0,0.0,0.0,0.0,0.0,0.0,0.0,0.0,0.0,0.0,0.0,0.0,0.0,0.0,0.0,0.0,0.0,0.0,0.0,0.0,0.0,0.0,0.0,0.0,0.0,0.0,0.0,0.0,0.0,0.0,0.0,0.0,0.0,0.0,0.0,0.0,0.0,0.0,0.0,0.0,0.0,0.0,0.0,1.349,1.3371,0.0,0.0,0.0,0.0,0.0,0.0,0.0,0.0,0.0,0.0,0.0,0.0,0.0,0.977,0.927,0.918,0.9176,0.9242,0.9188,0.8747,0.7947,0.8061,0.7866,0.7436,0.6543,0.0,0.7062,0.6371,0.0,0.0,0.0,0.0,0.0,0.0,0.0,0.0,0.0,0.0,0.0,0.0,0.0,0.0,0.0,0.0,0.0,0.0,0.0,0.0,0.0,0.0,0.0,0.0,0.0,0.0,0.0,0.0,0.0,0.0,0.0,0.0,0.0,0.0,0.0,0.0,0.0,0.0,0.0,0.0,0.0,0.0,0.0,0.0,0.0,0.0,0.0,0.0,0.0,0.0,0.0,0.0,0.0,0.0,0.0,0.0,0.0,0.0,0.0,0.0,0.0,0.0,0.0,0.0,0.0,0.0,0.0,0.0,0.0,0.0,0.0,0.0,0.0,0.0,0.0,0.0,0.0,0.0,0.0,0.0,0.0,0.0,0.0,0.0,0.0,1.4243,1.382,1.3766,1.3953,1.4164,0.0,0.0,0.0,0.0,0.0,0.0,0.0,0.0,0.0,0.8916,0.9368,0.9545,0.9376,0.8803,0.8838,0.9473,0.8943,0.8614,0.8476,0.8216,0.7916,0.7553,0.7111,0.6895,0.6805,0.6655,0.6823,0.7018,0.0,0.0,0.0,0.0,0.267,0.263,0.0,0.0,0.0,0.0,0.0,0.0,0.0,0.0,0.0,0.0,0.0,0.0,0.0,0.0,0.0,0.0,0.0,0.0,0.0,0.0,0.0,0.0,0.0,0.0,0.0,0.0,0.0,0.0,0.0,0.0,0.0,0.0,0.0,0.0,0.0,0.0,0.0,0.0,0.0,0.0,0.0,0.0,0.0,0.0,0.0,0.0,0.0,0.0,0.0,0.0,0.0,0.0,0.0,0.0,0.0,0.0,0.0,0.0,0.0,0.0,0.0,0.0,0.0,0.0,0.0,0.0,0.0,0.0,0.0,0.0,0.0,0.0,0.0,0.0,0.0,0.0,0.0,1.3991,1.3799,1.3472,1.3904,1.4397,0.0,0.0,0.0,0.0,0.0,0.0,1.1155,1.0646,0.9927,0.9026,0.9271,0.9339,0.9186,0.8546,0.8639,0.9458,0.8825,0.8693,0.8912,0.8347,0.7949,0.7702,0.7269,0.6932,0.6674,0.6875,0.6778,0.6457,0.5965,0.5254,0.4422,0.3785,0.3586,0.3579,0.0,0.0,0.0,0.0,0.0,0.0,0.0,0.0,0.0,0.0,0.0,0.0,0.0,0.0,0.0,0.0,0.0,0.0,0.0,0.0,0.0,0.0,0.0,0.0,0.0,0.0,0.0,0.0,0.0,0.0,0.0,0.0,0.0,0.0,0.0,0.0,0.0,0.0,0.0,0.0,0.0,0.0,0.0,0.0,0.0,0.0,0.0,0.0,0.0,0.0,0.0,0.0,0.0,0.0,0.0,0.0,0.0,0.0,0.0,0.0,0.0,0.0,0.0,0.0,0.0,0.0,0.0,0.0,0.0,0.0,0.0,0.0,0.0,0.0,0.0,0.0,0.0,0.0,0.0,1.1702,1.2277,0.0,0.0,0.0,0.0,1.1877,1.1903,1.1516,1.0588,1.0967,1.0375,0.8501,0.931,0.9484,0.8926,0.9015,0.9066,0.9121,0.9349,0.9221,0.8806,0.8116,0.7817,0.7734,0.6521,0.6382,0.7048,0.6882,0.6697,0.6508,0.6524,0.6479,0.6244,0.5184,0.4699,0.436,0.0,0.0,0.0,0.0,0.0,0.0,0.0,0.0,0.0,0.0,0.0,0.0,0.0,0.0,0.0,0.0,0.0,0.0,0.0,0.0,0.0,0.0,0.0,0.0,0.0,0.0,0.0,0.0,0.0,0.0,0.0,0.0,0.0,0.0,0.0,0.0,0.0,0.0,0.0,0.0,0.0,0.0,0.0,0.0,0.0,0.0,0.0,0.0,0.0,0.0,0.0,0.0,0.0,0.0,0.0,0.0,0.0,0.0,0.0,0.0,0.0,0.0,0.0,0.0,0.0,0.0,0.0,0.0,0.0,0.0,0.0,0.0,0.0,0.0,0.0,0.0,0.0,0.0,0.0,1.3555,1.3628,0.0,1.3672,1.3431,1.3216,1.3121,1.2531,1.2025,1.1661,1.1505,1.1116,1.0421,1.0343,1.0199,0.9999,0.9244,0.891,0.9078,0.8828,0.8749,0.8714,0.8505,0.8244,0.8018,0.7565,0.7288,0.7082,0.6734,0.658,0.646,0.59,0.5585,0.5374,0.4974,0.4378,0.3689,0.0,0.0,0.0,0.0,0.0,0.0,0.0,0.0,0.0,0.0,0.0,0.0,0.0,0.0,0.0,0.0,0.0,0.0,0.0,0.0,0.0,0.0,0.0,0.0,0.0,0.0,0.0,0.0,0.0,0.0,0.0,0.0,0.0,0.0,0.0,0.0,0.0,0.0,0.0,0.0,0.0,0.0,1.3765,0.0,0.0,0.0,0.0,0.0,0.0,0.0,0.0,0.0,0.0,0.0,0.0,0.0,0.0,0.0,0.0,0.0,0.0,0.0,0.0,0.0,0.0,0.0,0.0,0.0,0.0,0.0,0.0,0.0,0.0,0.0,0.0,0.0,0.0,1.4789,1.4376,1.4706,1.4543,1.45,1.486,1.4238,1.3887,1.3948,1.3099,1.2566,1.2585,1.2079,1.1675,1.1394,1.0795,1.0406,1.0347,0.9202,0.8616,0.8688,0.8409,0.8356,0.8431,0.8303,0.8157,0.7912,0.7634,0.7267,0.6803,0.6386,0.6247,0.6222,0.5498,0.4913,0.4503,0.4287,0.3596,0.2768,0.0,0.0,0.0,0.0,0.0,0.0,0.0,0.0,0.0,0.0,0.0,0.0,0.0,0.0,0.0,0.0,0.0,0.0,0.0,0.0,0.0,0.0,0.0,0.0,0.0,0.0,0.0,0.0,0.0,0.0,0.0,0.0,0.0,0.0,0.0,0.0,0.0,0.0,0.0,0.0,0.0,0.0,1.4808,0.0,0.0,0.0,0.0,0.0,0.0,0.0,0.0,0.0,0.0,0.0,0.0,0.0,0.0,0.0,0.0,0.0,0.0,0.0,0.0,0.0,0.0,0.0,0.0,0.0,0.0,0.0,0.0,0.0,0.0,0.0,0.0,0.0,1.5855,1.479,1.4337,1.4872,1.4667,1.44,1.4172,1.3912,1.3885,1.4128,1.3523,1.3166,1.3242,1.2642,1.1974,1.1237,1.059,1.0081,0.981,0.886,0.8227,0.7882,0.8115,0.8098,0.7863,0.7555,0.7393,0.7378,0.6576,0.6275,0.6331,0.5872,0.5792,0.5866,0.5404,0.472,0.3947,0.3317,0.2566,0.18,0.0,0.0,0.0,0.0,0.0,0.0,0.0,0.0,0.0,0.0,0.0,0.0,0.0,0.0,0.0,0.0,0.0,0.0,0.0,0.0,0.0,0.0,0.0,0.0,0.0,0.0,0.0,0.0,0.0,0.0,0.0,0.0,0.0,0.0,0.0,0.0,0.0,0.0,0.0,0.0,0.0,0.0,1.5024,0.0,0.0,0.0,0.0,0.0,0.0,0.0,0.0,0.0,0.0,0.0,0.0,0.0,0.0,0.0,0.0,0.0,0.0,0.0,0.0,0.0,0.0,0.0,0.0,0.0,0.0,0.0,0.0,0.0,0.0,0.0,1.7049,1.7374,1.6411,1.5298,1.4803,1.5408,1.5042,1.4863,1.5201,1.5181,1.5189,1.5268,1.4623,1.4287,1.4289,1.3325,1.2397,1.1652,1.0963,1.037,0.981,0.886,0.8227,0.7878,0.7338,0.7132,0.7231,0.7165,0.7332,0.7735,0.7389,0.7323,0.7439,0.6316,0.5978,0.6113,0.5507,0.5137,0.4931,0.4722,0.4077,0.313,0.0,0.0,0.0,0.0,0.0,0.0,0.0,0.0,0.0,0.0,0.0,0.0,0.0,0.0,0.0,0.0,0.0,0.0,0.0,0.0,0.0,0.0,0.0,0.0,0.0,0.0,0.0,0.0,0.0,0.0,0.0,0.0,0.0,0.0,0.0,0.0,0.0,0.0,0.0,0.0,0.0,0.0,1.623,1.532,1.5888,1.7014,1.5797,1.5855,1.6385,1.5666,0.0,0.0,0.0,0.0,0.0,0.0,0.0,0.0,0.0,0.0,0.0,0.0,0.0,0.0,0.0,0.0,0.0,0.0,0.0,0.0,0.0,0.0,0.0,0.0,1.7128,1.7817,1.7274,1.6163,1.5543,1.5784,1.5768,1.5768,1.5808,1.6163,1.617,1.5562,1.5016,1.4606,1.4329,1.343,1.2559,1.1814,1.1166,1.0466,0.9814,0.8988,0.8407,0.8113,0.7477,0.7183,0.7204,0.7064,0.7179,0.7513,0.7413,0.7391,0.7348,0.6422,0.6033,0.5973,0.0,0.0,0.0,0.0,0.3353,0.2884,0.0,0.0,0.0,0.0,0.0,0.0,0.0,0.0,0.0,0.0,0.0,0.0,0.0,0.0,0.0,0.0,0.0,0.0,0.0,0.0,0.0,0.0,0.0,0.0,0.0,0.0,0.0,0.0,0.0,0.0,0.0,0.0,0.0,0.0,0.0,0.0,0.0,0.0,0.0,0.0,0.0,0.0,1.7808,1.7021,1.7594,1.8712,1.7902,1.7518,1.7276,1.6484,0.0,0.0,0.0,0.0,0.0,0.0,0.0,0.0,0.0,0.0,0.0,0.0,0.0,0.0,0.0,0.0,0.0,0.0,0.0,0.0,0.0,0.0,0.0,0.0,1.7641,1.8035,1.825,1.7273,1.6512,1.6277,1.6764,1.6863,1.621,1.686,1.6805,1.542,1.4935,1.443,1.3826,1.3243,0.0,0.0,0.0,1.0466,0.9814,0.9127,0.8631,0.837,0.794,0.7686,0.75,0.7072,0.6937,0.7017,0.6987,0.6844,0.6613,0.6327,0.6018,0.5647,0.493,0.4164,0.3306,0.2064,0.1748,0.1951,0.0,0.0,0.0,0.0,0.0,0.0,0.0,0.0,0.0,0.0,0.0,0.0,0.0,0.0,0.0,0.0,0.0,0.0,0.0,0.0,0.0,0.0,0.0,0.0,0.0,0.0,0.0,0.0,0.0,0.0,0.0,0.0,0.0,0.0,0.0,0.0,0.0,0.0,0.0,0.0,0.0,0.0,1.7864,1.753,1.8023,1.8668,1.7018,1.712,1.7791,1.6249,1.666,1.7614,1.6414,0.0,0.0,0.0,0.0,0.0,0.0,0.0,0.0,0.0,0.0,0.0,0.0,0.0,0.0,0.0,0.0,0.0,0.0,0.0,0.0,1.6871,1.7587,1.8069,1.856,1.8392,1.8109,1.7836,1.7478,1.7169,1.6906,1.7068,1.6638,1.54,1.4801,1.4253,1.3836,1.3243,1.2559,1.1814,1.1166,1.0466,0.9814,0.8919,0.843,0.8367,0.7345,0.0,0.7455,0.6687,0.6601,0.7007,0.6774,0.6774,0.6901,0.6411,0.6018,0.5647,0.5294,0.4823,0.4269,0.3686,0.3269,0.296,0.0,0.0,0.0,0.0,0.0,0.0,0.0,0.0,0.0,0.0,0.0,0.0,0.0,0.0,0.0,0.0,0.0,0.0,0.0,0.0,0.0,0.0,0.0,0.0,0.0,0.0,0.0,0.0,0.0,0.0,0.0,0.0,0.0,0.0,0.0,0.0,0.0,0.0,0.0,0.0,0.0,0.0,1.8428,1.8736,1.8934,1.8891,1.7648,1.7479,1.7619,1.603,1.6148,1.6747,1.5616,1.555,1.5634,0.0,0.0,0.0,0.0,0.0,0.0,0.0,0.0,0.0,0.0,0.0,0.0,0.0,0.0,1.5826,1.6109,0.0,1.6293,1.7406,1.8441,1.9053,1.9053,1.9679,1.9569,1.8084,1.764,1.7271,1.6846,1.6882,1.6317,1.4833,1.4532,1.4109,1.3402,1.306,1.2559,1.1814,1.1166,1.0466,0.9814,0.9009,0.8591,0.8587,0.784,0.7681,0.7913,0.7338,0.7209,0.7424,0.7325,0.7255,0.7201,0.6653,0.624,0.5922,0.581,0.5265,0.4535,0.3886,0.349,0.3247,0.0,0.0,0.0,0.0,0.0,0.0,0.0,0.0,0.0,0.0,0.0,0.0,0.0,0.0,0.0,0.0,0.0,0.0,0.0,0.0,0.0,0.0,0.0,0.0,0.0,0.0,0.0,0.0,0.0,0.0,0.0,0.0,0.0,0.0,0.0,0.0,0.0,0.0,0.0,0.0,0.0,0.0,1.8927,1.9513,1.9435,1.8869,1.8003,1.7386,1.6797,1.5501,1.5261,1.5342,1.4494,1.4547,1.4669,1.3463,1.3611,0.0,0.0,0.0,0.0,0.0,0.0,0.0,0.0,1.5808,1.623,1.7004,1.7172,1.727,1.7723,1.7564,1.7513,1.8086,1.9075,1.9669,1.9375,2.0234,2.0041,1.7775,1.7681,1.7523,1.6816,1.6738,1.601,1.4218,1.425,1.3921,1.2954,1.2881,1.2613,1.2026,1.1366,1.0661,1.0016,0.9312,0.891,0.8804,0.851,0.8424,0.8414,0.8066,0.7882,0.7878,0.7866,0.7699,0.7469,0.689,0.6503,0.6277,0.6277,0.5734,0.4805,0.3858,0.3477,0.334,0.0,0.0,0.0,0.0,0.0,0.0,0.0,0.0,0.0,0.0,0.0,0.0,0.0,0.0,0.0,0.0,0.0,0.0,0.0,0.0,0.0,0.0,0.0,0.0,0.0,0.0,0.0,0.0,0.0,0.0,0.0,0.0,0.0,0.0,0.0,0.0,0.0,0.0,0.0,0.0,0.0,0.0,1.8703,1.8556,1.8388,1.7983,1.618,1.5397,1.5066,1.4171,1.4255,1.4559,1.3561,1.3388,1.333,1.2363,0.0,1.2178,1.207,1.3185,1.4718,1.63,1.6348,1.6497,0.0,1.7848,1.759,1.9265,1.8726,1.8012,1.821,1.7797,1.7663,1.8427,1.8268,1.8314,1.9033,1.8872,1.8261,1.7165,1.796,1.828,1.7523,1.6874,1.5887,1.4194,1.4135,1.3763,1.292,1.2881,1.2876,1.2769,1.2084,1.1366,1.0712,1.0012,0.9413,0.8804,0.851,0.8424,0.8414,0.8066,0.7882,0.7868,0.7639,0.7543,0.7486,0.7108,0.68,0.6543,0.6543,0.6343,0.5877,0.4706,0.4065,0.3651,0.0,0.0,0.0,0.0,0.0,0.0,0.0,0.0,0.0,0.0,0.0,0.0,0.0,0.0,0.0,0.0,0.0,0.0,0.0,0.0,0.0,0.0,0.0,0.0,0.0,0.0,0.0,0.0,0.0,0.0,0.0,0.0,0.0,0.0,0.0,0.0,0.0,0.0,0.0,0.0,0.0,0.0,1.8681,1.7387,1.619,1.5099,1.4441,1.3783,0.0,0.0,1.1899,1.2469,1.1532,1.177,1.2199,1.1367,1.1161,0.0,1.1932,1.3232,1.4701,1.5804,1.6965,1.7976,1.8507,1.9086,1.9609,1.992,1.9991,1.9709,1.8819,1.8542,1.8432,1.8248,1.8469,1.8596,1.835,1.8405,1.8076,1.7087,1.6821,1.6544,1.6238,1.5758,1.5119,1.418,1.437,1.4145,1.3291,1.3247,1.313,1.2886,1.1787,1.1262,1.1362,0.9965,0.926,0.9361,0.8885,0.8627,0.8624,0.8497,0.844,0.8424,0.8126,0.8041,0.8017,0.7675,0.7371,0.7143,0.7143,0.6921,0.6504,0.526,0.4528,0.4037,0.0,0.0,0.0,0.0,0.0,0.0,0.0,0.0,0.0,0.0,0.0,0.0,0.0,0.0,0.0,0.0,0.0,0.0,0.0,0.0,0.0,0.0,0.0,0.0,0.0,0.0,0.0,0.0,0.0,0.0,0.0,0.0,0.0,0.0,0.0,0.0,0.0,0.0,0.0,0.0,0.0,0.0,1.7989,1.626,1.4428,1.2793,1.2794,1.2165,0.0,0.0,1.0357,1.0906,1.0185,1.0598,1.1203,1.0479,1.0309,1.0667,1.205,1.3361,1.4678,1.6109,1.7871,1.9308,1.9494,2.0429,2.1171,2.0813,2.1094,2.0878,1.9233,1.9133,1.8968,1.8009,1.8348,1.8459,1.761,1.77,1.741,1.6309,1.5342,1.4702,1.4578,1.459,1.4478,1.4107,1.4424,1.4336,1.3716,1.3569,1.3369,1.3061,1.1954,1.1525,1.1814,1.0364,0.9762,1.0068,0.9413,0.9057,0.9061,0.891,0.8808,0.8791,0.85,0.8424,0.8353,0.8053,0.7749,0.751,0.751,0.7285,0.6892,0.5879,0.5121,0.4502,0.0,0.0,0.0,0.0,0.0,0.0,0.0,0.0,0.0,0.0,0.0,0.0,0.0,0.0,0.0,0.0,0.0,0.0,0.0,0.0,0.0,0.0,0.0,0.0,0.0,0.0,0.0,0.0,0.0,0.0,0.0,0.0,0.0,0.0,0.0,0.0,0.0,0.0,0.0,0.0,0.0,0.0,1.6273,1.5232,1.3673,1.1942,1.1225,0.0,0.0,0.0,1.0479,1.0564,1.02,1.0247,0.0,0.9633,0.9487,0.0,0.0,1.3435,1.4687,1.7983,1.9251,2.0176,2.2143,2.2124,2.183,2.2401,2.2049,2.1087,1.9418,1.9074,1.8712,1.758,1.7468,1.7306,1.6792,1.6404,1.5704,1.4361,1.3831,1.3415,1.3003,1.3667,1.4092,1.4082,1.4092,1.4087,1.4063,1.373,1.3501,1.3491,1.3041,1.2505,1.1814,1.1765,1.1412,1.0767,1.0115,0.9766,0.9766,0.911,0.8808,0.8791,0.85,0.8424,0.8353,0.8053,0.7749,0.751,0.751,0.7285,0.6942,0.6677,0.5915,0.4956,0.0,0.0,0.0,0.0,0.0,0.0,0.0,0.0,0.0,0.0,0.0,0.0,0.0,0.0,0.0,0.0,0.0,0.0,0.0,0.0,0.0,0.0,0.0,0.0,0.0,0.0,0.0,0.0,0.0,0.0,0.0,0.0,0.0,0.0,0.0,0.0,0.0,0.0,0.0,0.0,0.0,0.0,1.6083,1.4046,1.252,1.1452,0.0,0.0,0.0,0.0,0.0,0.0,0.9262,0.0,0.0,1.0172,0.0,0.0,1.2722,1.4631,1.6595,1.8131,2.0116,2.1892,2.2566,2.3161,2.3325,2.2245,2.2193,2.1588,1.9133,1.9054,1.8892,1.7708,1.7861,1.7966,1.7507,1.7053,1.6437,1.5416,1.4682,1.4089,1.3748,1.3716,1.3833,1.4058,1.4399,1.4565,1.4565,1.4155,1.3799,1.352,1.2665,1.229,1.251,1.1575,1.1266,1.1462,1.0312,0.9814,0.9762,0.911,0.8808,0.8801,0.8704,0.8664,0.8654,0.8554,0.834,0.8098,0.7852,0.7585,0.7281,0.6984,0.6157,0.5138,0.0,0.0,0.0,0.0,0.0,0.0,0.0,0.0,0.0,0.0,0.0,0.0,0.0,0.0,0.0,0.0,0.0,0.0,0.0,0.0,0.0,0.0,0.0,0.0,0.0,0.0,0.0,0.0,0.0,0.0,0.0,0.0,0.0,0.0,0.0,0.0,0.0,0.0,0.0,0.0,0.0,0.0,1.5203,1.3631,1.2662,0.0,0.0,0.0,0.0,0.0,0.0,0.0,0.0,0.0,0.0,0.0,0.0,1.2243,1.3473,1.5577,1.7698,1.8696,2.0958,2.2891,2.275,2.3473,2.3591,2.1411,2.121,2.0704,1.8363,1.8115,1.8032,1.7344,1.7588,1.7866,1.7958,1.7419,1.703,1.6895,1.5886,1.5145,1.4839,1.438,1.4148,1.4331,1.4624,1.4853,1.5,1.46,1.417,1.3745,1.2878,1.2549,1.2881,1.1994,1.1629,1.1765,1.0918,1.0265,0.9766,0.9361,0.9008,0.8808,0.8808,0.8808,0.8808,0.8808,0.8637,0.8357,0.8163,0.7832,0.7503,0.7375,0.6597,0.5567,0.0,0.0,0.0,0.0,0.0,0.0,0.0,0.0,0.0,0.0,0.0,0.0,0.0,0.0,0.0,0.0,0.0,0.0,0.0,0.0,0.0,0.0,0.0,0.0,0.0,0.0,0.0,0.0,0.0,0.0,0.0,0.0,0.0,0.0,0.0,0.0,0.0,0.0,0.0,0.0,0.0,0.0,1.3771,1.3885,0.0,0.0,0.0,0.0,0.0,0.0,0.0,0.0,0.0,0.0,0.0,1.3041,1.2992,1.311,1.4632,1.6284,1.8024,1.9711,2.1758,2.3218,2.2764,2.2957,2.2562,2.0175,1.9343,1.8589,1.7181,1.6614,1.6454,1.6621,1.6688,1.7107,1.8215,1.7605,1.7401,1.8549,1.7423,1.6501,1.6283,1.5706,1.5247,1.5038,1.4861,1.4971,1.5391,1.5015,1.4595,1.4126,1.3735,1.3315,1.2915,1.2891,1.2559,1.1868,1.1814,1.1111,0.9913,0.9865,0.9514,0.891,0.891,0.8857,0.8857,0.8857,0.8692,0.8397,0.838,0.8071,0.759,0.7826,0.7192,0.6156,0.0,0.0,0.0,0.0,0.0,0.0,0.0,0.0,0.0,0.0,0.0,0.0,0.0,0.0,0.0,0.0,0.0,0.0,0.0,0.0,0.0,0.0,0.0,0.0,0.0,0.0,0.0,0.0,0.0,0.0,0.0,0.0,0.0,0.0,0.0,0.0,0.0,0.0,0.0,0.0,0.0,0.0,1.4479,0.0,0.0,0.0,0.0,0.0,0.0,0.0,0.0,0.0,0.0,1.4671,1.5034,1.537,1.548,1.5684,1.6464,1.7974,1.9458,2.0199,2.1507,2.2532,2.2432,2.1738,2.0819,1.9893,1.8912,1.7955,1.7201,1.7414,1.767,1.7465,1.7798,1.8449,1.9534,1.951,1.9502,1.9887,1.9288,1.8742,1.8512,1.7662,1.7258,1.7529,1.5859,1.4971,1.5391,1.5015,1.4731,1.4624,1.3896,1.3457,1.335,1.3037,1.2822,1.2608,1.2075,1.1616,1.1262,1.0762,1.0462,1.0312,1.0312,1.0016,0.9566,0.9566,0.9214,0.8674,0.8457,0.833,0.8126,0.7983,0.7316,0.6463,0.0,0.0,0.0,0.0,0.0,0.0,0.0,0.0,0.0,0.0,0.0,0.0,0.0,0.0,0.0,0.0,0.0,0.0,0.0,0.0,0.0,0.0,0.0,0.0,0.0,0.0,0.0,0.0,0.0,0.0,0.0,0.0,0.0,0.0,0.0,0.0,0.0,0.0,0.0,0.0,0.0,0.0,0.0,0.0,0.0,0.0,0.0,0.0,0.0,0.0,0.0,1.5549,1.6263,1.6852,1.7293,1.7509,1.7519,1.7545,1.8093,1.9415,2.0644,2.0512,2.1966,2.3051,2.1693,2.1011,2.0258,1.8913,1.8047,1.7356,1.6771,1.7089,1.7478,1.7556,1.7835,1.8612,2.0201,2.0201,2.0408,2.1486,2.0703,2.0072,1.9791,1.8846,1.8196,1.8092,1.6506,1.5664,1.5853,1.5357,1.4888,1.4512,1.4219,1.3975,1.3789,1.3184,1.2974,1.3154,1.2542,1.2133,1.1765,1.1412,1.1065,1.0813,1.0813,1.0568,1.0265,1.0265,0.9865,0.9246,0.9073,0.8781,0.837,0.833,0.7798,0.7161,0.0,0.0,0.0,0.0,0.0,0.0,0.0,0.0,0.0,0.0,0.0,0.0,0.0,0.0,0.0,0.0,0.0,0.0,0.0,0.0,0.0,0.0,0.0,0.0,0.0,0.0,0.0,0.0,0.0,0.0,0.0,0.0,0.0,0.0,0.0,0.0,0.0,0.0,0.0,0.0,0.0,0.0,0.0,0.0,0.0,0.0,0.0,0.0,0.0,0.0,1.6958,1.6824,1.8302,1.905,1.9364,1.9484,1.9223,1.905,1.9617,2.0728,2.1614,2.0939,2.2679,2.3772,2.0897,2.0463,2.0031,1.7782,1.7185,1.6879,1.6318,1.6484,1.6889,1.7416,1.749,1.821,2.0315,2.0181,2.0665,2.268,2.1713,2.0809,2.0565,1.9635,1.8791,1.8064,1.7229,1.6765,1.6652,1.5975,1.5147,1.4174,1.4621,1.4562,1.397,1.3342,1.3155,1.3423,1.3057,1.2559,1.1972,1.1972,1.1625,1.1074,1.1074,1.0969,1.0817,1.0914,1.0466,0.9814,0.9814,0.9296,0.8609,0.8766,0.846,0.7989,0.0,0.0,0.0,0.0,0.0,0.0,0.0,0.0,0.0,0.0,0.0,0.0,0.0,0.0,0.0,0.0,0.0,0.0,0.0,0.0,0.0,0.0,0.0,0.0,0.0,0.0,0.0,0.0,0.0,0.0,0.0,0.0,0.0,0.0,0.0,0.0,0.0,0.0,0.0,0.0,0.0,0.0,0.0,0.0,0.0,0.0,0.0,0.0,0.0,0.0,1.7676,1.8704,2.022,2.0916,2.116,2.1185,2.0909,2.0749,2.144,2.1813,2.2083,2.2272,2.2703,2.2602,2.0853,1.9459,1.8291,1.7457,1.7031,1.6772,1.677,1.7351,1.7868,1.8017,1.8067,1.8499,1.9773,2.0282,2.0828,2.1675,2.1926,2.1825,2.1344,2.1138,2.0778,2.0211,1.9024,1.8064,1.7413,1.6868,1.5896,1.4402,1.4889,1.4531,1.3101,1.3443,1.3412,1.2988,1.2915,1.2822,1.272,1.272,1.2666,1.252,1.252,1.1895,1.0864,1.1412,1.0914,0.9814,0.9814,0.9681,0.9489,0.8991,0.8591,0.8297,0.0,0.0,0.0,0.0,0.0,0.0,0.0,0.0,0.0,0.0,0.0,0.0,0.0,0.0,0.0,0.0,0.0,0.0,0.0,0.0,0.0,0.0,0.0,0.0,0.0,0.0,1.2763,1.2063,0.0,0.0,0.0,1.0018,1.0229,0.0,0.0,0.0,0.0,0.0,0.0,0.0,0.0,0.0,0.0,0.0,0.0,0.0,0.0,0.0,0.0,0.0,1.7077,1.7574,1.9858,2.1015,2.1537,2.1591,2.1732,2.2042,2.2823,2.3331,2.3472,2.2864,2.2878,2.2482,2.0176,1.8771,1.7823,1.7387,1.725,1.7245,1.7388,1.7801,1.8112,1.8203,1.7683,1.7909,1.9566,1.9811,2.0231,2.1355,2.1468,2.1349,2.1085,2.0784,2.0501,2.0231,1.963,1.8933,1.8226,1.7085,1.6212,1.5685,1.5201,1.4973,1.4911,1.4473,1.4226,1.4136,1.3623,1.3377,1.3372,1.3065,1.2881,1.2881,1.2881,1.2515,1.1895,1.2246,1.1783,1.0864,1.0864,1.0618,1.0265,0.9566,0.922,0.9072,0.0,0.0,0.0,0.0,0.0,0.0,0.0,0.0,0.0,0.0,0.0,0.0,0.0,0.0,0.0,0.0,0.0,0.0,0.0,0.0,0.0,0.0,0.0,0.0,0.0,0.0,0.0,1.2458,1.1863,0.0,0.0,0.0,0.0,0.0,1.1283,1.1578,0.0,0.0,0.0,0.0,0.0,1.4567,0.0,0.0,0.0,0.0,0.0,0.0,0.0,0.0,1.645,1.6356,1.8409,1.9929,2.099,2.1276,2.2126,2.316,2.4017,2.4739,2.4929,2.3552,2.3421,2.2862,1.9813,1.8678,1.8078,1.7525,1.7609,1.7861,1.8054,1.808,1.8104,1.8151,1.7321,1.7306,1.9039,1.9139,1.951,2.0809,2.0784,2.0668,2.0548,2.0181,1.9936,1.9811,1.9698,1.9317,1.8614,1.7219,1.6499,1.6514,1.5593,1.5489,1.6315,1.537,1.4981,1.5163,1.4368,1.4003,1.3956,1.3515,1.3296,1.3296,1.3152,1.3007,1.2856,1.2876,1.2456,1.1814,1.1814,1.1462,1.0914,1.0265,0.997,0.9785,0.0,0.0,0.0,0.0,0.0,0.0,0.0,0.0,0.0,0.0,0.0,0.0,0.0,0.0,0.0,0.0,0.0,0.0,0.0,0.0,0.0,0.0,0.0,0.0,0.0,0.0,0.0,1.2938,1.2813,0.0,0.0,0.0,0.0,0.0,0.0,1.3686,1.3652,0.0,0.0,0.0,0.0,0.0,0.0,0.0,0.0,0.0,0.0,0.0,0.0,0.0,0.0,1.717,1.6291,1.7452,1.9319,2.0318,2.2158,2.4101,2.5086,2.5721,2.588,2.5092,2.4649,2.3613,2.0581,1.9626,1.905,1.7963,1.7968,1.8243,1.8568,1.835,1.808,1.8102,1.7643,1.7375,1.7576,1.843,1.9039,1.919,2.0087,2.0457,1.9936,2.0313,2.037,1.9842,1.9365,1.8833,1.8278,1.7632,1.68,1.5723,1.6131,1.586,1.49,1.5306,1.5254,1.4765,1.4674,1.4612,1.4612,1.4566,1.452,1.452,1.3967,1.3379,1.2831,1.2852,1.2456,1.1814,1.1814,1.1765,1.1616,1.0965,1.0462,1.0185,0.0,0.0,0.0,0.0,0.0,0.0,0.0,0.0,0.0,0.0,0.0,0.0,0.0,0.0,0.0,0.0,0.0,0.0,0.0,0.0,0.0,0.0,0.0,0.0,0.0,0.0,1.358,1.341,1.3391,0.0,0.0,0.0,0.0,0.0,0.0,1.4225,1.4398,1.4753,0.0,0.0,0.0,0.0,0.0,0.0,0.0,0.0,0.0,0.0,1.6504,0.0,0.0,0.0,1.5006,1.5849,0.0,0.0,2.1634,2.3649,2.5332,2.631,2.6588,2.5403,2.4122,2.2558,2.0239,1.9256,1.8686,1.8145,1.8501,1.9008,1.9278,1.8638,1.8099,1.8099,0.0,0.0,1.7287,1.7457,1.789,1.8858,1.9415,1.971,1.9792,2.0012,1.9918,1.9378,1.8838,1.8292,1.7739,1.7815,1.7516,1.6718,1.6897,1.6801,1.6339,1.6178,1.6008,1.5788,1.5416,1.5231,1.5236,1.488,1.4703,1.4703,1.4474,1.3993,1.3416,1.3826,1.3579,1.2986,1.2986,1.2986,1.289,1.181,1.1316,1.1083,0.0,0.0,0.0,0.0,0.0,0.0,0.0,0.0,0.0,0.0,0.0,0.0,0.0,0.0,0.0,0.0,0.0,0.0,0.0,0.0,0.0,0.0,0.0,0.0,0.0,0.0,0.0,1.3841,1.4194,1.4161,0.0,0.0,1.4248,1.4217,0.0,0.0,0.0,0.0,0.0,0.0,0.0,0.0,0.0,0.0,0.0,0.0,0.0,0.0,0.0,0.0,0.0,0.0,0.0,0.0,0.0,0.0,2.0999,2.3331,2.5,2.609,2.6467,2.5195,2.3588,2.1813,1.9928,1.9085,1.8651,1.8438,1.8913,1.9456,1.9816,1.8909,1.8099,0.0,0.0,1.622,1.7011,1.6923,1.7212,1.8398,1.8687,1.8989,1.9522,1.9717,1.9648,1.929,1.875,1.8204,1.7658,1.799,1.7871,1.7149,1.7124,1.7124,1.7124,1.6722,1.6515,1.6472,1.6051,1.5864,1.5864,1.5421,1.5248,1.5197,1.5056,1.4601,1.4097,1.4514,1.4329,1.3821,1.4009,1.405,1.3951,1.2788,1.2416,1.2359,0.0,0.0,0.0,0.0,0.0,0.0,0.0,0.0,0.0,0.0,0.0,0.0,0.0,0.0,0.0,0.0,0.0,0.0,0.0,0.0,0.0,0.0,0.0,0.0,0.0,0.0,0.0,0.0,0.0,0.0,1.4323,1.5506,1.5581,1.4712,0.0,0.0,0.0,0.0,0.0,0.0,0.0,0.0,0.0,0.0,0.0,0.0,0.0,0.0,0.0,0.0,0.0,0.0,0.0,0.0,0.0,0.0,2.0319,2.3423,2.4043,2.4843,2.5348,2.4594,2.3354,2.1813,1.9928,1.9446,1.929,1.8965,1.9053,1.9433,2.0156,1.9096,1.8099,1.8099,1.7188,0.0,1.6528,1.7018,1.7382,1.7394,1.7884,1.843,1.8982,1.9503,1.9805,1.9792,1.9309,1.8781,1.8229,1.8204,1.7689,1.6566,1.6528,1.6528,1.6528,1.6515,1.6515,1.6515,1.6472,1.6479,1.6479,1.6472,1.6472,1.6429,1.5864,1.5231,1.4703,1.4703,1.4329,1.3868,1.4468,1.4703,1.4612,1.4003,1.3903,1.3986,0.0,0.0,0.0,0.0,0.0,0.0,0.0,0.0,0.0,0.0,0.0,0.0,0.0,0.0,0.0,0.0,0.0,0.0,0.0,0.0,0.0,0.0,0.0,0.0,0.0,0.0,0.0,0.0,0.0,0.0,0.0,0.0,1.5782,1.4976,1.5062,1.5134,0.0,0.0,0.0,0.0,0.0,0.0,0.0,0.0,0.0,0.0,0.0,0.0,0.0,0.0,0.0,0.0,0.0,0.0,0.0,0.0,0.0,0.0,2.294,2.3656,2.3737,2.3,2.1775,2.0371,1.9056,1.9081,1.9199,1.857,1.9231,1.9939,1.9899,1.9222,1.865,1.865,1.7747,0.0,1.7544,1.7435,1.7463,1.7878,1.8083,1.8273,1.8449,1.8618,1.8712,1.8712,1.821,1.7827,1.7652,1.7262,1.6886,1.6528,1.6898,1.6917,1.6515,1.6515,1.6515,1.6515,1.6515,1.6515,1.6515,1.6515,1.6515,1.6479,1.6287,1.587,1.5365,1.5738,1.5555,1.501,1.4827,1.4792,1.4699,1.4066,1.3928,1.3881,0.0,0.0,0.0,0.0,0.0,0.0,0.0,0.0,0.0,0.0,0.0,0.0,0.0,0.0,0.0,0.0,0.0,0.0,0.0,0.0,0.0,0.0,0.0,0.0,0.0,0.0,0.0,0.0,0.0,0.0,0.0,0.0,0.0,0.0,1.4886,1.4985,0.0,0.0,0.0,0.0,0.0,0.0,1.4125,0.0,0.0,0.0,0.0,0.0,0.0,0.0,0.0,0.0,0.0,0.0,0.0,0.0,0.0,0.0,0.0,2.2195,2.2229,2.175,2.0502,1.9185,1.8405,1.8597,1.8813,1.8383,1.9213,2.0027,1.9929,1.9369,1.8893,1.8893,1.8178,1.7706,1.8059,1.782,1.7726,1.8115,1.8187,1.8194,1.8194,1.8213,1.8204,1.8204,1.7884,1.7601,1.7394,1.7036,1.6748,1.6528,1.6861,1.6879,1.6515,1.6515,1.6595,1.6795,1.6595,1.6595,1.6795,1.6595,1.6515,1.6515,1.6515,1.6145,0.0,1.6238,1.6145,1.5578,1.526,1.515,1.5037,1.4236,1.4077,1.4169,0.0,0.0,0.0,0.0,0.0,0.0,0.0,0.0,0.0,0.0,0.0,0.0,0.0,0.0,0.0,0.0,0.0,0.0,0.0,0.0,0.0,0.0,0.0,0.0,0.0,0.0,0.0,0.0,1.6666,1.657,1.5837,0.0,0.0,0.0,0.0,0.0,0.0,0.0,0.0,0.0,0.0,0.0,0.0,0.0,0.0,0.0,0.0,0.0,0.0,0.0,0.0,0.0,0.0,0.0,0.0,0.0,0.0,0.0,0.0,0.0,0.0,2.0668,1.9495,1.8241,0.0,0.0,0.0,1.8393,1.9098,1.9811,2.0185,1.9535,1.8968,1.8968,1.8496,1.8178,1.8217,1.8178,1.8178,1.8178,1.8178,1.8193,1.8193,1.817,1.8144,1.8188,1.8103,1.7884,1.7407,1.7344,1.7074,1.6534,1.6515,1.6515,1.6515,1.6515,1.6752,1.7229,1.6795,1.6837,1.7271,1.6795,1.6558,1.6558,1.6515,1.6188,1.5726,1.6281,1.6164,1.5656,1.5666,1.5652,1.5511,1.4437,1.4374,1.4694,0.0,0.0,0.0,0.0,0.0,0.0,0.0,0.0,0.0,0.0,0.0,0.0,0.0,0.0,0.0,0.0,0.0,0.0,0.0,0.0,0.0,0.0,0.0,0.0,0.0,0.0,0.0,1.5638,1.6255,1.6374,1.6038,1.6636,0.0,0.0,0.0,0.0,0.0,0.0,0.0,0.0,0.0,0.0,0.0,0.0,0.0,0.0,1.6963,1.748,0.0,0.0,0.0,0.0,0.0,0.0,0.0,0.0,1.8807,0.0,0.0,0.0,0.0,0.0,0.0,0.0,0.0,0.0,0.0,0.0,0.0,0.0,0.0,1.9667,1.9522,1.9522,1.905,1.8848,1.9288,1.8968,1.8696,1.8696,1.8349,1.8119,1.8119,1.7767,1.7711,1.8174,1.7371,1.7055,1.7363,1.6961,1.666,1.6515,1.6515,1.6515,1.6515,1.6515,1.6558,1.6674,1.6993,1.7194,1.7312,1.7153,1.7111,1.707,1.6674,1.6423,1.6287,1.6429,1.6372,1.6107,1.5711,1.5307,1.4911,1.4616,1.4438,1.4261,0.0,0.0,0.0,0.0,0.0,0.0,0.0,0.0,0.0,0.0,0.0,0.0,0.0,0.0,0.0,0.0,0.0,0.0,0.0,0.0,0.0,0.0,0.0,0.0,0.0,0.0,0.0,0.0,0.0,1.4426,0.0,0.0,0.0,0.0,0.0,0.0,0.0,0.0,0.0,0.0,1.0759,0.0,0.0,0.0,0.0,0.0,1.6518,1.7353,0.0,1.8778,1.9134,1.9274,0.0,0.0,0.0,0.0,1.8266,1.7877,1.7692,1.8029,1.8331,1.7898,1.7593,0.0,0.0,0.0,0.0,0.0,0.0,0.0,0.0,1.9522,1.9682,1.9682,1.945,1.9266,1.9235,1.9257,1.9134,1.8841,1.86,1.8458,1.8458,1.798,1.7685,1.778,1.7216,1.6893,1.6967,1.6691,1.6515,1.6515,1.6515,1.6515,1.6515,1.6515,1.6637,1.6873,1.6915,1.7188,1.7666,1.7429,1.7312,1.7271,1.6993,1.6716,1.6497,1.6245,1.6081,1.5954,1.5164,1.4794,1.4629,1.4165,1.4005,1.3976,0.0,0.0,0.0,0.0,0.0,0.0,0.0,0.0,0.0,0.0,0.0,0.0,0.0,0.0,0.0,0.0,0.0,0.0,0.0,0.0,0.0,0.0,0.0,0.0,0.0,0.0,0.0,0.0,0.0,0.0,0.0,0.0,0.0,0.0,0.0,0.0,0.0,0.0,0.0,0.0,0.9042,0.0,0.0,0.0,0.0,0.0,0.0,0.0,0.0,1.8454,1.8744,1.8889,1.8655,0.0,0.0,0.0,0.0,0.0,1.6101,1.7063,1.808,1.7663,1.7394,0.0,0.0,0.0,0.0,0.0,0.0,0.0,0.0,1.9266,1.9652,1.9548,1.9622,1.9523,1.9023,1.9366,1.948,1.8919,1.895,1.9013,1.9013,1.8535,1.802,1.7585,1.7388,1.7111,1.6637,1.6558,1.6515,1.6515,1.6515,1.6558,1.6637,1.6558,1.6716,1.7153,1.6873,1.7229,1.8099,1.7706,1.7498,1.7377,1.7296,1.6929,1.6382,1.5953,1.5745,1.5645,1.4764,1.4539,1.4672,1.3783,1.3709,1.3927,0.0,0.0,0.0,0.0,0.0,0.0,0.0,0.0,0.0,0.0,0.0,0.0,0.0,0.0,0.0,0.0,0.0,0.0,0.0,0.0,0.0,0.0,0.0,0.0,0.0,0.0,0.0,0.0,0.0,0.0,0.9599,0.9214,0.854,0.0,0.0,0.0,0.0,0.0,0.0,0.0,0.5776,0.0,0.0,0.0,0.0,0.0,0.0,0.0,0.0,1.6589,1.6967,1.7199,1.6835,0.0,0.0,0.0,0.0,0.0,1.3849,1.4694,1.5784,1.6058,1.6045,1.6177,0.0,0.0,0.0,0.0,0.0,0.0,0.0,1.8964,1.9503,1.8949,1.9323,1.9773,2.0012,1.9841,1.9645,1.9548,1.9579,1.9566,1.9566,1.9088,1.8734,1.865,1.782,1.7271,1.7194,1.6752,1.6515,1.6515,1.6515,1.6716,1.7153,1.6716,1.6558,1.6637,1.747,1.794,1.8099,1.8496,1.8328,1.7787,1.7339,1.6749,1.617,1.6083,1.5996,1.5932,1.5776,1.5414,1.501,1.488,1.4627,1.4406,0.0,0.0,0.0,0.0,0.0,0.0,0.0,0.0,0.0,0.0,0.0,0.0,0.0,0.0,0.0,0.0,0.0,0.0,0.0,0.0,0.0,0.0,0.0,0.0,0.0,0.0,0.0,0.0,0.0,0.6035,0.5702,0.4718,0.4595,0.5137,0.0,0.0,0.0,0.0,0.0,0.0,0.0,0.0,0.0,0.0,0.0,0.0,0.0,0.0,0.0,0.0,1.4441,1.4841,1.4506,0.0,0.0,0.0,0.0,0.0,1.2021,1.2522,1.3178,1.3189,1.4396,1.5618,1.579,1.5641,0.0,0.0,0.0,0.0,1.7935,1.8891,1.9685,1.9596,1.9829,1.9974,1.9849,1.9759,1.9555,1.9196,1.9465,1.9682,1.9682,1.9486,1.9207,1.893,1.8458,1.802,1.7747,1.7229,1.6915,1.6915,1.6915,1.6885,1.677,1.6803,1.6846,1.6951,1.7069,1.7266,1.7563,1.7731,1.7641,1.7333,1.7114,1.666,1.6097,1.5776,1.5647,1.5597,1.53,1.5162,1.5104,1.5104,1.4845,1.4533,0.0,0.0,0.0,0.0,0.0,0.0,0.0,0.0,0.0,0.0,0.0,0.0,0.0,0.0,0.0,0.0,0.0,0.0,0.0,0.0,0.0,0.0,0.0,0.0,0.0,0.0,0.0,0.4349,0.3218,0.2299,0.1615,0.0409,0.0649,0.0,0.0,0.0,0.0,0.0,0.0,0.0,0.0,0.0,0.0,0.0,0.0,0.0,0.0,0.0,0.0,0.0,0.0,0.0,0.0,0.0,0.0,0.0,1.0619,1.0205,0.9825,1.0227,1.0646,1.0403,0.0,1.4552,1.4383,1.445,1.4847,0.0,0.0,1.7476,1.7483,1.8431,1.9466,2.0118,2.018,2.0084,1.9811,1.9825,1.963,1.8994,1.9474,1.9811,1.9726,1.9682,1.9522,1.9125,1.8968,1.8662,1.8093,1.7537,1.7263,1.7263,1.709,1.691,1.6681,1.68,1.6919,1.7017,1.6649,1.6657,1.7047,1.7084,1.7002,1.6865,1.6865,1.6536,1.6013,1.5663,1.5505,1.5373,1.5046,1.5052,1.524,1.5095,1.499,1.4925,0.0,0.0,0.0,0.0,0.0,0.0,0.0,0.0,0.0,0.0,0.0,0.0,0.0,0.0,0.0,0.0,0.0,0.0,0.0,0.0,0.0,0.0,0.0,0.0,0.0,0.2179,0.2069,0.2017,0.1001,-0.0285,-0.1854,-0.2255,-0.2113,0.0,0.0,0.0,0.0,0.0,0.0,0.0,0.0,0.0,0.0,0.0,0.0,0.0,0.0,0.0,0.0,0.0,0.0,0.0,0.0,0.0,0.0,0.0,0.7628,0.712,0.6737,0.7588,0.8612,0.8517,1.0238,0.0,1.3104,1.3552,0.0,1.538,1.6937,1.7653,1.6464,1.7114,1.8338,1.9788,1.986,1.9992,2.0774,2.0526,2.0108,1.9687,1.9997,2.0124,1.9754,1.9682,1.9682,1.9646,1.9169,1.8596,1.7934,1.7413,1.7112,1.7112,1.6504,1.6713,1.7755,1.6714,1.6177,1.6182,1.6635,1.6865,1.6934,1.7427,1.729,1.6717,1.6717,1.6367,1.5839,1.6108,1.6029,1.5793,1.606,1.5996,1.5659,1.5054,1.539,1.6091,0.0,0.0,0.0,0.0,0.0,0.0,0.0,0.0,0.0,0.0,0.0,0.0,0.0,0.0,0.0,0.0,0.0,0.0,0.0,0.0,0.0,0.0,0.0,-0.039,0.0721,0.0355,0.0102,0.0106,-0.1336,-0.2561,-0.3571,-0.3595,0.0,0.0,0.0,0.0,0.0,0.0,0.0,0.0,0.0,0.0,0.0,0.0,0.0,0.0,0.0,0.0,0.0,0.0,0.0,0.0,0.0,0.0,0.0,0.0,0.0,0.5436,0.5295,0.6313,0.7317,0.6861,0.8197,0.0,0.0,1.2139,1.293,1.4093,1.5541,1.6665,1.7123,1.7715,1.847,1.9453,1.9862,2.0296,2.0894,2.0591,2.0356,2.0506,2.0632,2.0558,2.0131,1.9737,1.9372,1.9104,1.8508,1.8023,1.778,1.7255,1.6972,1.6972,1.674,1.6654,1.6716,1.6811,1.6638,1.6216,1.6286,1.6324,1.6343,1.6459,1.6376,1.6166,1.6347,1.6052,1.5453,1.578,1.5849,1.5754,1.5883,1.5573,1.5007,1.4776,1.5202,1.5848,0.0,0.0,0.0,0.0,0.0,0.0,0.0,0.0,0.0,0.0,0.0,0.0,0.0,0.0,0.0,0.0,0.0,0.0,0.0,0.0,0.0,0.0,0.0,-0.103,-0.0656,-0.1209,-0.1428,-0.1256,-0.3024,-0.401,-0.4259,0.0,0.0,0.0,0.0,0.0,0.0,0.0,0.0,0.0,0.0,0.0,0.0,0.0,0.0,0.0,0.0,0.0,0.0,0.0,0.0,0.0,0.0,0.0,0.0,0.0,0.0,0.0,0.4065,0.507,0.6065,0.0,0.0,0.0,0.9163,1.0487,1.1856,1.3083,1.4475,1.5905,1.7305,1.7837,1.8276,1.8959,1.9578,2.0141,2.0692,2.0624,2.0512,2.0439,2.0655,2.0559,1.989,1.934,1.8885,1.8566,1.8035,1.7608,1.7399,1.7146,1.7034,1.7034,1.691,1.6655,1.624,1.6601,1.6561,1.61,1.5749,1.5788,1.6256,1.6165,1.6001,1.5802,1.6254,1.603,1.5382,1.5727,1.5757,1.56,1.5538,1.5208,1.4742,1.453,1.4951,1.5588,0.0,0.0,0.0,0.0,0.0,0.0,0.0,0.0,0.0,0.0,0.0,0.0,0.0,0.0,0.0,0.0,0.0,0.0,0.0,0.0,0.0,0.0,0.0,-0.201,-0.201,-0.261,-0.2609,-0.201,-0.3802,-0.4476,-0.4015,0.0,0.0,0.0,0.0,0.0,0.0,0.0,0.0,0.0,0.0,0.0,-0.263,0.0,0.0,0.0,0.0,0.0,0.0,0.0,0.0,0.0,0.0,0.0,0.0,0.0,0.2203,0.2729,0.2837,0.3755,0.4768,0.505,0.0,0.0,0.6355,0.8602,1.1056,1.2512,1.4061,1.5538,1.6669,1.7092,1.7533,1.8283,1.8857,1.9449,2.0206,2.0699,2.0551,1.936,1.9971,2.0058,1.8917,1.8421,1.82,1.8192,1.7862,1.7391,1.6741,1.7074,1.7308,1.7308,1.6962,1.6755,1.668,1.6021,1.5695,1.5687,1.497,1.5392,1.6781,1.6773,1.6382,1.5735,1.647,1.6374,1.5703,1.6049,1.5864,1.5362,1.5178,1.5084,1.5013,1.4331,1.4727,1.5499,0.0,0.0,0.0,0.0,0.0,0.0,0.0,0.0,0.0,0.0,0.0,0.0,0.0,0.0,0.0,0.0,0.0,0.0,0.0,0.0,0.0,0.0,0.0,0.0,0.0,0.0,-0.3858,-0.3683,-0.4632,-0.5043,0.0,0.0,0.0,-0.4737,0.0,0.0,0.0,0.0,0.0,0.0,0.0,-0.371,-0.3433,0.0,0.0,0.0,0.0,0.0,0.0,0.0,0.0,0.0,0.0,0.0,0.0,0.0543,0.1023,0.1711,0.2267,0.3203,0.4145,0.4576,0.5386,0.5999,0.0,0.7181,0.0,1.1545,1.2524,1.3502,1.5372,1.5839,1.6334,1.7445,1.813,1.8773,1.956,1.9783,1.9854,1.9764,2.0,1.9802,1.894,1.8346,1.7861,1.7595,1.7053,1.6727,1.6761,1.6888,1.6942,1.6942,1.6338,1.6022,1.5989,1.6023,1.5856,1.5503,1.6022,1.6191,1.6006,1.5495,1.5137,1.4978,1.5965,1.5676,1.4544,1.5017,1.4864,1.439,1.4854,1.4716,1.4244,1.4147,1.4627,1.5249,0.0,0.0,0.0,0.0,0.0,0.0,0.0,0.0,0.0,0.0,0.0,0.0,0.0,0.0,0.0,0.0,0.0,0.0,0.0,0.0,0.0,0.0,0.0,0.0,0.0,-0.4785,-0.5198,0.0,0.0,0.0,0.0,0.0,0.0,-0.4611,0.0,0.0,0.0,0.0,0.0,0.0,0.0,-0.4458,-0.4053,0.0,0.0,0.0,0.0,0.0,0.0,0.0,0.0,0.0,0.0,0.0,0.0,0.0,0.0489,0.1124,0.1582,0.2385,0.3119,0.337,0.3977,0.4499,0.466,0.6161,0.8211,1.0406,1.1131,1.2,1.3922,1.4543,1.5178,1.6354,1.7228,1.8039,1.8823,1.9199,1.939,1.9327,1.9471,1.9261,1.8544,1.7989,1.7547,1.7324,1.6809,1.6588,1.6797,1.6942,1.701,1.701,1.6686,1.639,1.6103,1.609,1.5923,1.5597,1.5712,1.5644,1.5425,1.5288,1.5064,1.479,1.5449,1.5223,1.443,1.4836,1.4609,1.4069,1.4598,1.4527,1.4144,1.4295,1.4623,1.4974,0.0,0.0,0.0,0.0,0.0,0.0,0.0,0.0,0.0,0.0,0.0,0.0,0.0,0.0,0.0,0.0,0.0,0.0,0.0,0.0,0.0,0.0,0.0,0.0,0.0,0.0,0.0,0.0,0.0,0.0,0.0,0.0,-0.4703,-0.3709,0.0,-0.4885,0.0,0.0,0.0,0.0,0.0,-0.5043,-0.4476,-0.4432,0.0,0.0,0.0,0.0,0.0,0.0,0.0,0.0,0.0,0.0,-0.0111,-0.0108,0.0313,0.0855,0.0922,0.1386,0.1901,0.1859,0.2064,0.2511,0.3209,0.5458,0.7691,0.904,0.9841,1.0767,1.2257,1.3129,1.3976,1.4991,1.6069,1.7066,1.7838,1.8626,1.8919,1.828,1.8551,1.8506,1.7825,1.7471,1.7288,1.7288,1.7035,1.6866,1.6934,1.7224,1.7399,1.7422,1.7651,1.7436,1.6749,1.6284,1.5964,1.5799,1.4674,1.4415,1.4982,1.5663,1.5637,1.4991,1.4936,1.4945,1.5037,1.5147,1.4815,1.4257,1.4432,1.4497,1.452,1.4657,1.4727,1.4737,0.0,0.0,0.0,0.0,0.0,0.0,0.0,0.0,0.0,0.0,0.0,0.0,0.0,0.0,0.0,0.0,0.0,0.0,0.0,0.0,0.0,0.0,0.0,0.0,0.0,0.0,0.0,0.0,0.0,0.0,0.0,0.0,0.0,-0.4264,0.0,-0.5463,0.0,0.0,0.0,0.0,-0.605,-0.5653,-0.5043,-0.4563,-0.4347,0.0,0.0,0.0,0.0,0.0,0.0,0.0,-0.173,-0.1341,-0.0837,-0.0887,-0.0378,0.0315,0.0884,0.1094,0.1294,0.1974,0.2618,0.3098,0.3373,0.4336,0.5586,0.6948,0.7993,0.9045,1.0342,1.1138,1.1942,1.3094,1.4007,1.4932,1.586,1.6725,1.7342,1.7494,1.7815,1.7872,1.7464,1.7336,1.7288,1.7288,1.7215,1.7407,1.7863,1.7958,1.8099,1.8304,1.7825,1.7383,1.7026,1.7106,1.6509,1.5201,1.5704,1.5463,1.4596,1.4461,1.4618,1.4965,1.4394,1.4547,1.5189,1.4666,1.4437,1.4432,1.4476,1.4497,1.4522,1.4775,1.4859,1.4894,0.0,0.0,0.0,0.0,0.0,0.0,0.0,0.0,0.0,0.0,0.0,0.0,0.0,0.0,0.0,0.0,0.0,0.0,0.0,0.0,0.0,0.0,0.0,0.0,0.0,0.0,0.0,0.0,0.0,0.0,0.0,0.0,0.0,-0.4051,0.0,-0.5216,0.0,0.0,0.0,0.0,0.0,-0.6081,-0.5262,-0.4957,-0.448,-0.3851,-0.2755,0.0,0.0,0.0,0.0,0.0,0.0,0.0,-0.1523,-0.1551,-0.0987,-0.0351,0.0,0.0,0.0561,0.1021,0.1713,0.2243,0.2268,0.3155,0.4128,0.4807,0.5962,0.7215,0.8375,0.8997,0.9758,1.0942,1.1796,1.2756,1.3946,1.487,1.5643,1.6318,1.6905,1.7287,1.7288,1.7447,1.7549,1.7549,1.7647,1.7863,1.8187,1.7962,1.7869,1.8028,1.7277,1.6818,1.6675,1.6522,1.6005,1.5146,1.541,1.5185,1.4488,1.4282,1.44,1.4747,1.4346,1.4462,1.4888,1.4492,1.4408,1.4497,1.4497,1.4545,1.4614,1.4813,1.4919,1.4981,0.0,0.0,0.0,0.0,0.0,0.0,0.0,0.0,0.0,0.0,0.0,0.0,0.0,0.0,0.0,0.0,0.0,0.0,0.0,0.0,0.0,0.0,0.0,0.0,0.0,0.0,0.0,0.0,0.0,0.0,0.0,0.0,0.0,-0.3794,0.0,0.0,0.0,0.0,0.0,0.0,0.0,0.0,-0.5561,-0.526,-0.4615,-0.3815,-0.3131,-0.2953,-0.3001,-0.2489,0.0,0.0,0.0,0.0,-0.2163,-0.2186,-0.1616,0.0,0.0,-0.0439,0.0045,0.0142,0.0732,0.126,0.1252,0.2361,0.3357,0.3155,0.4379,0.5739,0.6472,0.7097,0.7808,0.8771,0.9544,1.0555,1.1943,1.2844,1.3768,1.4805,1.5751,1.6521,1.7012,1.7454,1.7735,1.7789,1.7886,1.7976,1.8049,1.7511,1.7232,1.7319,1.6672,1.6302,1.6252,1.5798,1.5486,1.5291,1.4769,1.4497,1.4497,1.4497,1.4497,1.4497,1.4497,1.4497,1.4508,1.4522,1.4522,1.4499,1.4556,1.4614,1.4718,1.4858,1.4948,1.5019,0.0,0.0,0.0,0.0,0.0,0.0,0.0,0.0,0.0,0.0,0.0,0.0,0.0,0.0,0.0,0.0,0.0,0.0,0.0,0.0,0.0,0.0,0.0,0.0,0.0,0.0,0.0,0.0,0.0,0.0,0.0,0.0,0.0,0.0,0.0,0.0,0.0,0.0,0.0,0.0,0.0,0.0,0.0,0.0,0.0,0.0,0.0,0.0,-0.3603,-0.2997,-0.3318,0.0,0.0,0.0,-0.2952,-0.2794,-0.2249,0.0,0.0,0.0,0.0136,0.066,0.1337,0.1886,0.1859,0.2934,0.3744,0.319,0.4358,0.5436,0.5198,0.6014,0.6788,0.6958,0.7507,0.8364,0.9654,1.045,1.1411,1.2902,1.4135,1.5203,1.6009,1.6848,1.7502,1.7789,1.7245,1.7082,1.7486,1.6826,1.6608,1.6958,1.6862,1.6695,1.6458,1.6609,1.6214,1.5291,1.4769,1.4497,1.4497,1.4497,1.4497,1.4497,1.4497,1.4497,1.4508,1.4634,1.4603,1.4522,1.4756,1.4794,1.4718,1.4923,1.499,1.5026,0.0,0.0,0.0,0.0,0.0,0.0,0.0,0.0,0.0,0.0,0.0,0.0,0.0,0.0,0.0,0.0,0.0,0.0,0.0,0.0,0.0,0.0,0.0,0.0,0.0,0.0,0.0,0.0,0.0,0.0,0.0,-0.6504,-0.5608,0.0,0.0,0.0,0.0,0.0,0.0,0.0,0.0,0.0,0.0,0.0,0.0,0.0,0.0,0.0,-0.3855,-0.3349,-0.3717,-0.4343,-0.4142,0.0,0.0,0.0,-0.2884,0.0,-0.1475,-0.092,-0.0434,-0.0088,0.0677,0.1394,0.1402,0.2434,0.3308,0.2967,0.3852,0.4608,0.4512,0.4931,0.5343,0.5719,0.5917,0.6534,0.7979,0.8569,0.9441,1.0994,1.2372,1.3637,1.4783,1.5494,1.6185,1.6864,1.665,1.657,1.6781,1.6261,1.6032,1.6221,1.587,1.5611,1.5499,1.5681,1.5507,1.4958,1.4655,1.4497,1.4497,1.4497,1.4497,1.4497,1.4497,1.4497,1.4508,1.4636,1.4614,1.4531,1.4794,1.4859,1.4832,1.4945,1.5052,1.5124,0.0,0.0,0.0,0.0,0.0,0.0,0.0,0.0,0.0,0.0,0.0,0.0,0.0,0.0,0.0,0.0,0.0,0.0,0.0,0.0,0.0,0.0,0.0,0.0,0.0,0.0,0.0,0.0,0.0,0.0,-0.7769,-0.702,-0.5906,0.0,-0.4675,0.0,0.0,0.0,0.0,0.0,0.0,0.0,0.0,0.0,0.0,0.0,0.0,0.0,-0.365,-0.3354,-0.3663,-0.4157,-0.4085,-0.4031,0.0,0.0,0.0,-0.2567,-0.202,-0.1491,-0.1062,-0.0756,0.0,0.0708,0.0858,0.1918,0.2807,0.2667,0.3325,0.3955,0.4053,0.4112,0.4289,0.4742,0.4853,0.5305,0.6609,0.7105,0.7866,0.9312,1.0693,1.2092,1.3463,1.4203,1.4976,1.597,1.5863,1.5809,1.5959,1.5513,1.5309,1.544,1.4961,1.4727,1.4756,1.485,1.485,1.4756,1.4655,1.4602,1.4602,1.4567,1.4556,1.4556,1.4511,1.4497,1.4508,1.4636,1.4614,1.4522,1.4813,1.492,1.4912,1.5009,1.5111,1.5199,0.0,0.0,0.0,0.0,0.0,0.0,0.0,0.0,0.0,0.0,0.0,0.0,0.0,0.0,0.0,0.0,0.0,0.0,0.0,0.0,0.0,0.0,0.0,0.0,0.0,0.0,0.0,0.0,0.0,0.0,-0.8077,-0.7175,-0.6539,-0.6018,-0.4798,-0.4622,-0.5292,0.0,0.0,0.0,0.0,0.0,0.0,0.0,0.0,0.0,0.0,-0.2235,-0.2773,-0.289,-0.3052,-0.3259,-0.3664,-0.3909,-0.3963,0.0,0.0,0.0,-0.2665,-0.2222,-0.1585,-0.0885,-0.0334,0.0207,0.0754,0.1836,0.266,0.2531,0.3102,0.3648,0.379,0.3934,0.4031,0.4029,0.443,0.4916,0.5506,0.598,0.6722,0.7859,0.9256,1.0657,1.2075,1.3253,1.4411,1.5559,1.4754,1.4453,1.5046,1.4382,1.4237,1.4743,1.4726,1.4766,1.4895,1.4895,1.4895,1.4895,1.4877,1.4886,1.4868,1.4747,1.4688,1.4677,1.4556,1.4497,1.4508,1.4636,1.4614,1.4524,1.4872,1.4965,1.492,1.5117,1.5189,1.5199,0.0,0.0,0.0,0.0,0.0,0.0,0.0,0.0,0.0,0.0,0.0,0.0,0.0,0.0,0.0,0.0,0.0,0.0,0.0,0.0,0.0,0.0,0.0,0.0,0.0,0.0,0.0,0.0,0.0,-0.9299,-0.8774,-0.8101,-0.7425,-0.6731,-0.5301,-0.4986,-0.5538,-0.4552,0.0,0.0,0.0,0.0,0.0,0.0,0.0,-0.3766,-0.2755,-0.2553,-0.2872,-0.2982,-0.2823,-0.2718,-0.3732,-0.37,-0.3317,-0.3528,-0.3442,-0.3241,-0.3107,-0.2751,-0.2278,-0.1791,-0.1061,-0.0288,0.0315,0.1301,0.2215,0.2541,0.3055,0.3476,0.3627,0.4099,0.448,0.4544,0.494,0.5411,0.6,0.6159,0.6477,0.7238,0.8102,0.9084,1.0266,1.1242,1.2237,1.3331,1.3517,1.3727,1.4023,1.4071,1.4239,1.4558,1.4737,1.4911,1.509,1.5004,1.4954,1.4964,1.4919,1.4904,1.4904,1.485,1.4832,1.4832,1.4785,1.4655,1.452,1.4746,1.4747,1.4647,1.4896,1.4992,1.4979,1.5143,1.5233,1.526,0.0,0.0,0.0,0.0,0.0,0.0,0.0,0.0,0.0,0.0,0.0,0.0,0.0,0.0,0.0,0.0,0.0,0.0,0.0,0.0,0.0,0.0,0.0,0.0,0.0,0.0,0.0,0.0,0.0,0.0,0.0,-0.9037,-0.8489,-0.792,-0.6497,-0.5779,0.0,0.0,0.0,-0.6227,0.0,0.0,-0.524,0.0,-0.3808,-0.3599,-0.2541,-0.236,-0.2573,-0.2484,-0.2172,-0.2039,-0.3364,-0.3587,-0.3485,-0.4029,0.0,0.0,-0.3744,0.0,-0.3084,-0.2626,-0.1852,-0.1062,-0.045,0.0412,0.1221,0.1743,0.2221,0.2638,0.293,0.3664,0.4341,0.4679,0.5121,0.5663,0.6244,0.6412,0.6601,0.694,0.753,0.8307,0.9301,0.9982,1.0841,1.2109,1.2642,1.3066,1.3472,1.3874,1.4239,1.4558,1.4776,1.4968,1.5133,1.5042,1.5019,1.5075,1.5021,1.5002,1.5002,1.4951,1.4935,1.4935,1.4935,1.4822,1.4644,1.4785,1.4813,1.4785,1.4855,1.4945,1.5012,1.5095,1.5188,1.526,0.0,0.0,0.0,0.0,0.0,0.0,0.0,0.0,0.0,0.0,0.0,0.0,0.0,0.0,0.0,0.0,0.0,0.0,0.0,0.0,0.0,0.0,0.0,0.0,0.0,0.0,0.0,0.0,0.0,0.0,0.0,0.0,-0.9732,0.0,-0.84,-0.6932,-0.5404,0.0,-0.5781,-0.6102,0.0,-0.4857,-0.5261,-0.3586,-0.3392,-0.3756,-0.1807,-0.1507,-0.1908,-0.1308,-0.1109,-0.1304,-0.2501,-0.3592,-0.4528,-0.5132,0.0,0.0,0.0,0.0,0.0,-0.3315,-0.2671,-0.2073,-0.145,-0.0866,-0.0323,0.0108,0.0675,0.1241,0.1705,0.2599,0.3522,0.423,0.4894,0.5505,0.6124,0.6631,0.6969,0.6979,0.7489,0.8256,0.9231,0.9587,1.0437,1.2002,1.2107,1.2504,1.3432,1.3745,1.4139,1.4677,1.4813,1.4909,1.498,1.499,1.5049,1.5183,1.5193,1.5193,1.5193,1.5059,1.4997,1.5004,1.4997,1.4964,1.4886,1.4766,1.4785,1.4895,1.4747,1.4821,1.4997,1.5004,1.5079,1.5199,0.0,0.0,0.0,0.0,0.0,0.0,0.0,0.0,0.0,0.0,0.0,0.0,0.0,0.0,0.0,0.0,0.0,0.0,0.0,0.0,0.0,0.0,0.0,0.0,0.0,0.0,0.0,0.0,0.0,0.0,0.0,0.0,0.0,0.0,-0.9005,-0.8472,-0.7668,-0.6462,0.0,-0.6221,-0.5361,-0.4905,-0.4644,-0.4153,-0.3877,-0.3561,-0.2585,-0.207,-0.1833,-0.1786,-0.1103,-0.0573,-0.2246,-0.3595,0.0,-0.5176,0.0,0.0,-0.5089,0.0,0.0,0.0,0.0,0.0,-0.1949,-0.1417,-0.0825,0.0036,0.0621,0.1118,0.1701,0.2299,0.2909,0.3499,0.4389,0.5245,0.5908,0.6094,0.6249,0.641,0.6898,0.7252,0.7288,0.8482,0.9576,1.041,1.1292,1.2179,1.3015,1.3596,1.4002,1.4268,1.4306,1.4379,1.449,1.4644,1.4728,1.4774,1.4908,1.4986,1.4986,1.4935,1.4948,1.4997,1.495,1.4942,1.4971,1.4876,1.4877,1.4895,1.4747,1.4785,1.4935,1.4985,1.5043,1.5143,0.0,0.0,0.0,0.0,0.0,0.0,0.0,0.0,0.0,0.0,0.0,0.0,0.0,0.0,0.0,0.0,0.0,0.0,0.0,0.0,0.0,0.0,0.0,0.0,0.0,0.0,0.0,0.0,0.0,0.0,0.0,0.0,0.0,0.0,0.0,0.0,0.0,0.0,0.0,-0.6518,-0.565,-0.5011,-0.4508,-0.4239,-0.3973,-0.366,-0.3038,-0.2396,-0.184,-0.164,-0.1004,-0.0642,-0.2209,-0.3373,-0.4392,-0.5387,-0.5655,0.0,0.0,0.0,0.0,-0.4112,0.0,0.0,-0.2395,-0.2073,-0.1716,-0.1146,-0.0489,0.0035,0.0254,0.0733,0.1319,0.2082,0.2731,0.3686,0.5259,0.5514,0.5636,0.589,0.6234,0.6524,0.6706,0.7731,0.8829,0.9872,1.0877,1.1964,1.3134,1.3644,1.3938,1.4016,1.4016,1.4089,1.4222,1.4334,1.4421,1.4484,1.4909,1.4989,1.4794,1.5085,1.5132,1.4965,1.492,1.4919,1.494,1.4776,1.4766,1.4877,1.4687,1.4727,1.4903,1.4942,1.4997,1.5076,0.0,0.0,0.0,0.0,0.0,0.0,0.0,0.0,0.0,0.0,0.0,0.0,0.0,0.0,0.0,0.0,0.0,0.0,0.0,0.0,0.0,0.0,0.0,0.0,0.0,0.0,0.0,0.0,0.0,0.0,0.0,0.0,0.0,0.0,0.0,0.0,0.0,0.0,-0.8561,-0.6984,-0.5848,-0.5112,-0.4596,-0.3997,-0.3853,-0.3853,-0.3053,-0.241,-0.187,-0.106,-0.0854,-0.1118,-0.2322,-0.3068,-0.3849,-0.565,-0.6181,0.0,0.0,0.0,0.0,-0.432,-0.3544,0.0,-0.2786,-0.2746,-0.2714,-0.2712,-0.204,-0.1539,-0.1774,-0.1341,-0.0603,0.0367,0.0601,0.1584,0.432,0.4772,0.4945,0.5308,0.5487,0.5904,0.6684,0.7202,0.8214,0.99,1.0763,1.1874,1.3409,1.3691,1.3804,1.3804,1.3766,1.3809,1.3935,1.4074,1.4188,1.4329,1.5109,1.5233,1.4808,1.5355,1.5371,1.4926,1.4832,1.4804,1.4785,1.4477,1.454,1.4822,1.4549,1.4583,1.4785,1.4822,1.4891,1.4973,0.0,0.0,0.0,0.0,0.0,0.0,0.0,0.0,0.0,0.0,0.0,0.0,0.0,0.0,0.0,0.0,0.0,0.0,0.0,0.0,0.0,-0.8921,-0.952,-0.9922,0.0,0.0,0.0,0.0,0.0,0.0,0.0,0.0,0.0,0.0,0.0,0.0,0.0,0.0,-0.8799,-0.7545,-0.6416,-0.5348,-0.4401,-0.3839,-0.3639,-0.3522,-0.2401,-0.1952,-0.1651,-0.0562,-0.0507,-0.1124,-0.231,-0.3051,-0.3849,-0.565,-0.6181,-0.6307,-0.6729,-0.6083,-0.5269,-0.5206,-0.4118,0.0,-0.317,-0.2939,-0.2711,-0.2702,-0.2565,-0.2331,-0.2027,-0.1559,-0.1062,-0.05,-0.01,0.0915,0.3145,0.3166,0.3259,0.4172,0.4711,0.5048,0.5209,0.6594,0.7916,0.891,1.0789,1.2174,1.2767,1.3035,1.3175,1.3175,1.2965,1.2868,1.289,1.3853,1.4341,1.4391,1.5516,1.5988,1.5876,1.5365,1.5142,1.5093,1.4404,1.4163,1.4238,1.4073,1.4197,1.4466,1.4139,1.4056,1.413,1.4398,1.4573,1.4719,0.0,0.0,0.0,0.0,0.0,0.0,0.0,0.0,0.0,0.0,0.0,0.0,0.0,0.0,0.0,0.0,0.0,0.0,0.0,0.0,-0.8695,-0.9391,-0.9865,-1.0261,-1.0596,0.0,0.0,0.0,0.0,0.0,0.0,0.0,0.0,0.0,0.0,0.0,0.0,0.0,-0.8924,-0.7349,-0.6761,-0.5879,-0.4783,-0.4224,-0.4008,-0.3831,-0.2673,-0.1874,-0.1216,-0.0284,-0.0426,-0.1108,-0.1748,-0.2524,-0.3556,-0.5246,-0.5741,-0.5913,-0.6764,-0.6383,-0.5711,-0.5533,-0.4676,0.0,0.0,-0.3235,-0.3136,-0.3327,-0.3679,-0.3737,-0.2885,-0.2552,-0.2156,-0.147,-0.1101,-0.0403,0.0998,0.1665,0.2487,0.3856,0.412,0.4517,0.528,0.6148,0.7361,0.9057,1.1012,1.2178,1.2341,1.2641,1.2797,1.2797,1.2676,1.2759,1.3091,1.3864,1.4333,1.4517,1.5662,1.6068,1.5804,1.5751,1.5505,1.5083,1.4645,1.4284,1.3984,1.3815,1.3849,1.3998,1.3924,1.3904,1.3933,1.4158,1.4395,1.4634,0.0,0.0,0.0,0.0,0.0,0.0,0.0,0.0,0.0,0.0,0.0,0.0,0.0,0.0,-0.7017,0.0,0.0,0.0,-0.7452,-0.7758,-0.84,-0.9349,0.0,-1.0317,-1.0791,0.0,0.0,0.0,0.0,0.0,0.0,0.0,0.0,0.0,0.0,0.0,0.0,0.0,-0.888,-0.6991,-0.7109,-0.6383,-0.5106,-0.4531,-0.4268,-0.4128,-0.2946,-0.1741,-0.0677,-0.0333,-0.0625,-0.1136,-0.1418,-0.2173,-0.3193,-0.4838,-0.5305,-0.5564,-0.6677,-0.6601,-0.6112,-0.5633,-0.505,-0.4419,0.0,0.0,0.0,-0.4056,-0.4669,-0.4858,-0.3791,-0.3597,-0.3288,-0.2343,-0.2128,-0.1824,-0.1034,0.0169,0.1514,0.3059,0.3352,0.3855,0.5048,0.5456,0.6685,0.9211,1.0758,1.1644,1.1794,1.2254,1.2486,1.2431,1.2447,1.2739,1.3332,1.3863,1.4336,1.4758,1.5796,1.6088,1.5687,1.6132,1.5837,1.4941,1.4844,1.4398,1.3715,1.361,1.3563,1.3579,1.3739,1.3798,1.3827,1.3953,1.4217,1.4525,-0.7716,-0.7994,0.0,0.0,0.0,0.0,0.0,0.0,0.0,0.0,0.0,0.0,-0.5564,-0.5524,-0.5333,-0.4792,-0.5395,-0.5854,-0.5948,-0.7298,-0.8151,-0.8345,-0.95,-1.0192,-1.0361,-1.0303,0.0,0.0,0.0,0.0,0.0,0.0,0.0,0.0,-1.0283,0.0,0.0,0.0,-0.8431,-0.7029,-0.7511,-0.6517,-0.4688,-0.4088,-0.3858,-0.37,-0.2394,-0.1117,-0.0181,-0.08,-0.1049,-0.1283,-0.2359,-0.2787,-0.3193,-0.4838,-0.5305,-0.5564,-0.6677,-0.6601,-0.6111,-0.578,-0.5137,-0.4533,-0.4186,0.0,-0.4056,-0.4441,0.0,-0.4538,-0.4023,0.0,0.0,-0.2927,-0.2997,-0.2784,-0.182,-0.151,-0.0942,0.0296,0.1794,0.2626,0.2463,0.4114,0.6053,0.8117,0.9165,1.0027,1.0718,1.1719,1.2097,1.1806,1.1867,1.2074,1.2441,1.3667,1.4601,1.522,1.6241,1.6706,1.6618,1.604,1.5396,1.4716,1.4283,1.3731,1.3113,1.332,1.3421,1.3421,1.3454,1.3454,1.347,1.3617,1.387,1.4171,-0.8479,-0.8641,0.0,0.0,0.0,0.0,0.0,0.0,0.0,0.0,0.0,-0.5831,-0.4866,-0.4944,-0.4972,-0.4732,-0.4467,-0.4771,-0.5926,-0.6588,0.0,-0.7596,-0.9071,-0.9809,-0.9735,-0.9962,-1.0153,0.0,-1.0283,0.0,0.0,0.0,0.0,0.0,-1.0128,-0.9625,-0.9185,-0.9041,-0.7728,-0.5829,-0.6612,-0.5831,-0.4153,-0.4144,-0.3515,-0.2556,-0.202,-0.1251,-0.0584,-0.1005,-0.1374,-0.1755,-0.242,-0.2509,-0.2615,-0.3883,-0.4246,-0.4509,-0.5685,-0.5865,-0.5651,-0.5513,-0.5219,-0.5032,-0.5168,-0.4961,-0.4858,-0.5261,0.0,0.0,0.0,0.0,0.0,0.0,-0.325,-0.3082,-0.2618,-0.2677,-0.2002,0.0146,0.089,0.1521,0.2268,0.4009,0.5461,0.636,0.7092,0.8405,1.0498,1.0471,1.0648,1.1206,1.1575,1.2,1.2537,1.3597,1.435,1.4848,1.5458,1.577,1.5719,1.511,1.4656,1.4327,1.3772,1.3247,1.2778,1.2889,1.2944,1.2944,1.2944,1.313,1.3396,1.3286,1.3617,1.4055,-0.8913,0.0,0.0,0.0,0.0,0.0,0.0,0.0,0.0,-0.6448,-0.613,-0.5425,-0.4066,-0.4151,-0.4166,-0.3817,-0.3242,-0.3485,-0.4923,-0.5405,-0.5857,-0.6418,-0.8049,-0.8845,-0.8631,-0.922,-0.9649,0.0,0.0,0.0,0.0,0.0,0.0,0.0,0.0,-0.9638,-0.8926,-0.863,-0.7265,-0.5287,-0.5865,-0.5136,-0.3772,-0.3916,-0.3097,-0.1785,-0.1785,-0.1518,-0.121,-0.1541,-0.1938,-0.2304,-0.2685,-0.2554,-0.244,-0.3443,-0.3634,-0.3763,-0.4949,-0.5305,-0.5299,-0.5191,-0.5346,-0.5502,-0.5586,-0.5543,-0.5522,-0.5703,-0.5397,0.0,0.0,0.0,-0.4043,0.0,0.0,-0.3288,-0.333,-0.3513,-0.2812,-0.055,-0.0205,0.0483,0.2105,0.3215,0.4072,0.4747,0.5276,0.6477,0.8559,0.9191,0.9818,1.0473,1.1271,1.2,1.2571,1.3308,1.382,1.4082,1.4352,1.4457,1.4436,1.4206,1.3874,1.347,1.3273,1.2821,1.2257,1.2301,1.2329,1.2305,1.2078,1.2274,1.2693,1.2834,1.3183,1.3494,-0.8716,-0.9176,0.0,0.0,0.0,0.0,0.0,0.0,-0.7133,-0.6996,-0.6024,-0.467,-0.2956,-0.2742,-0.2319,-0.1139,-0.1516,-0.1884,-0.1925,-0.3509,-0.4457,-0.4474,-0.6174,-0.7033,-0.6972,-0.8055,-0.8641,0.0,0.0,0.0,0.0,0.0,0.0,0.0,-1.0971,-1.0323,-0.8758,-0.8093,-0.7134,-0.6024,-0.5671,-0.4752,-0.3557,-0.3126,-0.2447,-0.1785,-0.1785,-0.1785,-0.1885,-0.2615,-0.2844,-0.299,-0.3551,-0.3364,-0.306,-0.4089,-0.3944,-0.3763,-0.4949,-0.5305,-0.525,-0.4984,-0.5419,-0.5715,-0.5086,-0.5422,-0.5762,-0.5404,-0.4957,-0.4503,-0.4088,-0.3658,0.0,0.0,0.0,0.0,0.0,-0.3974,-0.3681,-0.2895,-0.1761,-0.0404,0.1283,0.0902,0.1448,0.3594,0.4069,0.4098,0.375,0.8072,1.0212,0.9466,1.091,1.1908,1.2316,1.2664,1.2916,1.304,1.3074,1.3074,1.3068,1.3585,1.3134,1.2001,1.2778,1.2438,1.1358,1.1548,1.1633,1.1552,1.0777,1.0634,1.1021,1.2189,1.246,1.2258,0.0,0.0,0.0,0.0,-0.8774,-0.8635,-0.7499,-0.669,-0.5989,-0.5343,-0.5298,-0.4628,-0.287,-0.2339,-0.1962,-0.1518,-0.1314,-0.138,-0.1788,-0.2732,-0.3096,-0.2703,-0.4585,-0.5508,-0.5267,-0.6907,-0.7698,-0.7457,0.0,0.0,0.0,0.0,0.0,0.0,0.0,-0.986,-0.9276,-0.8467,-0.6813,-0.4603,-0.3504,-0.2964,-0.2743,-0.2354,-0.2169,-0.2189,-0.2189,-0.2276,-0.2502,-0.3133,-0.3109,-0.2783,-0.3028,-0.2644,-0.2304,-0.3062,-0.3111,-0.3156,-0.3963,-0.4186,-0.4188,-0.4291,-0.447,-0.4712,-0.493,-0.4867,-0.4903,-0.5348,-0.4528,-0.3869,-0.4309,0.0,0.0,0.0,0.0,0.0,0.0,-0.3882,-0.3756,-0.3642,-0.2402,-0.1404,-0.0962,-0.0639,-0.0313,0.0024,0.0531,0.0683,0.0352,0.3835,0.6433,0.7693,0.9602,1.0824,1.1363,1.1836,1.192,1.1598,1.1231,1.1073,1.1099,1.1287,1.1083,1.0657,1.0883,1.0735,1.0339,1.0617,1.0742,1.071,1.0291,1.0427,1.0914,1.1311,1.1385,1.1321,-0.7945,-0.8325,0.0,-0.8586,-0.8347,-0.7812,-0.6858,-0.6065,-0.5269,-0.4502,-0.4737,-0.4409,-0.2874,-0.2339,-0.1961,-0.1518,-0.1126,-0.0973,-0.1144,-0.1931,-0.2116,-0.1507,-0.3191,-0.3929,-0.3485,-0.5159,-0.603,-0.6014,-0.793,-0.8753,0.0,0.0,0.0,0.0,0.0,-0.9746,-0.9461,-0.8518,-0.7032,-0.5106,-0.2753,-0.2048,-0.2406,-0.245,-0.2413,-0.2414,-0.25,-0.2722,-0.3078,-0.3488,-0.332,-0.3005,-0.3015,-0.259,-0.2262,-0.2833,-0.2853,-0.2853,-0.3442,-0.358,-0.3672,-0.392,-0.4115,-0.432,-0.4644,-0.4601,-0.4533,-0.4689,-0.3893,-0.3269,-0.3608,-0.3449,0.0,0.0,0.0,0.0,0.0,-0.4141,-0.4043,-0.4147,-0.3024,-0.2313,-0.2409,-0.1942,-0.1837,-0.2364,-0.1795,-0.153,-0.1752,0.1631,0.441,0.6237,0.8552,1.0051,1.0644,1.0804,1.0639,1.0113,0.9755,0.9598,0.9589,0.9785,0.9737,0.9504,0.9682,0.9608,0.9386,0.9647,0.9773,0.9723,0.9412,0.9602,1.0086,1.0442,1.0635,1.0784,-0.6986,-0.7759,-0.8211,-0.8227,-0.6826,-0.5812,-0.6101,-0.5698,-0.513,-0.4434,-0.4432,-0.4054,-0.2868,-0.2737,-0.2265,-0.104,-0.0962,-0.0729,-0.0095,-0.1141,-0.1543,-0.0897,-0.1997,-0.235,-0.1751,-0.2872,-0.3755,-0.4298,-0.6552,0.0,0.0,0.0,0.0,0.0,-1.0283,0.0,-0.9362,-0.8169,-0.7541,-0.6992,-0.3221,-0.1947,-0.239,-0.3244,-0.313,-0.2448,-0.2532,-0.2993,-0.358,-0.358,-0.358,-0.358,-0.358,-0.3214,-0.2853,-0.3442,-0.3214,-0.2853,-0.3442,-0.358,-0.3674,-0.3932,-0.4237,-0.445,-0.4231,-0.4494,-0.453,-0.3511,-0.3034,-0.2625,-0.2079,-0.1936,0.0,0.0,0.0,0.0,0.0,-0.4744,-0.4616,-0.4524,-0.3725,-0.3151,-0.3047,-0.2943,-0.3067,-0.3505,-0.2924,-0.2595,-0.2713,0.1218,0.3923,0.4877,0.7516,0.925,0.9944,0.9481,0.9027,0.859,0.8594,0.8594,0.8594,0.908,0.9053,0.8556,0.9165,0.9062,0.8536,0.8679,0.8728,0.8673,0.8196,0.8202,0.8622,0.9589,1.0207,1.0574,-0.7132,-0.7793,-0.8294,-0.8529,-0.7189,-0.5933,-0.5602,-0.5784,-0.5443,-0.4012,-0.492,-0.5111,-0.3534,-0.3314,-0.2811,-0.1676,-0.1975,-0.1793,-0.0728,-0.1387,-0.137,-0.0434,-0.1015,-0.1121,-0.0637,-0.2101,-0.2976,-0.3124,-0.5415,0.0,-0.7375,0.0,0.0,0.0,0.0,-1.02,-0.9888,-0.7018,-0.4322,-0.1887,-0.0868,-0.0525,-0.0839,-0.2822,-0.349,-0.3053,-0.1322,-0.1934,-0.358,-0.358,-0.358,-0.358,-0.358,-0.3488,-0.3398,-0.3534,-0.3488,-0.3398,-0.3578,-0.358,-0.3614,-0.3702,-0.3332,-0.309,-0.3626,-0.3083,-0.2679,-0.338,-0.2408,-0.1489,-0.1813,-0.1111,-0.1097,0.0,0.0,0.0,-0.5544,-0.5672,-0.5773,-0.5936,-0.5185,-0.4317,-0.3457,-0.2861,-0.2922,-0.3866,-0.4285,-0.4485,-0.4546,-0.3043,-0.1324,0.0611,0.2541,0.4471,0.6382,0.7109,0.7223,0.6793,0.7207,0.7227,0.6891,0.7844,0.8027,0.7586,0.7942,0.7799,0.7355,0.7812,0.7767,0.7487,0.7855,0.8202,0.8555,0.8964,0.9515,1.0116,-0.6778,-0.7652,-0.8035,-0.7786,-0.6684,-0.57,-0.5333,-0.5125,-0.4691,-0.3709,-0.4661,-0.4964,-0.3755,-0.3566,-0.3159,-0.2274,-0.2496,-0.2185,-0.0984,-0.1213,-0.0926,0.0126,-0.0253,-0.0287,0.019,-0.0923,-0.1767,-0.2316,-0.4097,-0.5498,-0.6597,0.0,0.0,0.0,0.0,-1.0118,-0.9521,-0.4853,-0.1761,0.0,0.0,0.0,0.0,-0.1501,-0.2666,-0.3403,-0.2049,-0.2433,-0.3527,-0.3174,-0.329,-0.358,-0.358,-0.358,-0.358,-0.358,-0.358,-0.3466,-0.2973,-0.2827,-0.2827,-0.2827,-0.2871,-0.2905,-0.2815,-0.2212,-0.1857,-0.246,-0.1472,-0.0622,-0.096,-0.0254,-0.0342,-0.2613,-0.43,-0.5452,-0.5856,-0.6111,-0.6319,-0.6493,-0.6079,-0.5583,-0.5086,-0.4184,-0.4101,-0.5229,-0.5597,-0.5767,-0.5767,-0.4791,-0.3292,-0.1271,0.0619,0.2731,0.5113,0.575,0.6188,0.6479,0.6589,0.6601,0.6559,0.7234,0.7344,0.711,0.7338,0.7217,0.6895,0.7215,0.7128,0.6853,0.7587,0.808,0.8435,0.8712,0.9366,1.0155,-0.612,-0.7074,-0.728,-0.6583,-0.5448,-0.4731,-0.5007,-0.4254,-0.3557,-0.3477,-0.4044,-0.4262,-0.3608,-0.3606,-0.3382,-0.2673,-0.2717,-0.2237,-0.1056,-0.0977,-0.0538,0.0535,0.0199,0.0228,0.0686,0.0235,-0.0562,-0.1676,-0.287,-0.427,0.0,0.0,0.0,0.0,0.0,0.0,-0.8789,-0.3257,-0.0561,0.0,0.0,0.0,0.0,0.0,-0.1296,-0.3151,-0.3468,-0.3378,-0.3052,-0.2702,-0.3039,-0.358,-0.358,-0.358,-0.358,-0.358,-0.358,-0.3281,-0.1943,-0.1567,-0.1567,-0.1567,-0.2364,-0.2951,-0.2187,-0.1708,-0.1324,-0.1039,-0.0367,0.0257,0.0618,0.0906,0.032,-0.1957,-0.3769,-0.5131,-0.5841,-0.6364,-0.6635,-0.6575,-0.6471,0.0,-0.6975,-0.6044,-0.5903,-0.6968,-0.6862,-0.6738,-0.6781,-0.5477,-0.3814,-0.1933,-0.0038,0.2229,0.4857,0.489,0.5435,0.655,0.6307,0.6392,0.6764,0.6937,0.6979,0.7004,0.7058,0.6964,0.6786,0.677,0.6698,0.6607,0.7225,0.7807,0.8301,0.8505,0.9274,1.0191,-0.5383,-0.525,-0.5194,-0.6044,-0.3455,-0.1821,-0.3538,-0.4061,-0.3849,-0.2815,-0.4026,-0.4511,-0.3331,-0.3633,-0.3469,-0.2399,-0.2759,-0.2599,-0.1565,-0.1473,-0.105,-0.0075,0.0,0.0216,0.0683,0.0257,-0.0345,-0.1054,-0.2426,-0.3748,-0.508,0.0,0.0,0.0,0.0,0.0,-0.8645,-0.6648,-0.3529,0.0,0.0,0.0,0.0,0.0,-0.0261,-0.0887,-0.2869,-0.2308,-0.0907,-0.2749,-0.3464,-0.358,-0.358,-0.358,-0.358,-0.358,-0.358,-0.3102,-0.0918,-0.0316,-0.0316,-0.0316,-0.0477,-0.1102,-0.2891,-0.1227,0.0695,0.0742,0.0883,0.1687,0.3936,0.3056,0.1342,-0.0556,-0.2176,-0.3901,-0.5794,-0.687,-0.7355,-0.7025,-0.6303,-0.6163,-0.7002,-0.6836,-0.7032,-0.7832,-0.7893,-0.8046,-0.8374,-0.8089,-0.6453,-0.3351,-0.2782,-0.0721,0.3101,0.3585,0.3917,0.423,0.5575,0.6004,0.5647,0.655,0.6979,0.6994,0.6576,0.6484,0.6604,0.6231,0.6371,0.6795,0.6386,0.7002,0.8062,0.7591,0.8109,0.9131,-0.3919,-0.4483,-0.4762,-0.4183,-0.2686,-0.1622,-0.1778,-0.2239,-0.2476,-0.2183,-0.3324,-0.3817,-0.2895,-0.3232,-0.3309,-0.273,-0.2925,-0.2779,-0.196,-0.1733,-0.114,-0.0139,-0.0035,0.0242,0.0808,0.0278,-0.0138,-0.0421,-0.112,-0.245,-0.4439,0.0,0.0,0.0,0.0,-0.7522,0.0,-0.595,-0.4575,-0.341,-0.0976,0.0,0.0,0.0,0.0,-0.0151,-0.1309,-0.1396,-0.1018,-0.1562,-0.2293,-0.2891,-0.247,-0.2635,-0.2937,-0.2724,-0.3128,-0.3056,-0.0651,0.0,0.0,0.0,0.0,-0.0302,-0.146,0.1338,0.4207,0.4207,0.3242,0.3051,0.5221,0.4571,0.3059,0.1083,-0.1129,-0.3367,-0.5614,-0.6714,-0.7449,-0.783,-0.6959,-0.6355,-0.6466,-0.7275,-0.7942,-0.8365,-0.8645,-0.8762,-0.8744,-0.8716,-0.7464,-0.4728,-0.4218,-0.2317,0.1269,0.2114,0.3035,0.4041,0.5176,0.5741,0.5787,0.6638,0.6979,0.6965,0.6727,0.6441,0.6067,0.5408,0.5605,0.6327,0.5855,0.6545,0.7735,0.7277,0.7447,0.8006,-0.18,-0.2901,-0.3453,-0.1946,-0.1752,-0.143,-0.0364,-0.0575,-0.1013,-0.1506,-0.2361,-0.2789,-0.2429,-0.2574,-0.2761,-0.2875,-0.2877,-0.2569,-0.1931,-0.1677,-0.112,-0.0201,-0.0067,0.0168,0.0504,0.0187,0.0,0.0,0.0,-0.1156,-0.3422,-0.4998,0.0,0.0,-0.6018,-0.5919,-0.6135,-0.4285,-0.4276,-0.5176,-0.1493,0.0,0.0,0.0,0.0,0.0,0.0,-0.0611,-0.1276,-0.0321,-0.0847,-0.1886,-0.1737,-0.1802,-0.181,-0.1509,-0.2101,-0.2408,-0.0514,0.0,0.0,0.0,0.0,0.0134,0.0644,0.3612,0.6314,0.6565,0.5708,0.5204,0.6143,0.6233,0.541,0.3139,0.057,-0.1924,-0.4305,-0.5246,-0.6197,-0.7543,-0.6434,-0.5392,-0.4882,-0.6686,-0.7981,-0.8262,-0.892,-0.9212,-0.8967,-0.8678,-0.7377,-0.4864,-0.4406,-0.2594,0.0702,0.1579,0.2736,0.4237,0.5079,0.5741,0.6224,0.6771,0.6937,0.6807,0.6745,0.6231,0.5378,0.4769,0.4977,0.5658,0.5442,0.6165,0.726,0.6949,0.6953,0.7203,0.1231,0.1288,0.1027,0.0114,0.0669,0.0873,-0.0072,-0.0488,-0.0746,-0.0784,-0.135,-0.1833,-0.2022,-0.1701,-0.1631,-0.2077,-0.2112,-0.1734,-0.088,-0.1148,-0.1111,-0.0638,-0.0235,-0.0235,-0.0706,-0.026,0.0,0.0,0.0,-0.0518,-0.1517,-0.3183,-0.4132,-0.4499,-0.4475,-0.4242,-0.3815,-0.3594,-0.24,-0.0618,-0.0176,0.0,0.0,0.0,0.0,0.0,0.0,-0.0072,-0.0151,-0.0038,-0.0101,-0.0596,-0.2701,-0.1935,-0.0235,-0.0179,-0.0251,-0.0287,-0.0061,0.0,0.0,0.0,0.0,0.057,0.2749,0.3546,0.4097,0.5081,0.7576,0.9174,0.7857,0.8715,0.8721,0.5989,0.4187,0.2215,-0.0434,-0.139,-0.2552,-0.448,-0.267,-0.1308,-0.1354,-0.4104,-0.6158,-0.6827,-0.8442,-0.952,-0.9781,-0.8623,-0.6199,-0.2275,-0.2585,-0.0867,0.3138,0.3262,0.3398,0.3586,0.5298,0.6136,0.6224,0.6771,0.6729,0.6252,0.597,0.5322,0.4538,0.4751,0.4906,0.4981,0.4979,0.5625,0.6563,0.6171,0.6488,0.7114,0.2518,0.1681,0.1013,0.124,0.0857,0.0466,0.0347,0.0,-0.037,-0.0672,-0.1129,-0.1374,-0.1245,-0.1273,-0.1605,-0.2371,-0.1907,-0.1772,-0.2233,-0.1439,-0.0972,-0.1073,-0.0369,-0.0101,-0.037,-0.0117,0.0,0.0,0.0,-0.0155,-0.0493,-0.1694,-0.2513,-0.2985,-0.2726,-0.258,-0.2449,-0.1693,-0.0863,0.0,0.0,0.0,0.0,0.0,0.0,0.0,0.0,0.0,0.0,0.0,0.0,-0.0168,-0.1129,-0.0787,0.0,0.0,0.0,0.0,0.0,0.0,0.0,0.0,0.0821,0.1883,0.2857,0.4373,0.5684,0.5982,0.8048,0.967,0.9288,0.982,0.9741,0.8135,0.6568,0.4805,0.2588,0.0785,-0.0718,-0.1716,-0.2337,-0.2287,-0.1244,-0.301,-0.4831,-0.6359,-0.8241,-0.9405,-0.9529,-0.8177,-0.6067,-0.3139,-0.2795,-0.1182,0.1903,0.2646,0.3178,0.3542,0.5666,0.6667,0.6709,0.7273,0.707,0.6133,0.5297,0.4703,0.4385,0.4178,0.429,0.4581,0.4605,0.5216,0.6114,0.596,0.6244,0.6755,0.3739,0.2394,0.1461,0.2242,0.1198,0.0384,0.0807,0.0502,0.0134,-0.0101,-0.0469,-0.0703,-0.0706,-0.0838,-0.1303,-0.22,-0.167,-0.1637,-0.2465,-0.1505,-0.094,-0.1106,-0.0402,-0.0163,-0.0514,-0.0195,0.0,0.0,0.0518,0.0768,0.0735,-0.0036,-0.063,-0.0947,-0.0671,-0.0819,-0.1203,-0.0368,0.0,0.0,0.0,0.0,0.0,0.0,0.0,0.0,0.0,0.0,0.0,0.0,0.0,0.0,0.0,0.0,0.0,0.0,0.0,0.0,0.0,0.039,0.0798,0.0798,0.1749,0.2743,0.2957,0.5144,0.7159,0.7251,0.8716,0.9938,0.9997,1.044,1.0536,0.9646,0.8371,0.6925,0.5282,0.3569,0.1833,0.0062,-0.0853,-0.1015,-0.0197,-0.1469,-0.2887,-0.4275,-0.6526,-0.8099,-0.8738,-0.7268,-0.5435,-0.3386,-0.2381,-0.0834,0.142,0.2599,0.339,0.3803,0.6129,0.7252,0.7252,0.7339,0.6842,0.5873,0.4698,0.4178,0.4134,0.3922,0.4022,0.432,0.4558,0.5122,0.5757,0.5568,0.5937,0.651,0.5229,0.4366,0.3588,0.3333,0.216,0.1272,0.1305,0.0936,0.0835,0.1238,0.0936,0.0334,-0.0605,-0.0302,-0.0369,-0.1238,-0.1305,-0.1139,-0.0773,-0.1073,-0.1106,-0.074,-0.0269,-0.0571,-0.176,-0.0623,0.0,0.0,0.1733,0.257,0.2557,0.1941,0.1777,0.1947,0.18,0.1083,-0.0018,0.0,0.0,0.0,0.0,0.0,0.0,0.0,0.0,0.0,0.0,0.0,0.0,0.0,0.0,0.0,0.0,0.0,0.0,0.0,0.0,0.0,0.0,0.1312,0.2682,0.2682,0.2645,0.28,0.3592,0.5714,0.7735,0.8528,0.9923,1.0667,0.9711,1.0738,1.1419,1.0374,0.9603,0.8803,0.7722,0.76,0.5716,0.0594,0.296,0.4373,0.2804,0.1024,0.0,0.0124,-0.2664,-0.5271,-0.7409,-0.5757,-0.3871,-0.1999,-0.068,0.0836,0.2672,0.3803,0.4368,0.4411,0.6781,0.7874,0.7829,0.6642,0.5834,0.5262,0.41,0.3624,0.3667,0.4176,0.4239,0.4104,0.4968,0.539,0.542,0.4823,0.5408,0.6506,0.5605,0.4523,0.3615,0.3767,0.2666,0.1673,0.1334,0.1201,0.107,0.0902,0.1003,0.1003,0.0703,0.0803,0.0534,-0.0331,0.0133,0.0166,-0.0594,0.0067,0.0267,-0.0201,-0.0067,-0.0195,-0.057,-0.1418,-0.1231,0.0,0.0551,0.1442,0.2585,0.2388,0.2698,0.3347,0.2691,0.1503,0.0,0.0,0.0,0.0,0.0,0.0,0.0,0.0,0.0,0.0,0.0,0.0,0.0,0.0,0.0,0.0,0.0,0.0,0.0,0.0,0.0,0.0,0.0,0.2186,0.4465,0.4465,0.4464,0.4499,0.4701,0.6235,0.7857,0.8595,0.9397,0.9972,0.9962,1.0094,1.0151,1.0151,0.9949,0.9729,0.9476,1.0057,0.8945,0.4715,0.4086,0.3913,0.3664,0.2735,0.1869,0.1345,0.0068,-0.2297,-0.5942,-0.4791,-0.3363,-0.1962,0.0128,0.1906,0.3306,0.4039,0.46,0.5034,0.6929,0.8039,0.8435,0.7638,0.6658,0.555,0.4986,0.4672,0.4517,0.4857,0.4836,0.4631,0.4765,0.494,0.5075,0.5035,0.5783,0.6788,0.5399,0.4348,0.346,0.3747,0.2817,0.191,0.1621,0.1657,0.165,0.1422,0.1778,0.2068,0.2068,0.2199,0.1761,0.0397,0.0897,0.0896,-0.0066,0.0762,0.1066,0.0501,0.0402,0.0235,0.0,-0.1104,-0.1471,-0.1013,-0.0332,0.0559,0.1641,0.2283,0.2902,0.3478,0.3608,0.3038,0.1946,0.1286,0.102,0.1013,0.0984,0.0584,0.0,0.0,0.0,0.0,0.0,0.0,0.0,0.0,0.0,0.0,0.0,0.0,0.0,0.0,0.0,0.0,0.0,0.2331,0.4766,0.4766,0.5033,0.5414,0.6024,0.7102,0.8065,0.8422,0.9044,0.9474,0.9368,0.924,0.9138,0.9138,0.9327,0.9292,0.8926,0.9536,0.8935,0.6087,0.4553,0.39,0.4333,0.4201,0.3791,0.3091,0.2047,0.017,-0.273,-0.2309,-0.1664,-0.0868,0.1299,0.2853,0.358,0.4353,0.4911,0.5303,0.7026,0.8121,0.8675,0.7855,0.6943,0.5985,0.5412,0.4893,0.451,0.5086,0.5049,0.4673,0.5077,0.4966,0.4628,0.5036,0.554,0.6009,0.481,0.3905,0.3223,0.3464,0.2725,0.2081,0.209,0.2355,0.2577,0.2588,0.3031,0.3358,0.3358,0.3712,0.3135,0.106,0.1257,0.1322,0.0928,0.1257,0.1455,0.1361,0.1137,0.0696,0.0,0.0,-0.0818,-0.2525,-0.0829,0.0,0.0036,0.1663,0.2552,0.284,0.4292,0.4943,0.4838,0.3458,0.2812,0.2703,0.2634,0.1771,0.0496,0.0136,0.0,0.0049,0.0404,0.0535,0.0482,0.0122,0.0123,0.0241,0.0059,0.0,0.0,0.0,0.0,0.0078,0.0438,0.2308,0.4117,0.395,0.4614,0.575,0.7389,0.8082,0.8339,0.8131,0.8811,0.9129,0.8152,0.8292,0.8355,0.7633,0.7894,0.7731,0.6579,0.6734,0.6495,0.5176,0.4635,0.4511,0.4885,0.5416,0.5592,0.5222,0.3478,0.2257,0.181,0.1375,0.1069,0.0907,0.2642,0.3565,0.3565,0.4696,0.5303,0.5513,0.7158,0.8244,0.8678,0.7561,0.6848,0.6483,0.5457,0.4594,0.4063,0.5023,0.499,0.4498,0.579,0.5416,0.4223,0.4588,0.442,0.4211,0.4797,0.4131,0.3576,0.3651,0.3205,0.292,0.3125,0.3219,0.334,0.3602,0.3764,0.3823,0.3823,0.3704,0.3407,0.2881,0.3166,0.3221,0.2856,0.317,0.2941,0.195,0.2156,0.1549,0.0042,0.0,-0.0201,-0.0642,-0.0211,0.0,0.001,0.0423,0.2067,0.4556,0.2271,0.1257,0.1409,0.3699,0.3916,0.2695,0.2689,0.3955,0.5443,0.1498,0.0,0.0516,0.4461,0.5876,0.5273,0.1328,0.1328,0.2632,0.063,0.0,0.0,0.0,0.0,0.0861,0.4806,0.6324,0.6343,0.4387,0.529,0.6768,0.718,0.785,0.8474,0.8713,0.8862,0.8883,0.8585,0.8083,0.7515,0.6934,0.676,0.6401,0.5469,0.6162,0.6341,0.5151,0.6261,0.6895,0.6223,0.6301,0.6252,0.596,0.5365,0.4884,0.4562,0.4505,0.3427,0.1135,0.2563,0.3361,0.3361,0.4197,0.5492,0.7207,0.8126,0.8643,0.8744,0.7853,0.7236,0.6766,0.6176,0.582,0.5732,0.6252,0.6367,0.6246,0.6012,0.6004,0.5625,0.1466,0.0394,0.1346,0.4786,0.4245,0.3838,0.3989,0.3505,0.315,0.3301,0.3362,0.3533,0.3892,0.413,0.4354,0.4529,0.4399,0.4288,0.4288,0.4013,0.3718,0.3351,0.3798,0.3621,0.255,0.2217,0.179,0.1245,0.0427,0.0,0.0,0.0,0.0,0.0,0.0,0.1032,0.2869,0.2564,0.1525,0.0128,0.2063,0.3482,0.4388,0.3658,0.4477,0.5912,0.4147,0.2975,0.2607,0.5082,0.6703,0.7322,0.4861,0.317,0.2396,0.3973,0.4902,0.5042,0.3233,0.3569,0.5137,0.7943,0.8706,0.8325,0.6727,0.7112,0.7834,0.7681,0.8153,0.8613,0.8605,0.8671,0.8653,0.8387,0.7791,0.7085,0.63,0.5554,0.4785,0.4044,0.4624,0.5074,0.5004,0.629,0.7278,0.7517,0.7212,0.6988,0.7057,0.6838,0.6657,0.6466,0.628,0.5076,0.2695,0.3397,0.379,0.379,0.4781,0.6132,0.7847,0.8186,0.8471,0.8725,0.8052,0.7577,0.7234,0.6727,0.6341,0.6072,0.5877,0.5911,0.6059,0.538,0.5017,0.4693,0.3158,0.1494,0.0543,0.4778,0.4377,0.4081,0.4279,0.3703,0.3233,0.3232,0.3374,0.3595,0.3985,0.4417,0.4825,0.5148,0.5169,0.5132,0.5132,0.4323,0.3649,0.3308,0.3949,0.4008,0.3233,0.237,0.2031,0.2294,0.0791,0.0,0.0,0.0,0.0399,0.1143,0.0365,0.0351,0.1084,0.3437,0.3251,0.1127,0.0867,0.2886,0.6172,0.513,0.4805,0.5181,0.7285,0.708,0.5556,0.5001,0.6151,0.7999,0.8578,0.5478,0.2317,0.7567,1.0315,1.098,0.7745,0.8408,1.005,0.9338,0.9467,0.9679,0.9245,0.8975,0.8734,0.8449,0.8632,0.8817,0.8584,0.8742,0.8805,0.8401,0.7965,0.7322,0.6215,0.4959,0.3945,0.3417,0.3727,0.4385,0.5384,0.63,0.7337,0.8695,0.809,0.7721,0.8,0.7854,0.7731,0.7622,0.7353,0.6465,0.4915,0.4784,0.4785,0.4894,0.6025,0.7119,0.81,0.8173,0.8441,0.8927,0.8427,0.8177,0.8093,0.7499,0.6896,0.6253,0.5526,0.541,0.5626,0.5036,0.4361,0.3927,0.5834,0.4016,0.1168,0.4751,0.463,0.4447,0.4037,0.386,0.3791,0.3861,0.4063,0.4329,0.4608,0.4914,0.5131,0.5179,0.5001,0.4872,0.4872,0.4452,0.4211,0.4189,0.4727,0.4778,0.4208,0.4489,0.3331,0.0479,0.0144,0.0,0.0,0.0,0.2233,0.6406,0.2038,0.196,0.5345,0.2216,0.2912,0.6318,0.485,0.4608,0.5341,0.6567,0.7612,0.8573,0.9892,0.9628,0.8571,0.8802,0.8931,0.8926,0.8651,0.8251,0.7705,0.679,0.8428,1.0727,1.0858,1.1186,1.067,0.6809,0.7493,0.9251,0.8948,0.8844,0.8789,0.8734,0.8767,0.9124,1.025,1.0252,1.0119,1.03,0.9807,0.8953,0.7831,0.6721,0.6067,0.6375,0.7135,0.7729,0.7862,0.9221,0.9916,0.9345,0.8878,0.8323,0.7721,0.79,0.7935,0.7695,0.8194,0.8068,0.7143,0.6502,0.648,0.7095,0.7749,0.8408,0.9102,0.9652,0.9962,1.003,0.9733,0.9773,1.0026,0.9273,0.8786,0.8561,0.8275,0.8054,0.7854,0.7367,0.7822,0.8145,0.3079,0.2087,0.3099,0.4994,0.5179,0.5182,0.4457,0.4431,0.4357,0.3991,0.4199,0.4481,0.4679,0.4743,0.4909,0.5265,0.4979,0.4794,0.4942,0.4818,0.4686,0.4573,0.4834,0.4396,0.3049,0.3547,0.3933,0.4153,0.2798,0.2106,0.2106,0.2106,0.3523,0.6228,0.5216,0.508,0.5597,0.3585,0.4183,0.6761,0.7751,0.8091,0.8063,0.9117,0.9633,0.9868,1.0612,1.0563,1.0116,1.0083,0.9951,0.9779,0.971,0.9633,0.9504,0.9146,1.0023,1.1281,1.1674,1.1652,1.1017,0.8916,0.9208,1.0109,1.0132,1.0144,1.0131,1.0061,1.0048,1.0172,1.0689,1.065,1.0519,1.0534,1.0078,0.9471,0.8764,0.7924,0.7435,0.7666,0.8927,0.9756,0.9571,1.0599,1.1177,1.084,0.9922,0.9192,0.8869,0.8839,0.8701,0.8303,0.8618,0.8739,0.8579,0.7885,0.7681,0.8019,0.8982,0.9731,1.0269,1.0523,1.0666,1.0726,1.061,1.0536,1.0489,1.0344,1.0049,0.9624,0.8614,0.7326,0.5679,0.2628,0.2738,0.4204,0.1122,0.3456,0.7868,0.5176,0.5558,0.5722,0.4995,0.4928,0.4779,0.4167,0.4197,0.4309,0.4422,0.44,0.4576,0.5081,0.4833,0.4691,0.4888,0.4908,0.4829,0.4631,0.4658,0.4011,0.2513,0.2551,0.4005,0.7017,0.5576,0.4873,0.504,0.504,0.5359,0.6019,0.8245,0.8153,0.6127,0.6296,0.6705,0.7417,0.9993,1.0968,1.0786,1.1144,1.1015,1.0637,1.1022,1.1136,1.1036,1.0793,1.0661,1.0624,1.0833,1.0647,1.0501,1.1403,1.173,1.1775,1.1797,1.1579,1.1362,1.1408,1.1235,1.1098,1.1306,1.1365,1.1344,1.1241,1.1227,1.1219,1.1256,1.1176,1.1073,1.0973,1.0621,1.022,0.9823,0.9389,0.9204,0.9505,1.078,1.1622,1.1515,1.2002,1.2247,1.2052,1.0873,1.0002,0.9811,0.9509,0.9133,0.8701,0.8844,0.9206,0.9773,0.925,0.9005,0.9059,1.0134,1.0916,1.1368,1.1304,1.1284,1.1338,1.1482,1.1337,1.1002,1.1232,1.0952,1.0203,0.8694,0.6537,0.3738,-0.0672,-0.1528,-0.0167,0.0621,0.5042,1.0548,0.5117,0.5482,0.5713,0.5409,0.5151,0.4893,0.4598,0.4192,0.3944,0.3944,0.4169,0.433,0.4371,0.4346,0.4329,0.435,0.435,0.435,0.4329,0.4334,0.4353,0.4384,0.3242,0.3449,0.5263,0.6693,0.7756,0.8444,0.8444,0.8597,0.891,1.0161,1.0275,0.9478,1.0161,1.0769,1.1289,1.153,1.1584,1.1526,1.1555,1.1533,1.1547,1.1881,1.1818,1.1584,1.186,1.1761,1.1504,1.1526,1.1711,1.1902,1.1749,1.1693,1.1715,1.1782,1.1776,1.1804,1.1981,1.1797,1.1555,1.1576,1.1576,1.1576,1.1569,1.1561,1.1826,1.2747,1.2621,1.2483,1.2833,1.2568,1.2099,1.1512,1.16,1.2152,1.3403,1.3655,1.3871,1.4427,1.432,1.3675,1.231,1.1458,1.0572,0.9507,0.9074,0.8695,0.8342,0.8992,0.9856,1.0944,1.0747,1.0772,1.1085,1.1367,1.172,1.2123,1.2295,1.2255,1.2055,1.2607,1.2714,1.2434,1.2153,1.1513,1.0593,0.9588,0.7526,0.4821,0.2888,0.0804,-0.0721,0.2442,0.5166,0.7447,0.4971,0.5325,0.5543,0.5099,0.5011,0.48,0.4257,0.401,0.3848,0.3668,0.3748,0.3869,0.4031,0.4048,0.4109,0.4289,0.4155,0.4114,0.4289,0.3984,0.4045,0.4568,0.392,0.4095,0.5329,0.5956,0.6611,0.7322,0.7485,0.8004,0.889,0.9029,0.9685,1.0718,1.0592,1.1059,1.1958,1.2075,1.2235,1.2425,1.2536,1.2515,1.2425,1.2687,1.2555,1.2238,1.2503,1.2337,1.2025,1.236,1.2337,1.2171,1.2237,1.2136,1.2014,1.2045,1.2052,1.21,1.2345,1.2066,1.1794,1.2153,1.2226,1.2305,1.2641,1.2716,1.2807,1.3159,1.3097,1.3024,1.3151,1.3032,1.287,1.2632,1.3455,1.4312,1.4902,1.5429,1.5811,1.5898,1.5027,1.4102,1.3328,1.2027,1.0944,1.0264,0.9873,0.9374,0.8645,0.9538,1.048,1.1377,1.2022,1.2406,1.2534,1.3073,1.3388,1.3503,1.3581,1.3454,1.3163,1.3392,1.3264,1.2837,1.271,1.2148,1.1248,1.0316,0.8584,0.6256,0.3631,0.3009,0.3502,0.2846,0.499,0.8432,0.4705,0.5064,0.5308,0.492,0.4878,0.4702,0.4205,0.3914,0.3706,0.3527,0.3506,0.3566,0.3748,0.3769,0.3848,0.4031,0.3875,0.3851,0.4027,0.3699,0.3757,0.435,0.4252,0.4465,0.5103,0.5218,0.5588,0.6238,0.6642,0.7388,0.844,0.838,0.9175,1.067,1.0598,1.1114,1.2056,1.2429,1.2765,1.3073,1.3211,1.3177,1.3073,1.3211,1.309,1.2863,1.3019,1.2801,1.2518,1.2877,1.2711,1.2344,1.2435,1.2284,1.2045,1.1953,1.1995,1.2107,1.2296,1.2079,1.1961,1.2572,1.2741,1.291,1.358,1.3574,1.3455,1.365,1.3532,1.3386,1.3326,1.342,1.3487,1.3487,1.4841,1.5849,1.57,1.661,1.7072,1.6418,1.5339,1.4409,1.3802,1.2609,1.1644,1.1125,1.0828,1.0449,0.9844,1.0576,1.1385,1.2227,1.3082,1.3635,1.3858,1.4216,1.4432,1.4491,1.4384,1.4166,1.3859,1.3859,1.3558,1.3021,1.284,1.2225,1.1315,1.0329,0.9082,0.757,0.5197,0.548,0.7005,0.4889,0.6278,0.9362,0.4354,0.467,0.4988,0.4988,0.4764,0.4603,0.4603,0.3969,0.3506,0.3506,0.3506,0.3506,0.3506,0.3506,0.3506,0.3506,0.3506,0.3506,0.3506,0.3506,0.3619,0.3877,0.4159,0.4289,0.4289,0.4754,0.5285,0.5885,0.6556,0.7236,0.791,0.8697,0.9151,0.9361,1.0613,1.1448,1.1951,1.2684,1.3148,1.3388,1.3396,1.3405,1.3405,1.3405,1.3396,1.3388,1.3396,1.3217,1.297,1.2979,1.2807,1.2545,1.2291,1.201,1.1725,1.1393,1.1534,1.1797,1.1797,1.1797,1.1982,1.2786,1.2987,1.3257,1.4254,1.3921,1.3616,1.4344,1.4024,1.3608,1.3608,1.387,1.4096,1.4096,1.5726,1.6711,1.5917,1.7178,1.7585,1.598,1.5439,1.4718,1.3541,1.3221,1.2763,1.1976,1.1854,1.1859,1.2008,1.2086,1.2604,1.3682,1.3901,1.4359,1.5096,1.4637,1.4566,1.4899,1.4568,1.427,1.4015,1.4004,1.3667,1.3076,1.2448,1.1619,1.0612,0.9542,0.8946,0.8671,0.8123,0.8325,0.8939,0.9128,0.9339,0.9616,0.4126,0.4024,0.4024,0.4248,0.404,0.3825,0.3825,0.3645,0.3506,0.3506,0.3506,0.3506,0.3506,0.3506,0.3506,0.3506,0.3493,0.3416,0.3223,0.3387,0.3457,0.3335,0.3594,0.3828,0.401,0.4337,0.4695,0.5056,0.5644,0.6435,0.7414,0.7375,0.8197,0.9715,0.9633,1.02,1.1248,1.1934,1.2356,1.26,1.3074,1.3286,1.332,1.3269,1.3007,1.2594,1.2422,1.1877,1.1326,1.1836,1.1829,1.1686,1.2083,1.201,1.1776,1.1681,1.1725,1.1797,1.1797,1.163,1.1615,1.2263,1.2439,1.2613,1.3295,1.3278,1.3259,1.3751,1.3734,1.3685,1.3969,1.4096,1.4241,1.4484,1.5481,1.6215,1.6157,1.6479,1.6581,1.6204,1.5344,1.4635,1.4281,1.3727,1.3279,1.3049,1.2606,1.2716,1.3499,1.3346,1.3633,1.4506,1.4691,1.4947,1.5311,1.5166,1.5152,1.5246,1.5154,1.4941,1.4625,1.4491,1.4038,1.3336,1.2641,1.1985,1.1322,1.0347,0.9906,0.9799,0.9585,0.9648,0.9809,0.9885,0.9604,0.935,0.387,0.3735,0.3727,0.3915,0.3876,0.3807,0.3807,0.3807,0.3807,0.3807,0.3727,0.3668,0.3668,0.3566,0.3545,0.3647,0.3754,0.3744,0.3588,0.3734,0.3741,0.3588,0.372,0.3848,0.389,0.4171,0.443,0.471,0.5136,0.5751,0.6523,0.6576,0.734,0.8689,0.8974,0.9594,1.0471,1.1396,1.1849,1.1997,1.2403,1.2661,1.2818,1.2777,1.2461,1.2008,1.1844,1.1172,1.0502,1.12,1.1519,1.1672,1.2058,1.2094,1.1947,1.1819,1.1703,1.1608,1.1608,1.1378,1.1219,1.1601,1.1853,1.2151,1.2776,1.2872,1.3074,1.3863,1.3965,1.4113,1.4759,1.4958,1.5126,1.5443,1.5943,1.629,1.6264,1.621,1.6112,1.5929,1.5251,1.4775,1.4692,1.4294,1.4053,1.4087,1.3781,1.3905,1.4596,1.4434,1.4525,1.497,1.5062,1.5316,1.5789,1.5825,1.5692,1.5404,1.5747,1.5812,1.561,1.5648,1.5395,1.4873,1.4058,1.3229,1.2393,1.1753,1.1181,1.0695,1.0805,1.0727,1.0575,1.0491,1.0047,0.9585,0.3668,0.3769,0.3928,0.3928,0.413,0.4309,0.4309,0.4309,0.4309,0.4309,0.4089,0.3928,0.3928,0.3727,0.3668,0.3907,0.415,0.4309,0.4329,0.4309,0.4309,0.4309,0.4329,0.4228,0.4007,0.4228,0.4451,0.471,0.4962,0.5242,0.5511,0.6189,0.6606,0.6877,0.8467,0.9322,0.9683,1.0862,1.1386,1.1415,1.1482,1.169,1.1971,1.1987,1.1792,1.1494,1.1411,1.0805,1.0125,1.0813,1.1516,1.2086,1.2156,1.2136,1.2045,1.1811,1.1512,1.125,1.125,1.1034,1.0818,1.0849,1.1206,1.174,1.2486,1.2613,1.2927,1.4237,1.4463,1.4672,1.5572,1.6019,1.6308,1.6582,1.6686,1.6599,1.6232,1.6251,1.6081,1.5478,1.5361,1.526,1.5086,1.5129,1.5187,1.5247,1.5322,1.5399,1.5524,1.5514,1.5454,1.5331,1.5315,1.5714,1.6508,1.6577,1.6285,1.5644,1.6436,1.6825,1.6831,1.7181,1.7262,1.7075,1.6147,1.4993,1.3718,1.3457,1.2591,1.1457,1.1785,1.1652,1.129,1.0973,1.063,1.0241,0.4191,0.4171,0.4207,0.4207,0.4268,0.4309,0.4309,0.4309,0.4309,0.4309,0.4248,0.4207,0.4207,0.4171,0.415,0.4211,0.4268,0.439,0.4611,0.441,0.4309,0.4309,0.4511,0.4677,0.4836,0.4697,0.4651,0.471,0.4962,0.5243,0.5511,0.567,0.6123,0.6814,0.7207,0.7907,0.8871,0.9241,0.9635,1.0082,1.044,1.0745,1.1017,1.1123,1.098,1.0647,0.9897,0.9242,0.8835,0.9604,1.0459,1.1249,1.1747,1.1564,1.121,1.1355,1.1203,1.0984,1.0984,1.053,1.0108,1.0421,1.0356,1.0458,1.1419,1.1929,1.2345,1.2862,1.374,1.4433,1.4545,1.5138,1.5682,1.5938,1.5669,1.553,1.5911,1.6154,1.629,1.6237,1.6773,1.7141,1.715,1.7211,1.7255,1.7272,1.7278,1.7277,1.726,1.7158,1.7089,1.706,1.7059,1.7169,1.7424,1.743,1.7435,1.7441,1.7627,1.7725,1.7724,1.7701,1.7563,1.7289,1.6448,1.5648,1.4855,1.3983,1.3169,1.2489,1.2596,1.2516,1.2232,1.1591,1.1158,1.0847,0.4386,0.441,0.4527,0.4653,0.478,0.4923,0.5049,0.5069,0.5069,0.5069,0.4948,0.4869,0.4869,0.4648,0.4549,0.4668,0.4909,0.5074,0.5088,0.4952,0.4868,0.4868,0.501,0.5214,0.5483,0.5342,0.5214,0.5088,0.5088,0.5228,0.5511,0.5638,0.6139,0.6963,0.7353,0.7903,0.8568,0.8936,0.9144,0.925,0.9476,0.9717,0.9897,0.9963,0.9925,0.972,0.8942,0.8674,0.8755,0.9277,1.0191,1.1159,1.1468,1.1334,1.1089,1.1111,1.09,1.066,1.066,1.0266,0.9906,1.0103,1.003,1.0086,1.0849,1.1486,1.2187,1.3129,1.3971,1.4737,1.5327,1.5623,1.5924,1.6399,1.5947,1.5822,1.652,1.6716,1.6837,1.7009,1.7483,1.7813,1.7842,1.7883,1.7895,1.7904,1.7901,1.7883,1.7854,1.7747,1.7498,1.7087,1.7196,1.7327,1.7455,1.746,1.7841,1.857,1.8409,1.8331,1.8341,1.8537,1.8501,1.827,1.7553,1.6668,1.5678,1.4986,1.4133,1.3247,1.2963,1.2596,1.2119,1.1437,1.108,1.0951,0.4657,0.4741,0.4976,0.5189,0.5423,0.5638,0.5869,0.5905,0.5905,0.5905,0.5704,0.5563,0.5563,0.5165,0.4987,0.5222,0.5675,0.585,0.5582,0.5595,0.5614,0.5614,0.5582,0.5708,0.6009,0.5942,0.58,0.5563,0.5344,0.5344,0.5568,0.5883,0.6429,0.7161,0.7931,0.8415,0.8677,0.9048,0.9041,0.8783,0.8734,0.8786,0.8881,0.8909,0.8941,0.8914,0.8281,0.845,0.9001,0.9319,1.0158,1.107,1.1199,1.1185,1.11,1.0954,1.0691,1.0476,1.0427,1.016,0.9937,1.0116,1.0147,1.0344,1.1061,1.1525,1.2252,1.3763,1.4579,1.5354,1.6519,1.6642,1.6696,1.7196,1.6742,1.6589,1.7365,1.7453,1.7549,1.7821,1.827,1.8493,1.8328,1.8464,1.851,1.8399,1.8294,1.8238,1.829,1.822,1.7759,1.6837,1.7266,1.7475,1.7406,1.7517,1.8111,1.9146,1.8877,1.8762,1.8795,1.9246,1.9357,1.9152,1.8581,1.7573,1.6287,1.5911,1.5082,1.3998,1.3327,1.27,1.2049,1.1378,1.1093,1.1118,0.5691,0.571,0.5752,0.5784,0.5832,0.585,0.5887,0.5905,0.5905,0.5905,0.5869,0.5845,0.5845,0.5784,0.5747,0.5784,0.6028,0.6064,0.5869,0.601,0.6106,0.6106,0.5931,0.6057,0.6497,0.6111,0.5887,0.585,0.5813,0.5813,0.5861,0.6363,0.6841,0.7304,0.7943,0.8605,0.9242,0.8695,0.8584,0.8761,0.8472,0.8378,0.8404,0.8527,0.858,0.8494,0.777,0.7904,0.8534,0.9307,0.9803,1.0185,1.0781,1.075,1.0567,1.0818,1.0873,1.0763,1.0483,1.0121,1.0052,1.0965,1.0941,1.1148,1.2898,1.2727,1.2489,1.3402,1.5021,1.6305,1.6526,1.7254,1.7795,1.7653,1.7169,1.7032,1.7666,1.794,1.8283,1.8828,2.0248,2.0873,2.0051,2.0715,2.0977,2.0451,1.9876,1.9642,1.9879,1.9768,1.92,1.8097,1.9335,1.9446,1.825,1.8811,1.9046,1.8941,1.8953,1.9022,1.9128,1.9209,1.9042,1.8665,1.8243,1.7581,1.674,1.5945,1.5415,1.5031,1.4486,1.392,1.3347,1.2692,1.221,1.2042,0.5924,0.5905,0.5991,0.6248,0.6295,0.6359,0.6598,0.6632,0.6587,0.6482,0.6464,0.6418,0.6307,0.6383,0.6412,0.6295,0.6581,0.6676,0.6474,0.6536,0.6598,0.6598,0.6502,0.6604,0.693,0.6732,0.6577,0.6464,0.6081,0.5954,0.607,0.6314,0.6935,0.788,0.8142,0.8675,0.9375,0.9046,0.8877,0.8789,0.8629,0.8388,0.8154,0.8402,0.8512,0.8477,0.8385,0.8635,0.9046,0.9263,0.9569,0.9976,1.0465,1.0525,1.0483,1.0794,1.1017,1.1176,1.146,1.1496,1.1725,1.2714,1.2867,1.3092,1.4403,1.466,1.4646,1.4839,1.5942,1.705,1.7763,1.8191,1.8639,1.9211,1.9252,1.9359,1.9856,2.038,2.085,2.123,2.192,2.2186,2.1741,2.1872,2.1819,2.1443,2.1135,2.081,2.0443,2.0968,2.0566,1.8956,1.9912,2.0068,1.9309,1.8881,1.8956,1.9506,1.928,1.9067,1.8864,1.8893,1.8617,1.8084,1.7778,1.7241,1.6545,1.6138,1.5819,1.5528,1.4905,1.4297,1.3714,1.3432,1.343,1.3648]}]]